[[{"header":{"parameterUnit":"m.s-1","parameterCategory":1,"la1":31.0,"la2":29.5877,"lo1":-88.7671,"lo2":-86.6584,"dy":0.0162,"dx":0.0185,"nx":115,"ny":88,"refTime":"2023-11-22T06:00:00:Z","depth":0,"parameterNumber":2,"parameterNumberName":"U-component_of_WINDS"},"data":[0.0,0.0,0.0,0.0,0.0,0.0,0.0,0.0,0.0,0.0,0.0,0.0,0.0,0.0,0.0,0.0,0.0,0.0,0.0,0.0,0.0,0.0,0.0,0.0,0.0,0.0,0.0,0.0,0.0,0.0,0.0,0.0,0.0,0.0,0.0,0.0,0.0,0.0,0.0,0.0,0.0,0.0,0.0,0.0,0.0,0.0,0.0,0.0,0.0,0.0,0.0,0.0,0.0,0.0,0.0,0.0,0.0,0.0,0.0,0.0,0.0,0.0,0.0,0.0,0.0,0.0,0.0,0.0,0.0,0.0,0.0,0.0,0.0,0.0,0.0,0.0,0.0,0.0,0.0,0.0,0.0,0.0,0.0,0.0,0.0,0.0,0.0,0.0,0.0,0.0,0.0,0.0,0.0,0.0,0.0,0.0,0.0,0.0,0.0,0.0,0.0,0.0,0.0,0.0,0.0,0.0,0.0,0.0,0.0,0.0,0.0,0.0,0.0,0.0,0.0,0.0,0.0,0.0,0.0,0.0,0.0,0.0,0.0,0.0,0.0,0.0,0.0,0.0,0.0,0.0,0.0,0.0,0.0,0.0,0.0,0.0,0.0,0.0,0.0,0.0,0.0,0.0,0.0,0.0,0.0,0.0,0.0,0.0,0.0,0.0,0.0,0.0,0.0,0.0,0.0,0.0,0.0,0.0,0.0,0.0,0.0,0.0,0.0,0.0,0.0,0.0,0.0,0.0,0.0,0.0,0.0,0.0,0.0,0.0,0.0,0.0,0.0,0.0,0.0,0.0,0.0,0.0,0.0,0.0,0.0,0.0,0.0,0.0,0.0,0.0,0.0,0.0,0.0,0.0,0.0,0.0,0.0,0.0,0.0,0.0,0.0,0.0,0.0,0.0,0.0,0.0,0.0,0.0,0.0,0.0,0.0,0.0,0.0,0.0,0.0,0.0,0.0,0.0,0.0,0.0,0.0,0.0,0.0,0.0,0.0,0.0,0.0,0.0,0.0,0.0,0.0,0.0,0.0,0.0,0.0,0.0,0.0,0.0,0.0,0.0,0.0,0.0,0.0,0.0,0.0,0.0,0.0,0.0,0.0,0.0,0.0,0.0,0.0,0.0,0.0,0.0,0.0,0.0,0.0,0.0,0.0,0.0,0.0,0.0,0.0,0.0,0.0,0.0,0.0,0.0,0.0,0.0,0.0,0.0,0.0,0.0,0.0,0.0,0.0,0.0,0.0,0.0,0.0,0.0,0.0,0.0,0.0,0.0,0.0,0.0,0.0,0.0,0.0,0.0,0.0,0.0,0.0,0.0,0.0,0.0,0.0,0.0,0.0,0.0,0.0,0.0,0.0,0.0,0.0,0.0,0.0,0.0,0.0,0.0,0.0,0.0,0.0,0.0,0.0,0.0,0.0,0.0,0.0,0.0,0.0,0.0,0.0,0.0,0.0,0.0,0.0,0.0,0.0,0.0,0.0,0.0,0.0,0.0,0.0,0.0,0.0,0.0,0.0,0.0,0.0,0.0,0.0,0.0,0.0,0.0,0.0,0.0,0.0,0.0,0.0,0.0,0.0,0.0,0.0,0.0,0.0,0.0,0.0,0.0,0.0,0.0,0.0,0.0,0.0,0.0,0.0,0.0,0.0,0.0,0.0,0.0,0.0,0.0,0.0,0.0,0.0,0.0,0.0,0.0,0.0,0.0,0.0,0.0,0.0,0.0,0.0,0.0,0.0,0.0,0.0,0.0,0.0,0.0,0.0,0.0,0.0,0.0,0.0,0.0,0.0,0.0,0.0,0.0,0.0,0.0,0.0,0.0,0.0,0.0,0.0,0.0,0.0,0.0,0.0,0.0,0.0,0.0,0.0,0.0,0.0,0.0,0.0,0.0,0.0,0.0,0.0,0.0,0.0,0.0,0.0,0.0,0.0,0.0,0.0,0.0,0.0,0.0,0.0,0.0,0.0,0.0,0.0,0.0,0.0,0.0,0.0,0.0,0.0,0.0,0.0,0.0,0.0,0.0,0.0,0.0,0.0,0.0,0.0,0.0,0.0,0.0,0.0,0.0,0.0,0.0,0.0,0.0,0.0,0.0,0.0,0.0,0.0,0.0,0.0,0.0,0.0,0.0,0.0,0.0,0.0,0.0,0.0,0.0,0.0,0.0,0.0,0.0,0.0,0.0,0.0,0.0,0.0,0.0,0.0,0.0,0.0,0.0,0.0,0.0,0.0,0.0,0.0,0.0,0.0,0.0,0.0,0.0,0.0,0.0,0.0,0.0,0.0,0.0,0.0,0.0,0.0,0.0,0.0,0.0,0.0,0.0,0.0,0.0,0.0,0.0,0.0,0.0,0.0,0.0,0.0,0.0,0.0,0.0,0.0,0.0,0.0,0.0,0.0,0.0,0.0,0.0,0.0,0.0,0.0,0.0,0.0,0.0,0.0,0.0,0.0,0.0,0.0,0.0,0.0,0.0,0.0,0.0,0.0,0.0,0.0,0.0,0.0,0.0,0.0,0.0,0.0,0.0,0.0,0.0,0.0,0.0,0.0,0.0,0.0,0.0,0.0,0.0,0.0,0.0,0.0,0.0,0.0,0.0,0.0,0.0,0.0,0.0,0.0,0.0,0.0,0.0,0.0,0.0,0.0,0.0,0.0,0.0,0.0,0.0,0.0,0.0,0.0,0.0,0.0,0.0,0.0,0.0,0.0,0.0,0.0,0.0,0.0,0.0,0.0,0.0,0.0,0.0,0.0,0.0,0.0,0.0,0.0,0.0,0.0,0.0,0.0,0.0,0.0,0.0,0.0,0.0,0.0,0.0,0.0,0.0,0.0,0.0,0.0,0.0,0.0,0.0,0.0,0.0,0.0,0.0,0.0,0.0,0.0,0.0,0.0,0.0,0.0,0.0,0.0,0.0,0.0,0.0,0.0,0.0,0.0,0.0,0.0,0.0,0.0,0.0,0.0,0.0,0.0,0.0,0.0,0.0,0.0,0.0,0.0,0.0,0.0,0.0,0.0,0.0,0.0,0.0,0.0,0.0,0.0,0.0,0.0,0.0,0.0,0.0,0.0,0.0,0.0,0.0,0.0,0.0,0.0,0.0,0.0,0.0,0.0,0.0,0.0,0.0,0.0,0.0,0.0,0.0,0.0,0.0,0.0,0.0,0.0,0.0,0.0,0.0,0.0,0.0,0.0,0.0,0.0,0.0,0.0,0.0,0.0,0.0,0.0,0.0,0.0,0.0,0.0,0.0,0.0,0.0,0.0,0.0,0.0,0.0,0.0,0.0,0.0,0.0,0.0,0.0,0.0,0.0,0.0,0.0,0.0,0.0,0.0,0.0,0.0,0.0,0.0,0.0,0.0,0.0,0.0,0.0,0.0,0.0,0.0,0.0,0.0,0.0,0.0,0.0,0.0,0.0,0.0,0.0,0.0,0.0,0.0,0.0,0.0,0.0,0.0,0.0,0.0,0.0,0.0,0.0,0.0,0.0,0.0,0.0,0.0,0.0,0.0,0.0,0.0,0.0,0.0,0.0,0.0,0.0,0.0,0.0,0.0,0.0,0.0,0.0,0.0,0.0,0.0,0.0,0.0,0.0,0.0,0.0,0.0,0.0,0.0,0.0,0.0,0.0,0.0,0.0,0.0,0.0,0.0,0.0,0.0,0.0,0.0,0.0,0.0,0.0,0.0,0.0,0.0,0.0,0.0,0.0,0.0,0.0,0.0,0.0,0.0,0.0,0.0,0.0,0.0,0.0,0.0,0.0,0.0,0.0,0.0,0.0,0.0,0.0,0.0,0.0,0.0,0.0,0.0,0.0,0.0,0.0,0.0,0.0,0.0,0.0,0.0,0.0,0.0,0.0,0.0,0.0,0.0,0.0,0.0,0.0,0.0,0.0,0.0,0.0,0.0,0.0,0.0,0.0,0.0,0.0,0.0,0.0,0.0,0.0,0.0,0.0,0.0,0.0,0.0,0.0,0.0,0.0,0.0,0.0,0.0,0.0,0.0,0.0,0.0,0.0,0.0,0.0,0.0,0.0,0.0,0.0,0.0,0.0,0.0,0.0,0.0,0.0,0.0,0.0,0.0,0.0,0.0,0.0,0.0,0.0,0.0,0.0,0.0,0.0,0.0,0.0,0.0,0.0,0.0,0.0,0.0,0.0,0.0,0.0,0.0,0.0,0.0,0.0,0.0,0.0,0.0,0.0,0.0,0.0,0.0,0.0,0.0,0.0,0.0,0.0,0.0,0.0,0.0,0.0,0.0,0.0,1.7944,0.0,0.0,0.0,0.0,0.0,0.0,0.0,0.0,0.0,0.0,0.0,0.0,0.0,0.0,0.0,0.0,0.0,0.0,0.0,0.0,0.0,0.0,0.0,0.0,0.0,0.0,0.0,0.0,0.0,0.0,0.0,0.0,0.0,0.0,0.0,0.0,0.0,0.0,0.0,0.0,0.0,0.0,0.0,0.0,0.0,0.0,0.0,0.0,0.0,0.0,0.0,0.0,0.0,0.0,0.0,0.0,0.0,0.0,0.0,0.0,0.0,0.0,0.0,0.0,0.0,0.0,0.0,0.0,0.0,0.0,0.0,0.0,0.0,0.0,0.0,0.0,0.0,0.0,0.0,0.0,0.0,0.0,0.0,0.0,0.0,0.0,0.0,0.0,0.0,0.0,0.0,0.0,0.0,0.0,0.0,0.0,0.0,0.0,0.0,0.0,0.0,0.0,0.0,0.0,0.0,0.0,0.0,0.0,0.0,0.0,1.6709,1.7921,1.6221,1.6571,1.9288,0.0,0.0,0.0,0.0,0.0,0.0,0.0,0.0,0.0,0.0,0.0,0.0,0.0,0.0,0.0,0.0,0.0,0.0,0.0,0.0,0.0,0.0,0.0,0.0,0.0,0.0,0.0,0.0,0.0,0.0,0.0,0.0,0.0,0.0,0.0,0.0,0.0,0.0,0.0,0.0,0.0,0.0,0.0,0.0,0.0,0.0,0.0,0.0,0.0,0.0,0.0,0.0,0.0,0.0,0.0,0.0,0.0,0.0,0.0,0.0,0.0,0.0,0.0,0.0,0.0,0.0,0.0,0.0,0.0,0.0,0.0,0.0,0.0,0.0,0.0,0.0,0.0,0.0,0.0,0.0,0.0,0.0,0.0,0.0,0.0,0.0,0.0,0.0,0.0,0.0,0.0,0.0,0.0,0.0,0.0,0.0,0.0,0.0,0.0,0.0,0.0,0.0,0.0,0.0,0.0,0.0,0.0,0.0,0.0,0.0,0.0,0.0,1.6904,1.7509,2.0946,0.0,0.0,0.0,0.0,0.0,0.0,0.0,0.0,0.0,0.0,0.0,0.0,0.0,0.0,0.0,0.0,0.0,0.0,0.0,0.0,0.0,0.0,0.0,0.0,0.0,0.0,0.0,0.0,0.0,0.0,0.0,0.0,0.0,0.0,0.0,0.0,0.0,0.0,0.0,0.0,0.0,0.0,0.0,0.0,0.0,0.0,0.0,0.0,0.0,0.0,0.0,0.0,0.0,0.0,0.0,0.0,0.0,0.0,0.0,0.0,0.0,0.0,0.0,0.0,0.0,0.0,0.0,0.0,0.0,0.0,0.0,0.0,0.0,0.0,0.0,0.0,0.0,0.0,0.0,0.0,0.0,0.0,0.0,0.0,0.0,0.0,0.0,0.0,0.0,0.0,0.0,0.0,0.0,0.0,0.0,0.0,0.0,0.0,0.0,0.0,0.0,0.0,0.0,0.0,0.0,0.0,0.0,0.0,0.0,0.0,1.8249,2.1411,2.1216,0.0,2.2704,0.0,0.0,0.0,0.0,0.0,0.0,0.0,0.0,0.0,0.0,0.0,0.0,0.0,0.0,0.0,0.0,0.0,0.0,0.0,0.0,0.0,0.0,0.0,0.0,0.0,0.0,0.0,0.0,0.0,0.0,0.0,0.0,0.0,0.0,0.0,0.0,0.0,0.0,0.0,0.0,0.0,0.0,0.0,0.0,0.0,0.0,0.0,0.0,0.0,0.0,0.0,0.0,0.0,0.0,0.0,0.0,0.0,0.0,0.0,0.0,0.0,0.0,0.0,0.0,0.0,0.0,0.0,0.0,0.0,0.0,0.0,0.0,0.0,0.0,0.0,0.0,0.0,0.0,0.0,0.0,0.0,0.0,0.0,0.0,0.0,0.0,0.0,0.0,0.0,0.0,0.0,0.0,0.0,0.0,0.0,0.0,0.0,0.0,0.0,0.0,0.0,0.0,0.0,0.0,0.0,0.0,0.0,0.0,0.0,0.0,1.8914,2.0338,2.1333,2.1315,0.0,0.0,0.0,0.0,0.0,0.0,0.0,0.0,0.0,0.0,0.0,0.0,0.0,0.0,0.0,0.0,0.0,0.0,0.0,0.0,0.0,0.0,0.0,0.0,0.0,0.0,0.0,0.0,0.0,0.0,0.0,0.0,0.0,0.0,0.0,0.0,0.0,0.0,0.0,0.0,0.0,0.0,0.0,0.0,0.0,0.0,0.0,0.0,0.0,0.0,0.0,0.0,0.0,0.0,0.0,0.0,0.0,0.0,0.0,0.0,0.0,0.0,0.0,0.0,0.0,0.0,0.0,0.0,0.0,0.0,0.0,0.0,0.0,0.0,0.0,0.0,0.0,0.0,0.0,0.0,0.0,0.0,0.0,0.0,0.0,0.0,0.0,0.0,0.0,0.0,0.0,0.0,0.0,0.0,0.0,0.0,0.0,0.0,0.0,0.0,0.0,0.0,0.0,0.0,0.0,0.0,0.0,0.0,0.0,0.0,1.8348,1.9284,2.0006,2.1001,2.0632,1.8778,0.0,0.0,0.0,0.0,0.0,0.0,0.0,0.0,0.0,0.0,0.0,0.0,0.0,0.0,0.0,0.0,0.0,0.0,0.0,0.0,0.0,0.0,0.0,0.0,0.0,0.0,0.0,0.0,0.0,0.0,0.0,0.0,0.0,0.0,0.0,0.0,0.0,0.0,0.0,0.0,0.0,0.0,0.0,0.0,0.0,0.0,0.0,0.0,0.0,0.0,0.0,0.0,0.0,0.0,0.0,0.0,0.0,0.0,0.0,0.0,0.0,0.0,0.0,0.0,0.0,0.0,0.0,0.0,0.0,0.0,0.0,0.0,0.0,0.0,0.0,0.0,0.0,0.0,0.0,0.0,0.0,0.0,0.0,0.0,0.0,0.0,0.0,0.0,0.0,0.0,0.0,0.0,0.0,0.0,0.0,0.0,0.0,0.0,0.0,0.0,0.0,0.0,0.0,0.0,0.0,0.0,0.0,0.0,2.1255,1.9266,1.9266,2.1645,2.1042,2.0593,0.0,0.0,0.0,0.0,0.0,0.0,0.0,0.0,0.0,0.0,0.0,0.0,0.0,0.0,0.0,0.0,0.0,0.0,0.0,0.0,0.0,0.0,0.0,0.0,0.0,0.0,0.0,0.0,0.0,0.0,0.0,0.0,0.0,0.0,0.0,0.0,0.0,0.0,0.0,0.0,0.0,0.0,0.0,0.0,0.0,0.0,0.0,0.0,0.0,0.0,0.0,0.0,0.0,0.0,0.0,0.0,0.0,0.0,0.0,0.0,0.0,0.0,0.0,0.0,0.0,0.0,0.0,0.0,0.0,0.0,0.0,0.0,0.0,0.0,0.0,0.0,0.0,0.0,0.0,0.0,0.0,0.0,0.0,0.0,0.0,0.0,0.0,0.0,0.0,0.0,0.0,0.0,0.0,0.0,0.0,0.0,0.0,0.0,0.0,0.0,0.0,0.0,0.0,0.0,0.0,0.0,0.0,0.0,0.0,1.8444,1.8739,1.9812,2.1782,2.1588,2.0905,0.0,0.0,0.0,0.0,0.0,0.0,0.0,0.0,0.0,0.0,0.0,0.0,0.0,0.0,0.0,0.0,0.0,0.0,0.0,0.0,0.0,0.0,0.0,0.0,0.0,0.0,0.0,0.0,0.0,0.0,0.0,0.0,0.0,0.0,0.0,0.0,0.0,0.0,0.0,0.0,0.0,0.0,0.0,0.0,0.0,0.0,0.0,0.0,0.0,0.0,0.0,0.0,0.0,0.0,0.0,0.0,0.0,0.0,0.0,0.0,0.0,0.0,0.0,0.0,0.0,0.0,0.0,0.0,0.0,0.0,0.0,0.0,0.0,0.0,0.0,0.0,0.0,0.0,0.0,0.0,0.0,0.0,0.0,0.0,0.0,0.0,0.0,0.0,0.0,0.0,0.0,0.0,0.0,0.0,0.0,0.0,0.0,0.0,0.0,0.0,0.0,0.0,0.0,0.0,0.0,0.0,0.0,0.0,0.0,1.8347,0.0,2.0703,2.1801,2.16,2.0644,0.0,0.0,0.0,0.0,0.0,0.0,0.0,0.0,0.0,0.0,0.0,0.0,0.0,0.0,0.0,0.0,0.0,0.0,0.0,0.0,0.0,0.0,0.0,0.0,0.0,0.0,0.0,0.0,0.0,0.0,0.0,0.0,0.0,0.0,0.0,0.0,0.0,0.0,0.0,0.0,0.0,0.0,0.0,0.0,0.0,0.0,0.0,0.0,0.0,0.0,0.0,0.0,0.0,0.0,0.0,0.0,0.0,0.0,0.0,0.0,0.0,0.0,0.0,0.0,0.0,0.0,0.0,0.0,0.0,0.0,0.0,0.0,0.0,0.0,0.0,0.0,0.0,0.0,0.0,0.0,0.0,0.0,0.0,0.0,0.0,0.0,0.0,0.0,0.0,0.0,0.0,0.0,0.0,0.0,0.0,0.0,0.0,0.0,0.0,0.0,0.0,0.0,0.0,0.0,0.0,0.0,0.0,0.0,1.8371,2.1624,2.174,2.1834,2.1956,2.1096,1.977,0.0,0.0,0.0,0.0,0.0,0.0,0.0,0.0,0.0,0.0,0.0,0.0,0.0,0.0,0.0,0.0,0.0,0.0,0.0,0.0,0.0,0.0,0.0,0.0,0.0,0.0,0.0,0.0,0.0,0.0,0.0,0.0,0.0,0.0,0.0,0.0,0.0,0.0,0.0,0.0,0.0,0.0,0.0,0.0,0.0,0.0,0.0,0.0,0.0,0.0,0.0,0.0,0.0,0.0,0.0,0.0,0.0,0.0,0.0,0.0,0.0,0.0,0.0,0.0,0.0,0.0,0.0,0.0,0.0,0.0,0.0,0.0,0.0,0.0,0.0,0.0,0.0,0.0,0.0,0.0,0.0,0.0,0.0,0.0,0.0,0.0,0.0,0.0,0.0,0.0,0.0,0.0,0.0,0.0,0.0,0.0,0.0,0.0,0.0,0.0,0.0,0.0,0.0,0.0,0.0,0.0,0.0,0.0,0.0,2.0834,2.1424,2.2878,2.5046,2.2133,2.1025,0.0,0.0,0.0,0.0,0.0,0.0,0.0,0.0,0.0,0.0,0.0,0.0,0.0,0.0,0.0,0.0,0.0,0.0,0.0,0.0,0.0,0.0,0.0,0.0,0.0,0.0,0.0,0.0,0.0,0.0,0.0,0.0,0.0,0.0,0.0,0.0,0.0,0.0,0.0,0.0,0.0,0.0,0.0,0.0,0.0,0.0,0.0,0.0,0.0,0.0,0.0,0.0,0.0,0.0,0.0,0.0,0.0,0.0,0.0,0.0,0.0,0.0,0.0,0.0,0.0,0.0,0.0,0.0,0.0,0.0,0.0,0.0,0.0,0.0,0.0,0.0,0.0,0.0,0.0,0.0,0.0,0.0,0.0,0.0,0.0,0.0,0.0,0.0,0.0,0.0,0.0,0.0,0.0,0.0,0.0,0.0,0.0,0.0,0.0,0.0,0.0,0.0,0.0,0.0,0.0,0.0,0.0,0.0,0.0,2.2713,2.2346,2.3321,2.5784,2.2862,2.1756,2.2705,0.0,0.0,0.0,0.0,0.0,0.0,0.0,0.0,0.0,0.0,0.0,0.0,0.0,0.0,0.0,0.0,0.0,0.0,0.0,0.0,0.0,0.0,0.0,0.0,0.0,0.0,0.0,0.0,0.0,0.0,0.0,0.0,0.0,0.0,0.0,0.0,0.0,0.0,0.0,0.0,0.0,0.0,0.0,0.0,0.0,0.0,0.0,0.0,0.0,0.0,0.0,0.0,0.0,0.0,0.0,0.0,0.0,0.0,0.0,0.0,0.0,0.0,0.0,0.0,0.0,0.0,0.0,0.0,0.0,0.0,0.0,0.0,0.0,0.0,0.0,0.0,0.0,0.0,0.0,0.0,0.0,0.0,0.0,0.0,0.0,0.0,0.0,0.0,0.0,0.0,0.0,0.0,0.0,0.0,0.0,0.0,0.0,0.0,0.0,0.0,0.0,0.0,0.0,0.0,0.0,0.0,0.0,0.0,2.6678,2.4519,2.3874,2.4684,2.3589,2.2228,0.0,0.0,0.0,0.0,0.0,0.0,0.0,0.0,0.0,0.0,0.0,0.0,0.0,0.0,0.0,0.0,0.0,0.0,0.0,0.0,0.0,0.0,0.0,0.0,0.0,0.0,0.0,0.0,0.0,0.0,0.0,0.0,0.0,0.0,0.0,0.0,0.0,0.0,0.0,0.0,0.0,0.0,0.0,0.0,0.0,0.0,0.0,0.0,0.0,0.0,0.0,0.0,0.0,0.0,0.0,0.0,0.0,0.0,0.0,0.0,0.0,0.0,0.0,0.0,0.0,0.0,0.0,0.0,0.0,0.0,0.0,0.0,0.0,0.0,0.0,0.0,0.0,0.0,0.0,0.0,0.0,0.0,0.0,0.0,0.0,0.0,0.0,0.0,0.0,0.0,0.0,0.0,0.0,0.0,0.0,0.0,0.0,0.0,0.0,0.0,0.0,0.0,0.0,0.0,0.0,0.0,0.0,0.0,0.0,2.7544,2.8758,2.9511,2.9638,2.6429,2.4466,0.0,0.0,0.0,0.0,0.0,0.0,0.0,0.0,0.0,0.0,0.0,0.0,0.0,0.0,0.0,0.0,0.0,0.0,0.0,0.0,0.0,0.0,0.0,0.0,0.0,0.0,0.0,0.0,0.0,0.0,0.0,0.0,0.0,0.0,0.0,0.0,0.0,0.0,0.0,0.0,0.0,0.0,0.0,0.0,0.0,0.0,0.0,0.0,0.0,0.0,0.0,0.0,0.0,0.0,0.0,0.0,0.0,0.0,0.0,0.0,0.0,0.0,0.0,0.0,0.0,0.0,0.0,0.0,0.0,0.0,0.0,0.0,0.0,0.0,0.0,0.0,0.0,0.0,0.0,0.0,0.0,0.0,0.0,0.0,0.0,0.0,0.0,0.0,0.0,0.0,0.0,0.0,0.0,0.0,0.0,0.0,0.0,0.0,0.0,0.0,0.0,0.0,0.0,0.0,0.0,0.0,0.0,0.0,2.7595,2.9967,3.2883,3.4038,3.3314,2.9836,2.6751,0.0,0.0,0.0,0.0,0.0,0.0,0.0,0.0,0.0,0.0,0.0,0.0,0.0,0.0,0.0,0.0,0.0,0.0,0.0,0.0,0.0,0.0,0.0,0.0,0.0,0.0,0.0,0.0,0.0,0.0,0.0,0.0,0.0,0.0,0.0,0.0,0.0,0.0,0.0,0.0,0.0,0.0,0.0,0.0,0.0,0.0,0.0,0.0,0.0,0.0,0.0,0.0,0.0,0.0,0.0,0.0,0.0,0.0,0.0,0.0,0.0,0.0,0.0,0.0,0.0,0.0,0.0,0.0,0.0,0.0,0.0,0.0,0.0,0.0,0.0,0.0,0.0,0.0,0.0,0.0,0.0,0.0,0.0,0.0,0.0,0.0,0.0,0.0,0.0,0.0,0.0,0.0,0.0,0.0,0.0,0.0,0.0,0.0,0.0,0.0,0.0,0.0,0.0,0.0,0.0,0.0,0.0,0.0,2.9748,3.2858,3.6395,3.7398,3.5628,3.3018,2.8917,0.0,0.0,0.0,0.0,0.0,0.0,0.0,0.0,0.0,0.0,0.0,0.0,0.0,0.0,0.0,0.0,0.0,0.0,0.0,0.0,0.0,0.0,0.0,0.0,0.0,0.0,0.0,0.0,0.0,0.0,0.0,0.0,0.0,0.0,0.0,0.0,0.0,0.0,0.0,0.0,0.0,0.0,0.0,0.0,0.0,0.0,0.0,0.0,0.0,0.0,0.0,0.0,0.0,0.0,0.0,0.0,0.0,0.0,0.0,0.0,0.0,0.0,0.0,0.0,0.0,0.0,0.0,0.0,0.0,0.0,0.0,0.0,0.0,0.0,0.0,0.0,0.0,0.0,0.0,0.0,0.0,0.0,0.0,0.0,0.0,0.0,0.0,0.0,0.0,0.0,0.0,0.0,0.0,0.0,0.0,0.0,0.0,0.0,0.0,0.0,0.0,0.0,0.0,0.0,0.0,0.0,0.0,0.0,3.0882,3.2974,3.6954,3.8214,3.6483,3.3306,2.9447,0.0,0.0,0.0,0.0,0.0,0.0,0.0,0.0,0.0,0.0,0.0,0.0,0.0,0.0,0.0,0.0,0.0,0.0,0.0,0.0,0.0,0.0,0.0,0.0,0.0,0.0,0.0,0.0,0.0,0.0,0.0,0.0,0.0,0.0,0.0,0.0,0.0,0.0,0.0,0.0,0.0,0.0,0.0,0.0,0.0,0.0,0.0,0.0,2.1445,0.0,0.0,0.0,0.0,0.0,0.0,0.0,0.0,0.0,0.0,0.0,0.0,0.0,0.0,0.0,0.0,0.0,0.0,0.0,0.0,0.0,0.0,0.0,0.0,0.0,0.0,0.0,0.0,0.0,0.0,0.0,0.0,0.0,0.0,0.0,0.0,0.0,0.0,0.0,0.0,0.0,0.0,0.0,0.0,0.0,0.0,0.0,0.0,0.0,0.0,0.0,0.0,0.0,0.0,0.0,0.0,0.0,0.0,0.0,3.1835,3.4784,3.7751,3.8646,3.7237,3.4266,3.0483,0.0,0.0,0.0,0.0,0.0,0.0,0.0,0.0,0.0,0.0,0.0,0.0,0.0,0.0,0.0,0.0,0.0,0.0,0.0,0.0,0.0,0.0,0.0,0.0,0.0,0.0,0.0,0.0,0.0,0.0,0.0,0.0,0.0,0.0,0.0,0.0,0.0,0.0,0.0,0.0,0.0,0.0,0.0,0.0,0.0,0.0,0.0,0.0,0.0,0.0,0.0,0.0,0.0,0.0,0.0,0.0,0.0,0.0,0.0,0.0,0.0,0.0,0.0,0.0,0.0,0.0,0.0,0.0,0.0,0.0,0.0,0.0,0.0,0.0,0.0,0.0,0.0,0.0,0.0,0.0,0.0,0.0,0.0,0.0,0.0,0.0,0.0,0.0,0.0,0.0,0.0,0.0,0.0,0.0,0.0,0.0,0.0,0.0,0.0,0.0,0.0,0.0,0.0,0.0,0.0,0.0,0.0,2.9282,3.249,3.6737,3.8579,3.8977,3.7909,3.5258,3.1671,2.7102,0.0,0.0,0.0,0.0,0.0,0.0,0.0,0.0,0.0,0.0,0.0,0.0,0.0,0.0,0.0,0.0,0.0,0.0,0.0,0.0,0.0,0.0,0.0,0.0,0.0,0.0,0.0,0.0,0.0,0.0,0.0,0.0,0.0,0.0,0.0,0.0,0.0,0.0,1.9234,2.025,0.0,0.0,0.0,0.0,0.0,0.0,0.0,0.0,2.144,0.0,0.0,0.0,0.0,0.0,0.0,0.0,0.0,0.0,0.0,0.0,0.0,0.0,0.0,0.0,0.0,0.0,0.0,0.0,0.0,0.0,0.0,0.0,0.0,0.0,0.0,0.0,0.0,0.0,0.0,0.0,0.0,0.0,0.0,0.0,0.0,0.0,0.0,0.0,0.0,0.0,0.0,0.0,0.0,0.0,0.0,0.0,0.0,0.0,0.0,0.0,0.0,0.0,0.0,0.0,0.0,2.8711,2.985,3.2478,3.6714,3.9095,3.9541,3.792,3.5346,3.2273,2.8715,0.0,0.0,0.0,0.0,0.0,0.0,0.0,0.0,0.0,0.0,0.0,0.0,0.0,0.0,0.0,0.0,0.0,0.0,0.0,0.0,0.0,0.0,0.0,0.0,0.0,0.0,0.0,0.0,0.0,0.0,0.0,0.0,0.0,0.0,0.0,0.0,0.0,0.0,0.0,2.1626,2.2725,0.0,0.0,0.0,0.0,0.0,0.0,0.0,0.0,2.2199,0.0,0.0,0.0,0.0,0.0,0.0,0.0,0.0,0.0,0.0,0.0,0.0,0.0,0.0,0.0,0.0,0.0,0.0,0.0,0.0,0.0,0.0,0.0,0.0,0.0,0.0,0.0,0.0,0.0,0.0,0.0,0.0,0.0,0.0,0.0,0.0,0.0,0.0,0.0,0.0,0.0,0.0,0.0,0.0,0.0,0.0,0.0,0.0,0.0,0.0,0.0,0.0,0.0,0.0,0.0,2.847,3.0694,3.3616,3.7371,3.9461,3.9608,3.771,3.4792,3.1809,0.0,0.0,0.0,0.0,0.0,0.0,0.0,0.0,0.0,0.0,0.0,0.0,0.0,0.0,0.0,0.0,0.0,0.0,0.0,0.0,0.0,0.0,0.0,0.0,0.0,0.0,0.0,0.0,0.0,0.0,0.0,0.0,0.0,0.0,0.0,0.0,0.0,0.0,0.0,0.0,2.2907,2.3755,2.3769,0.0,0.0,0.0,0.0,0.0,0.0,2.299,2.2311,0.0,0.0,0.0,0.0,0.0,0.0,0.0,0.0,0.0,0.0,0.0,0.0,0.0,0.0,0.0,0.0,0.0,0.0,0.0,0.0,0.0,0.0,0.0,0.0,0.0,0.0,0.0,0.0,0.0,0.0,0.0,0.0,0.0,0.0,0.0,0.0,0.0,0.0,0.0,0.0,0.0,0.0,0.0,0.0,0.0,0.0,0.0,0.0,0.0,0.0,0.0,0.0,0.0,0.0,0.0,2.8267,3.14,3.4635,3.7932,3.9469,3.9365,3.7509,3.4272,3.139,0.0,0.0,0.0,0.0,0.0,0.0,0.0,0.0,0.0,0.0,0.0,0.0,0.0,0.0,0.0,0.0,0.0,0.0,0.0,0.0,0.0,0.0,0.0,0.0,0.0,0.0,0.0,0.0,0.0,0.0,0.0,0.0,0.0,0.0,0.0,0.0,0.0,0.0,0.0,0.0,0.0,2.5318,2.4959,2.5077,0.0,0.0,0.0,0.0,2.4749,2.4512,0.0,0.0,0.0,0.0,0.0,0.0,0.0,0.0,0.0,0.0,0.0,0.0,0.0,0.0,0.0,0.0,0.0,0.0,0.0,0.0,0.0,0.0,0.0,0.0,0.0,0.0,0.0,0.0,0.0,0.0,0.0,0.0,0.0,0.0,0.0,0.0,0.0,0.0,0.0,0.0,0.0,0.0,0.0,0.0,0.0,0.0,0.0,0.0,0.0,0.0,0.0,0.0,0.0,0.0,0.0,0.0,2.8982,3.1671,3.4588,3.7766,3.8799,3.8701,3.749,3.4363,3.1721,0.0,0.0,0.0,0.0,0.0,0.0,0.0,0.0,0.0,0.0,0.0,0.0,0.0,0.0,0.0,0.0,0.0,0.0,0.0,0.0,0.0,0.0,0.0,0.0,0.0,0.0,0.0,0.0,0.0,0.0,0.0,0.0,0.0,0.0,0.0,0.0,0.0,0.0,0.0,0.0,0.0,2.8405,2.6836,2.7321,2.7272,0.0,0.0,2.7342,2.6798,2.9706,0.0,0.0,0.0,0.0,0.0,0.0,0.0,0.0,0.0,0.0,0.0,0.0,0.0,0.0,0.0,0.0,0.0,0.0,0.0,0.0,0.0,0.0,0.0,0.0,0.0,0.0,0.0,0.0,0.0,0.0,0.0,0.0,0.0,0.0,0.0,0.0,0.0,0.0,0.0,0.0,0.0,0.0,0.0,0.0,0.0,0.0,0.0,0.0,0.0,0.0,0.0,0.0,0.0,0.0,0.0,2.5531,2.919,3.1756,3.4414,3.7102,3.7996,3.7597,3.5911,3.2321,3.0181,0.0,0.0,0.0,0.0,0.0,0.0,0.0,0.0,0.0,0.0,0.0,0.0,0.0,0.0,0.0,0.0,0.0,0.0,0.0,0.0,0.0,0.0,0.0,0.0,0.0,0.0,0.0,0.0,0.0,0.0,0.0,0.0,0.0,0.0,0.0,0.0,0.0,0.0,0.0,0.0,0.0,0.0,2.8511,2.9599,0.0,0.0,0.0,2.9821,2.9882,0.0,0.0,0.0,0.0,0.0,0.0,0.0,0.0,0.0,0.0,0.0,0.0,0.0,0.0,0.0,0.0,0.0,0.0,0.0,0.0,0.0,0.0,0.0,0.0,0.0,0.0,0.0,0.0,0.0,0.0,0.0,0.0,0.0,0.0,0.0,0.0,0.0,0.0,0.0,0.0,0.0,0.0,0.0,0.0,0.0,0.0,0.0,0.0,0.0,0.0,0.0,0.0,0.0,0.0,0.0,0.0,0.0,2.9598,3.2128,3.4485,3.6603,3.7201,3.6593,3.4617,3.0916,0.0,0.0,0.0,0.0,0.0,0.0,0.0,0.0,0.0,0.0,0.0,0.0,0.0,0.0,0.0,0.0,0.0,0.0,0.0,0.0,0.0,0.0,0.0,0.0,0.0,0.0,0.0,2.0506,0.0,0.0,0.0,0.0,0.0,0.0,0.0,0.0,0.0,0.0,0.0,0.0,0.0,0.0,3.0409,3.0257,3.1848,3.2784,0.0,0.0,3.2446,3.2419,3.2851,3.185,0.0,0.0,0.0,0.0,0.0,0.0,0.0,0.0,0.0,0.0,0.0,0.0,0.0,0.0,0.0,0.0,0.0,0.0,0.0,0.0,0.0,0.0,0.0,0.0,0.0,0.0,0.0,0.0,0.0,0.0,0.0,0.0,0.0,0.0,0.0,0.0,0.0,0.0,0.0,0.0,0.0,0.0,0.0,0.0,0.0,0.0,0.0,0.0,0.0,0.0,0.0,0.0,0.0,0.0,0.0,3.0498,3.3009,3.5046,3.652,3.6472,3.5837,3.4612,3.1317,2.9176,0.0,0.0,0.0,0.0,0.0,0.0,0.0,0.0,0.0,0.0,0.0,0.0,0.0,0.0,0.0,0.0,0.0,0.0,0.0,0.0,0.0,0.0,0.0,0.0,0.0,0.0,0.0,0.0,0.0,0.0,0.0,0.0,0.0,0.0,0.0,0.0,0.0,0.0,0.0,0.0,0.0,3.2846,3.2048,3.4047,3.5349,0.0,0.0,3.5929,3.3665,3.8609,3.9715,3.0782,0.0,0.0,0.0,0.0,0.0,0.0,0.0,0.0,0.0,0.0,0.0,0.0,0.0,0.0,0.0,0.0,0.0,0.0,0.0,0.0,0.0,0.0,0.0,0.0,0.0,0.0,0.0,0.0,0.0,0.0,0.0,0.0,0.0,0.0,0.0,0.0,0.0,0.0,0.0,0.0,0.0,0.0,0.0,0.0,0.0,0.0,0.0,0.0,0.0,0.0,0.0,0.0,0.0,2.8035,3.0568,3.3089,3.485,3.5756,3.6077,3.5211,3.3105,3.0206,2.8316,0.0,0.0,0.0,0.0,0.0,0.0,0.0,0.0,0.0,0.0,0.0,0.0,0.0,0.0,0.0,0.0,0.0,0.0,0.0,0.0,0.0,0.0,0.0,0.0,0.0,0.0,0.0,0.0,2.2069,2.2616,2.2596,0.0,0.0,0.0,0.0,0.0,0.0,0.0,0.0,0.0,0.0,3.4043,3.5862,3.7367,0.0,0.0,3.8385,3.8424,3.7386,3.8142,3.7249,3.2431,3.1123,0.0,0.0,0.0,0.0,0.0,0.0,0.0,0.0,0.0,0.0,0.0,0.0,0.0,0.0,0.0,0.0,0.0,0.0,0.0,0.0,0.0,0.0,0.0,0.0,0.0,0.0,0.0,0.0,0.0,0.0,0.0,0.0,0.0,0.0,0.0,0.0,0.0,0.0,0.0,0.0,0.0,0.0,0.0,0.0,0.0,0.0,0.0,0.0,0.0,0.0,0.0,0.0,2.8424,3.0956,3.2957,3.4546,3.5661,3.572,3.4546,3.2164,2.9675,2.7957,0.0,0.0,0.0,0.0,0.0,0.0,0.0,0.0,0.0,0.0,0.0,0.0,0.0,0.0,0.0,0.0,0.0,0.0,0.0,0.0,0.0,0.0,0.0,0.0,0.0,0.0,0.0,0.0,2.2966,2.3589,2.3863,0.0,0.0,0.0,0.0,0.0,0.0,0.0,0.0,0.0,0.0,3.4843,3.773,3.8838,3.9364,3.936,3.9346,3.9104,3.8532,3.7605,3.5891,3.2792,0.0,0.0,0.0,0.0,0.0,0.0,0.0,0.0,0.0,0.0,0.0,0.0,0.0,0.0,0.0,0.0,0.0,0.0,0.0,0.0,0.0,0.0,0.0,0.0,0.0,0.0,0.0,0.0,0.0,0.0,2.1423,0.0,0.0,0.0,0.0,0.0,0.0,0.0,0.0,0.0,0.0,0.0,0.0,0.0,0.0,0.0,0.0,0.0,0.0,0.0,0.0,0.0,0.0,2.9248,3.182,3.2706,3.4205,3.6427,3.5325,3.3896,3.2144,3.0101,2.8298,2.6878,0.0,0.0,0.0,0.0,0.0,0.0,0.0,0.0,0.0,0.0,0.0,0.0,0.0,0.0,0.0,0.0,0.0,0.0,0.0,0.0,0.0,0.0,0.0,0.0,0.0,0.0,2.3113,2.3872,2.4711,0.0,0.0,0.0,0.0,0.0,0.0,0.0,0.0,0.0,0.0,3.3055,3.5284,3.6934,3.7856,3.8454,3.8443,3.8346,3.7714,3.6179,3.7819,3.743,0.0,0.0,0.0,0.0,0.0,0.0,0.0,0.0,0.0,0.0,0.0,0.0,0.0,0.0,0.0,0.0,0.0,0.0,0.0,0.0,0.0,0.0,0.0,0.0,0.0,0.0,0.0,2.3006,2.2725,0.0,0.0,0.0,0.0,0.0,0.0,0.0,0.0,0.0,0.0,0.0,2.6102,2.6688,0.0,0.0,0.0,0.0,0.0,0.0,0.0,0.0,0.0,0.0,0.0,0.0,2.9571,3.2522,3.4031,3.5341,3.6543,3.6329,3.5114,3.2951,3.0876,2.8872,2.6916,0.0,0.0,0.0,0.0,0.0,0.0,0.0,0.0,0.0,0.0,0.0,0.0,0.0,0.0,0.0,0.0,0.0,0.0,0.0,0.0,0.0,0.0,0.0,0.0,0.0,2.4204,0.0,0.0,0.0,0.0,0.0,0.0,0.0,0.0,0.0,0.0,0.0,2.9472,3.1406,3.3906,3.6147,3.7735,3.919,4.0089,0.0,0.0,0.0,0.0,0.0,0.0,0.0,0.0,0.0,0.0,0.0,0.0,0.0,0.0,3.6699,2.9615,2.9476,3.0277,2.9716,0.0,0.0,0.0,0.0,0.0,0.0,0.0,0.0,0.0,0.0,0.0,0.0,0.0,0.0,0.0,0.0,2.3774,0.0,0.0,0.0,0.0,0.0,0.0,0.0,0.0,2.7283,2.8483,2.8744,2.9569,2.9787,0.0,2.9742,2.8887,0.0,0.0,0.0,0.0,0.0,0.0,0.0,0.0,3.0248,3.2946,3.465,3.5957,3.6845,3.6685,3.5503,3.3256,3.0979,2.8846,2.6856,2.6171,2.5766,0.0,0.0,0.0,0.0,0.0,0.0,0.0,0.0,0.0,0.0,0.0,0.0,0.0,0.0,0.0,0.0,0.0,0.0,0.0,0.0,0.0,0.0,0.0,2.5648,0.0,0.0,0.0,0.0,0.0,0.0,0.0,0.0,0.0,2.8317,2.9294,3.0971,3.3571,3.513,3.6472,3.7735,0.0,0.0,0.0,0.0,0.0,0.0,0.0,3.6516,3.5888,3.6228,3.6861,3.7812,3.9223,4.0054,3.9468,0.0,0.0,3.2556,3.277,3.3782,3.3141,3.3949,3.4719,3.4724,3.5321,3.5859,0.0,0.0,0.0,0.0,0.0,0.0,0.0,0.0,2.5627,2.6371,0.0,2.5241,0.0,0.0,0.0,0.0,0.0,0.0,0.0,0.0,3.0286,3.1435,3.0674,3.145,3.1379,3.0676,3.2885,3.2718,3.0297,2.7098,0.0,0.0,0.0,0.0,0.0,0.0,3.1284,3.3156,3.4666,3.608,3.7452,3.6434,3.4944,3.3027,3.048,2.8374,2.6814,2.7539,2.7773,2.7176,2.8032,0.0,0.0,0.0,0.0,0.0,0.0,0.0,0.0,0.0,0.0,0.0,0.0,0.0,0.0,0.0,0.0,0.0,0.0,0.0,0.0,2.7054,0.0,0.0,0.0,0.0,0.0,0.0,0.0,0.0,0.0,0.0,3.1136,3.1068,3.2516,3.6621,0.0,0.0,0.0,0.0,3.7661,3.584,3.6934,3.7775,3.6834,3.8057,3.86,3.7101,0.0,0.0,4.0075,3.939,3.9058,3.8902,3.98,3.9917,3.9605,3.9409,3.9507,3.9253,3.8218,3.7488,3.7382,3.7199,3.6668,3.3184,0.0,0.0,0.0,0.0,3.072,3.1709,3.2403,3.2403,3.1938,3.1107,2.9296,0.0,0.0,0.0,0.0,0.0,0.0,3.0739,3.1168,3.3372,3.425,3.409,3.547,3.5538,3.4552,3.4808,3.4159,3.2689,3.0729,2.9576,2.919,0.0,0.0,0.0,0.0,3.2188,3.5528,3.6722,3.7594,3.8347,3.7246,3.5399,3.2778,3.1434,2.9971,2.8393,2.8037,2.7929,2.8035,2.7729,0.0,0.0,0.0,0.0,0.0,0.0,0.0,0.0,0.0,0.0,0.0,0.0,0.0,0.0,0.0,0.0,0.0,0.0,0.0,2.8852,2.8265,2.7966,0.0,0.0,0.0,0.0,0.0,0.0,0.0,0.0,0.0,3.6035,3.5276,3.4945,0.0,0.0,3.6586,3.6073,3.7812,3.8946,3.8391,0.0,0.0,0.0,3.9895,4.001,3.9488,4.1725,4.3529,4.3403,4.3758,4.4094,4.4055,4.4289,4.4426,4.4211,4.2298,4.0834,4.0662,4.1222,4.1804,4.1849,4.2526,4.324,3.9242,3.5821,3.3884,3.3042,3.3104,3.4216,3.5092,3.5755,3.5777,3.5725,3.5467,3.3253,3.169,3.0639,2.9505,0.0,0.0,0.0,3.3089,3.3999,3.5652,3.6584,3.6891,3.8106,3.8117,3.7048,3.7091,3.6461,3.519,3.3773,3.2976,3.2731,0.0,0.0,3.0887,3.1954,3.3716,3.6194,3.768,3.8467,3.8548,3.7014,3.5206,3.3172,3.2284,3.1109,2.9549,2.931,2.9245,2.9221,2.8802,2.8711,0.0,0.0,0.0,0.0,0.0,0.0,0.0,0.0,0.0,0.0,0.0,2.6844,0.0,0.0,0.0,0.0,2.923,2.967,3.0017,2.9197,0.0,0.0,0.0,0.0,0.0,0.0,0.0,3.2812,3.4393,3.6501,3.9195,3.898,3.8648,3.8963,3.8814,3.841,3.7742,0.0,4.0374,3.9979,4.1427,4.2369,4.1783,4.1903,4.2198,4.2583,4.3993,4.5179,4.5397,4.5909,4.628,4.63,4.63,4.63,4.63,4.4543,4.3157,4.318,4.398,4.4683,4.4719,4.5851,4.6807,4.459,4.2908,3.9622,3.73,3.5968,3.7462,3.7712,3.7061,3.7083,3.8176,3.9743,3.6859,3.6136,3.6956,3.4318,0.0,3.3333,3.4216,3.5081,3.5935,3.7488,3.8495,3.9052,3.9756,3.9534,3.8545,3.9501,3.9195,3.7642,3.6262,3.6006,3.6704,3.3647,3.2064,3.2122,3.432,3.5537,3.5628,3.792,3.8842,3.8286,3.6218,3.4679,3.3825,3.2963,3.177,3.0301,3.0834,3.0993,3.0554,3.0721,3.09,3.1059,0.0,0.0,0.0,0.0,0.0,0.0,0.0,0.0,0.0,0.0,0.0,0.0,0.0,0.0,0.0,2.9613,0.0,3.0915,3.014,0.0,0.0,0.0,3.2513,3.3392,3.4393,3.531,3.613,0.0,0.0,4.1108,0.0,4.2923,4.3805,4.2281,4.1051,4.0899,4.1571,4.1834,4.0916,4.2338,4.3447,4.332,4.3814,4.4518,4.5399,4.5908,4.5955,4.6167,4.6261,4.63,4.63,4.63,4.63,4.63,4.6144,4.628,4.6124,4.6183,4.6261,4.6358,4.6983,4.7549,4.6978,4.6557,4.5693,4.3269,4.0157,4.1132,4.1701,4.1914,4.1911,4.1506,4.0685,3.8703,3.709,3.5828,3.5675,3.6059,3.682,3.7655,3.8462,3.9315,3.9727,4.0293,4.0992,4.09,4.0628,4.0268,4.0617,4.0204,3.9037,3.846,3.8,3.7536,3.62,3.521,3.4628,3.5139,3.6046,3.7279,3.8482,3.8842,3.8273,3.6785,3.5293,3.3825,3.243,3.1219,3.0246,2.9787,2.9953,3.0766,3.0849,3.1014,3.1386,3.1469,0.0,0.0,0.0,0.0,0.0,0.0,0.0,0.0,0.0,2.8249,2.8909,0.0,3.0189,0.0,3.0879,3.187,3.3439,3.2665,0.0,0.0,3.3432,3.3965,3.4287,3.6306,3.775,3.7946,4.0034,4.1908,4.2962,4.384,4.4699,4.55,4.3454,4.182,4.1758,4.2447,4.2934,4.2833,4.4199,4.5395,4.5137,4.5115,4.5315,4.5814,4.5899,4.5994,4.6253,4.63,4.63,4.63,4.63,4.63,4.63,4.63,4.63,4.63,4.63,4.6515,4.7139,4.7471,4.7783,4.8143,4.778,4.7398,4.566,4.3252,4.4093,4.4328,4.4137,4.4137,4.3553,4.2504,4.1363,4.0021,3.8731,3.9118,3.9421,3.9695,4.0468,4.0907,4.1037,4.1042,4.1148,4.13,4.1029,4.0741,4.043,4.1001,4.1048,4.0602,3.9829,3.9696,4.0123,3.8981,3.8343,3.8189,3.6703,3.6366,3.7271,3.8232,3.8836,3.9119,3.7295,3.5844,3.4908,3.2614,3.1017,3.021,2.9513,2.9623,3.0704,3.0895,3.1083,3.1302,3.0782,2.9822,0.0,0.0,0.0,0.0,0.0,0.0,0.0,0.0,0.0,0.0,0.0,3.1367,0.0,3.2094,3.2735,3.3691,3.3203,3.3191,3.4069,3.4604,3.5387,3.663,3.8492,3.995,4.0706,4.2424,4.3879,4.4738,4.5285,4.5753,4.6222,4.4851,4.3788,4.3766,4.4119,4.4369,4.446,4.5293,4.5914,4.5703,4.553,4.5477,4.5706,4.5852,4.5963,4.617,4.6264,4.63,4.63,4.63,4.63,4.63,4.63,4.63,4.63,4.63,4.6612,4.7412,4.8193,4.8876,4.8747,4.8003,4.728,4.644,4.5598,4.6323,4.5902,4.4751,4.472,4.4516,4.4204,4.3788,4.3311,4.2795,4.2795,4.245,4.1911,4.2564,4.2506,4.1872,4.1853,4.1607,4.1178,4.1048,4.0728,4.0307,4.1248,4.181,4.1926,4.0824,4.1151,4.2712,4.138,4.0957,4.1385,3.8572,3.6971,3.6774,3.7951,3.9139,4.0234,3.7608,3.614,3.5844,3.2908,3.0815,2.9934,2.9488,2.9579,3.0287,3.0696,3.1073,3.1398,2.9587,2.8924,0.0,2.8504,0.0,0.0,0.0,0.0,0.0,0.0,0.0,0.0,3.2224,3.2697,3.3498,3.3497,3.3477,3.353,3.3486,3.4069,3.5614,3.6009,3.7107,3.9371,4.0721,4.2046,4.35,4.4534,4.546,4.6105,4.63,4.63,4.6238,4.5959,4.5634,4.5786,4.5642,4.5573,4.58,4.5728,4.5699,4.5565,4.5457,4.5435,4.5573,4.575,4.5939,4.606,4.6201,4.63,4.63,4.63,4.63,4.63,4.63,4.63,4.63,4.6417,4.6807,4.7666,4.8779,4.993,4.958,4.9454,4.9539,4.8581,4.7042,4.7175,4.619,4.4484,4.425,4.3847,4.3369,4.3523,4.3311,4.2795,4.2795,4.2757,4.2679,4.2775,4.2775,4.2679,4.2622,4.2772,4.3114,4.2824,4.2483,4.221,4.2594,4.2481,4.1931,4.2151,4.2126,4.1856,4.1602,4.1198,4.0643,0.0,0.0,0.0,3.9757,4.0484,4.0207,3.7198,3.5132,3.4274,3.177,0.0,2.8356,2.8764,2.8971,2.8849,2.9492,0.0,0.0,0.0,0.0,0.0,0.0,0.0,0.0,0.0,0.0,0.0,3.457,3.423,3.378,3.4345,3.5123,3.5996,3.5951,3.6132,3.6881,3.6899,3.7012,3.7424,3.8735,3.986,4.0513,4.2596,4.424,4.452,4.5431,4.6105,4.6261,4.63,4.6261,4.614,4.601,4.5867,4.5743,4.5661,4.5661,4.5703,4.5692,4.5665,4.5603,4.5419,4.5379,4.5507,4.5693,4.5852,4.6002,4.6181,4.63,4.63,4.63,4.63,4.63,4.63,4.63,4.63,4.6846,4.7608,4.8408,4.8818,4.9462,4.9692,0.0,4.9162,4.8397,0.0,4.6957,4.6098,4.4771,4.4216,4.3837,4.3557,4.3718,4.3775,4.3795,4.3789,4.3666,4.3465,4.3847,4.3828,4.3426,4.3268,4.3282,4.3441,4.3081,4.2783,4.2543,4.3193,4.339,4.3152,4.3221,4.3328,4.3465,4.3156,4.2944,4.2905,4.2852,4.1968,4.025,4.0669,4.102,4.1176,3.8504,3.6583,3.5597,0.0,0.0,0.0,0.0,0.0,0.0,0.0,0.0,0.0,0.0,0.0,3.5229,3.5267,3.5439,3.5873,3.6291,3.6534,3.6527,3.6936,3.6671,3.5477,3.614,3.6814,3.7261,3.7191,3.7319,3.7747,3.7778,3.8125,3.9054,3.997,4.0973,4.2338,4.3742,4.4812,4.5315,4.5859,4.6236,4.63,4.63,4.6241,4.6081,4.5963,4.5841,4.563,4.5554,4.5513,4.5493,4.5565,4.5566,4.5477,4.5399,4.5319,4.5455,4.5592,4.5743,4.593,4.6091,4.6216,4.6277,4.63,4.63,4.63,4.63,4.63,4.6319,4.6651,4.7412,4.8505,4.913,4.9657,4.9915,4.8684,4.8657,4.8063,4.7124,4.6759,4.6112,4.5245,0.0,0.0,0.0,4.4048,4.4346,4.4776,4.4868,4.4642,4.4284,4.4953,4.4874,4.4143,4.3908,4.3643,4.3333,4.3066,4.2797,4.2577,4.3532,4.4151,4.4364,4.4039,4.4424,4.5266,4.4786,4.4823,4.5438,4.5438,4.4398,4.2412,4.1612,4.1558,4.2209,4.0,3.8419,3.7716,3.4688,3.2651,3.1843,3.0725,3.0689,3.1953,3.2996,3.3807,3.4339,3.504,3.54,3.5324,3.5171,3.5783,3.7273,3.79,3.8225,3.8228,3.8898,3.8727,3.733,3.7915,3.8312,3.8242,3.8223,3.8206,3.8151,3.832,3.8986,4.0475,4.091,4.2016,4.3968,4.4573,4.5086,4.5772,4.6013,4.6164,4.6273,4.6296,4.6218,4.6015,4.5896,4.5761,4.5534,4.5456,4.5419,4.536,4.5438,4.5477,4.5359,4.5317,4.5317,4.536,4.549,4.5645,4.5803,4.5978,4.6131,4.624,4.6273,4.63,4.63,4.63,4.63,4.63,4.63,4.671,4.8037,4.915,4.9891,5.1301,5.0817,5.0727,4.9826,4.8475,4.7754,4.6826,4.568,4.4209,4.3716,4.4036,4.4231,4.4493,4.4819,4.509,4.5199,4.5105,4.5239,4.5074,0.0,4.4649,4.4369,4.3911,4.385,4.3647,4.3401,4.3791,4.4151,4.4383,4.4562,4.4909,4.5341,4.5284,4.5304,4.5399,4.5418,4.4954,4.4054,4.3492,4.2929,4.2283,4.0178,3.8884,3.8432,3.6036,3.4302,3.3476,3.3264,3.273,3.1853,3.2751,3.4089,3.5685,3.6174,3.754,4.0138,3.9794,3.9833,4.0692,4.0272,3.9947,3.9966,4.0062,4.0005,3.9814,3.9887,3.9964,3.9966,3.9871,3.9947,3.9986,4.052,4.1054,4.1589,4.2848,4.3934,4.4352,4.5075,4.5622,4.5859,4.6013,4.6144,4.6273,4.6225,4.6138,4.5943,4.5794,4.5619,4.5419,4.5438,4.5458,4.5419,4.5458,4.5458,4.5379,4.5338,4.5317,4.5317,4.5416,4.5533,4.5659,4.585,4.6014,4.6105,4.6216,4.6296,4.63,4.63,4.63,4.63,4.63,4.6472,4.6983,4.8174,4.956,5.1508,5.1025,5.0968,5.0265,4.9122,4.7849,4.7021,4.6471,4.5314,4.4906,4.4989,4.4712,4.4985,4.564,4.535,4.542,4.5726,4.5545,4.5249,4.4795,4.4493,4.424,4.4005,4.3814,4.3649,4.3584,4.4463,4.4757,4.4486,4.528,4.5614,4.5436,4.5418,4.5418,4.5398,4.5378,4.5042,4.443,4.4108,4.3613,4.2894,4.1507,4.0496,3.991,3.8401,3.7074,3.5844,3.5789,3.543,3.4605,3.5492,3.6524,3.7604,3.8651,3.9909,4.1361,4.1609,4.18,4.2163,4.1877,4.1667,4.1648,4.1667,4.1648,4.1667,4.0826,4.031,4.031,4.0329,4.0482,4.0903,4.1361,4.1972,4.2967,4.3825,4.4491,4.4949,4.5365,4.5723,4.5841,4.5929,4.6045,4.6175,4.6147,4.604,4.5881,4.5647,4.5438,4.5319,4.5339,4.5361,4.5359,4.536,4.538,4.5319,4.5317,4.5297,4.5277,4.5362,4.5475,4.5573,4.5761,4.5899,4.6064,4.617,4.6211,4.6273,4.63,4.63,4.6296,4.6231,4.646,4.7459,4.9013,5.0399,5.1885,5.1293,5.1195,5.0622,4.9719,4.8288,4.7664,4.759,4.6801,4.6434,4.6305,4.5496,4.5595,4.6294,4.5815,4.5825,4.6191,4.6008,4.5604,4.5149,4.4722,4.4512,4.4416,4.4168,4.403,4.4154,4.5283,4.5527,4.5153,4.6144,4.6459,4.6009,4.5932,4.5932,4.5932,4.5891,4.5494,4.4739,4.4608,4.4197,4.3393,4.2737,4.2097,4.1473,4.0771,3.9863,3.8652,3.8395,3.819,3.7991,3.8696,3.9274,3.968,4.1017,4.1858,4.2087,4.2507,4.2794,4.2794,4.2776,4.2795,4.2775,4.2793,4.2793,4.2678,4.1628,4.0864,4.0883,4.0941,4.1189,4.1724,4.2068,4.2718,4.4039,4.4438,4.4857,4.547,4.5586,4.5635,4.5752,4.5866,4.5948,4.6025,4.604,4.593,4.5769,4.5488,4.5317,4.5297,4.5277,4.5277,4.5277,4.5277,4.5277,4.5277,4.5297,4.5277,4.5277,4.5359,4.5457,4.5534,4.5628,4.577,4.5978,4.6076,4.6138,4.6221,4.6277,4.63,4.6296,4.6404,4.6999,4.8659,4.9884,5.0952,5.3237,5.2779,5.233,5.1498,5.046,4.9661,4.9315,4.9242,4.8453,4.8067,4.7977,4.6775,4.6338,4.6401,4.6564,4.666,4.6749,4.6701,4.6513,4.6238,4.6197,4.6015,4.5662,4.5662,4.5681,4.5698,4.6135,4.6464,4.6581,4.7053,4.7381,4.7567,4.757,4.7474,4.7513,4.7494,4.6882,4.5594,4.5452,4.4736,4.3501,4.3232,4.3105,4.3156,4.2388,4.1946,4.1644,4.1167,4.0722,4.0787,4.1165,4.1541,4.1665,4.2292,4.2986,4.3654,4.3176,4.2794,4.2813,4.2775,4.2851,4.2794,4.2886,4.2904,4.2884,4.2697,4.2584,4.2565,4.2565,4.2488,4.2738,4.3311,4.3848,4.4228,4.4914,4.5451,4.5547,4.5586,4.5618,4.5703,4.5802,4.593,4.5981,4.5998,4.5891,4.5661,4.5477,4.5335,4.5297,4.5277,4.5277,4.5277,4.5277,4.5277,4.5277,4.5277,4.5277,4.5297,4.5375,4.5417,4.5458,4.5569,4.5745,4.5848,4.5969,4.6084,4.6138,4.6211,4.6296,4.6396,4.6852,4.7777,4.9294,5.0051,5.0284,5.4356,5.3824,5.3608,5.2743,5.1422,5.0655,5.0306,5.0251,4.9939,4.9774,4.9719,4.9212,4.8458,4.7499,4.7143,4.7073,4.7271,4.7073,4.6765,4.639,4.6202,4.6027,4.5902,4.5902,4.5992,4.6255,4.701,4.7331,4.7238,4.7504,4.7709,4.772,4.7302,4.7035,4.7054,4.7035,4.6554,4.5679,4.5975,4.5695,4.4784,4.3743,4.3269,4.3358,4.3083,4.2697,4.2341,4.1974,4.1664,4.1401,4.1716,4.1969,4.2145,4.3,4.3674,4.3997,4.4208,4.4265,4.4265,4.4265,4.4265,4.4265,4.4282,4.4281,4.4281,4.4263,4.4265,4.4169,4.3386,4.2966,4.3463,4.3866,4.4307,4.4824,4.5281,4.5528,4.5586,4.5586,4.562,4.5616,4.5688,4.5835,4.592,4.5949,4.5809,4.5566,4.5436,4.5375,4.5297,4.5277,4.5277,4.5277,4.5277,4.5277,4.5277,4.5277,4.5277,4.5297,4.5335,4.5339,4.5399,4.5437,4.5584,4.5752,4.5866,4.5949,4.5978,4.6091,4.6195,4.6502,4.7436,4.8534,4.9648,5.0286,5.0641,5.5111,5.4668,5.4448,5.3506,5.2168,5.1381,5.1092,5.1077,5.0894,5.082,5.082,5.082,5.022,4.9139,4.8476,4.8347,4.8456,4.8292,4.7887,4.7346,4.7243,4.7131,4.6948,4.7168,4.7426,4.7847,4.8715,4.8956,4.8637,4.8986,4.9079,4.8774,4.82,4.7895,4.7857,4.7513,4.6896,4.6365,4.6574,4.6415,4.5736,4.4583,4.3853,4.3742,4.3723,4.3375,4.2671,4.2635,4.247,4.2092,4.2363,4.2667,4.2883,4.3824,4.436,4.4418,4.4934,4.5182,4.4972,4.5163,4.5182,4.501,4.5125,4.5277,4.5277,4.5277,4.5277,4.5163,4.4169,4.3806,4.4227,4.44,4.4746,4.5323,4.5456,4.5528,4.5586,4.5586,4.5549,4.5494,4.5577,4.5718,4.579,4.5813,4.5725,4.5475,4.5397,4.5354,4.5316,4.5277,4.5277,4.5277,4.5277,4.5277,4.5277,4.5277,4.5277,4.5297,4.5316,4.5339,4.5379,4.5419,4.5475,4.5684,4.5757,4.5847,4.596,4.6047,4.6686,4.7174,4.805,4.9141,5.0037,5.0701,5.1067,5.5377,5.5249,5.4535,5.3741,5.2733,5.2114,5.1912,5.205,5.1261,5.0894,5.0986,5.0912,5.0966,5.1138,5.1046,5.0897,5.0685,5.0787,5.0306,4.9487,5.0071,5.0105,4.9499,5.0215,5.0671,5.0689,5.1035,5.1299,5.1343,5.2079,5.2193,5.1391,5.1123,5.1238,5.0932,4.9633,4.865,4.7926,4.735,4.6637,4.6029,4.5773,4.5278,4.4693,4.4565,4.4198,4.3589,4.3442,4.3422,4.3437,4.3873,4.4244,4.4325,4.4855,4.5182,4.5201,4.5258,4.4953,4.4399,4.4876,4.501,4.4395,4.4894,4.5277,4.5277,4.5277,4.5277,4.5277,4.5125,4.5048,4.5125,4.5145,4.5241,4.5376,4.5457,4.5528,4.5586,4.5586,4.555,4.5457,4.5545,4.5629,4.5626,4.5674,4.5634,4.5472,4.5417,4.5394,4.5337,4.5297,4.5277,4.5277,4.5277,4.5277,4.5277,4.5277,4.5277,4.5297,4.5337,4.5376,4.5419,4.5457,4.5532,4.5603,4.5696,4.581,4.5963,4.6578,4.7578,4.8263,4.8833,4.9734,5.0402,5.0782,5.1083,5.6007,5.5952,5.5167,5.4702,5.4473,5.4224,5.4184,5.4216,5.3463,5.3096,5.3004,5.2564,5.2515,5.2828,5.3103,5.2594,5.1467,5.1139,5.0877,5.0675,5.0756,5.0655,5.0453,5.0674,5.1138,5.1585,5.1734,5.2008,5.2392,5.2671,5.2671,5.2327,5.183,5.1601,5.1486,5.1009,5.0133,4.898,4.8502,4.8073,4.7426,4.6853,4.645,4.6176,4.5663,4.5242,4.5039,4.4544,4.4285,4.4281,4.4354,4.4408,4.4467,4.4979,4.5277,4.5277,4.5277,4.5163,4.4914,4.5128,4.5185,4.4914,4.5105,4.5297,4.5277,4.5277,4.5277,4.5277,4.5277,4.5277,4.5297,4.5335,4.5354,4.5395,4.5419,4.5451,4.5509,4.5566,4.5568,4.5494,4.558,4.561,4.5541,4.564,4.5674,4.5509,4.5437,4.5395,4.5357,4.5338,4.5277,4.5277,4.5277,4.5277,4.5277,4.5277,4.5297,4.5297,4.5337,4.5338,4.538,4.5419,4.5495,4.555,4.5632,4.5761,4.5928,4.6642,4.7762,4.854,4.9186,5.0067,5.0721,5.089,5.1016,5.6635,5.6277,5.5767,5.5431,5.535,5.535,5.544,5.5519,5.5023,5.4785,5.4638,5.394,5.3787,5.4016,5.4092,5.3699,5.2774,5.2195,5.1862,5.1677,5.1609,5.1444,5.1261,5.1463,5.1934,5.2559,5.2881,5.3063,5.3232,5.3492,5.3473,5.3187,5.2652,5.2422,5.2327,5.1907,5.1019,5.0195,4.9796,4.9288,4.8676,4.8137,4.7697,4.7442,4.6891,4.6341,4.5938,4.5369,4.5075,4.5072,4.516,4.5177,4.5136,4.5208,4.543,4.564,4.543,4.5277,4.5335,4.5548,4.5453,4.4973,4.5411,4.5621,4.5354,4.5277,4.5277,4.5277,4.5277,4.5277,4.5277,4.5297,4.5316,4.5394,4.5419,4.5417,4.5509,4.5547,4.5549,4.5495,4.551,4.551,4.5456,4.5565,4.558,4.5494,4.5457,4.5417,4.5398,4.5338,4.5277,4.5277,4.5277,4.5277,4.5277,4.5277,4.5277,4.5297,4.5297,4.5319,4.536,4.54,4.5419,4.5476,4.559,4.5741,4.6163,4.6799,4.7595,4.8464,4.9415,5.0375,5.0701,5.0849,5.0956,5.7043,5.6346,5.6188,5.592,5.5514,5.5496,5.5441,5.5776,5.5647,5.5611,5.55,5.4748,5.4598,5.4719,5.426,5.4121,5.451,5.4171,5.3471,5.2679,5.2976,5.2734,5.2068,5.2656,5.3323,5.4052,5.4933,5.4842,5.418,5.4753,5.4791,5.4218,5.4046,5.397,5.4046,5.2684,5.1836,5.1532,5.0922,5.0198,4.9597,4.9407,4.9022,4.8416,4.8306,4.7627,4.6122,4.5957,4.592,4.6009,4.6445,4.6724,4.6386,4.5891,4.5736,4.6309,4.5831,4.543,4.5488,4.6118,4.5872,4.505,4.5676,4.6247,4.5755,4.5488,4.5411,4.5449,4.5335,4.5277,4.5277,4.5277,4.5316,4.5373,4.5376,4.5438,4.5493,4.5547,4.5531,4.5457,4.5438,4.5419,4.5419,4.5437,4.5455,4.5494,4.5438,4.54,4.5398,4.5357,4.5297,4.5277,4.5277,4.5277,4.5277,4.5277,4.5277,4.5297,4.5277,4.5298,4.5359,4.5399,4.5438,4.5496,4.584,4.6012,4.6586,4.7278,4.8202,4.908,4.9952,5.0491,5.0663,5.0795,5.0871,5.6685,5.7006,5.7006,5.7043,5.7013,5.6995,5.7106,5.7171,5.6693,5.6418,5.6271,5.5574,5.5428,5.5538,5.5193,5.5191,5.5541,5.4969,5.4312,5.3882,5.4221,5.3828,5.3083,5.3115,5.3582,5.4315,5.5057,5.5288,5.5097,5.5288,5.5212,5.504,5.4982,5.5002,5.4982,5.4441,5.3821,5.2685,5.1831,5.1071,5.0386,4.9829,4.9407,4.9279,4.9719,4.9242,4.7682,4.704,4.6856,4.703,4.6943,4.7037,4.7272,4.7169,4.715,4.7341,4.7207,4.7016,4.7054,4.7207,4.7188,4.6768,4.7128,4.7261,4.6997,4.6445,4.6158,4.6061,4.566,4.5277,4.5277,4.5277,4.5373,4.5316,4.5378,4.5419,4.5454,4.551,4.5475,4.5419,4.5419,4.5419,4.5419,4.54,4.5418,4.5475,4.5438,4.5419,4.5399,4.5338,4.5277,4.5277,4.5277,4.5277,4.5277,4.5277,4.5277,4.5277,4.5277,4.5277,4.5338,4.5378,4.5418,4.5707,4.6033,4.6493,4.7049,4.7854,4.8797,4.9413,5.0048,5.0414,5.0625,5.0741,5.0798,5.6835,5.7388,5.7455,5.7601,5.7792,5.7792,5.7904,5.7941,5.7483,5.7244,5.7079,5.64,5.6147,5.6288,5.6071,5.6071,5.6247,5.6288,5.5958,5.5216,5.4913,5.4618,5.4178,5.4408,5.4316,5.448,5.5361,5.5689,5.5422,5.5403,5.5403,5.5403,5.5403,5.5556,5.5721,5.5366,5.4684,5.3927,5.2944,5.2011,5.1231,5.0552,5.0189,5.0101,5.0468,5.0193,4.9242,4.8453,4.7978,4.7846,4.7511,4.7665,4.8185,4.8009,4.7933,4.8181,4.8009,4.7914,4.822,4.8261,4.8127,4.7933,4.8082,4.8079,4.7812,4.7204,4.6994,4.6901,4.656,4.6237,4.6233,4.6235,4.6237,4.6235,4.5703,4.5477,4.5437,4.5475,4.5476,4.5419,4.5419,4.5419,4.5419,4.54,4.5418,4.5457,4.5438,4.5419,4.5398,4.5357,4.5337,4.5297,4.5277,4.5277,4.5277,4.5277,4.5277,4.5277,4.5277,4.5277,4.5317,4.5357,4.5378,4.5994,4.6436,4.6896,4.7452,4.8451,4.9355,4.9779,5.0144,5.0452,5.0683,5.0683,5.0741,5.7515,5.751,5.7626,5.7825,5.792,5.7894,5.7904,5.7997,5.7941,5.7905,5.7758,5.7189,5.6877,5.6878,5.6759,5.6703,5.6955,5.7875,5.7768,5.6657,5.5846,5.5362,5.5417,5.5955,5.5673,5.5018,5.6026,5.6282,5.5861,5.5823,5.5536,5.5747,5.5823,5.5938,5.6382,5.5551,5.5233,5.51,5.4131,5.3019,5.1962,5.1725,5.1323,5.073,5.0863,5.0849,5.049,4.9866,4.9169,4.8494,4.8263,4.8513,4.8891,4.8372,4.8468,4.9079,4.8391,4.8544,4.8984,4.9156,4.8888,4.8353,4.877,4.8838,4.8304,4.8056,4.7865,4.7857,4.7671,4.7616,4.7611,4.7595,4.7597,4.7556,4.6431,4.5707,4.5515,4.5495,4.5457,4.5419,4.5398,4.5398,4.5417,4.5456,4.5534,4.5458,4.5571,4.5799,4.5435,4.5415,4.5375,4.5316,4.5297,4.5277,4.5277,4.5277,4.5277,4.5277,4.5297,4.5335,4.5451,4.5509,4.5913,4.6511,4.705,4.7473,4.8068,4.9086,4.9644,4.9933,5.024,5.0567,5.0683,5.0683,5.0683,5.8874,5.8445,5.8592,5.8688,5.8739,5.8225,5.795,5.7978,5.7978,5.7978,5.7923,5.7776,5.7629,5.7665,5.7293,5.7284,5.7618,5.7794,5.7856,5.758,5.7322,5.6472,5.5937,5.6349,5.6512,5.6203,5.6937,5.7447,5.7256,5.7122,5.7141,5.7237,5.7103,5.7275,5.7412,5.6861,5.6223,5.5516,5.4875,5.3861,5.2877,5.2576,5.2138,5.1627,5.2029,5.176,5.0967,5.0618,5.0052,4.9157,4.9246,4.9527,4.9854,4.9671,4.9614,4.9767,4.9748,4.9671,4.9882,4.9958,4.9824,4.971,4.9706,4.9897,4.9667,4.9067,4.8823,4.864,4.8242,4.7859,4.7837,4.7872,4.7872,4.775,4.7028,4.6167,4.5649,4.5438,4.5419,4.5418,4.5416,4.5492,4.5647,4.5913,4.6047,4.5839,4.6239,4.6634,4.5929,4.5835,4.5908,4.543,4.5277,4.5277,4.5277,4.5277,4.5277,4.5277,4.5335,4.543,4.5661,4.595,4.6642,4.7431,4.8009,4.8472,4.9048,4.9817,5.001,5.0144,5.0375,5.0683,5.0683,5.0683,5.0683,5.9174,5.8841,5.9365,5.9223,5.8749,5.8565,5.8309,5.8033,5.7978,5.7978,5.7978,5.7978,5.7978,5.7951,5.7894,5.8045,5.8389,5.8396,5.8404,5.8352,5.8026,5.7228,5.6571,5.7013,5.723,5.681,5.7699,5.7996,5.7878,5.7886,5.7886,5.7829,5.7886,5.7985,5.8062,5.7378,5.6858,5.622,5.551,5.4626,5.3997,5.3808,5.3389,5.2923,5.3167,5.2761,5.1513,5.1298,5.0851,5.0062,4.9978,5.0163,5.0274,5.0302,5.0302,5.0302,5.0302,5.0283,5.0302,5.0302,5.0302,5.0283,5.0302,5.0302,5.0206,4.982,4.9591,4.9538,4.9098,4.8907,4.8827,4.8842,4.8694,4.8455,4.7984,4.7201,4.6051,4.5936,4.5897,4.5952,4.6139,4.635,4.6373,4.6789,4.677,4.6715,4.7155,4.6844,4.6233,4.6405,4.6254,4.5621,4.5354,4.5392,4.5564,4.564,4.587,4.5851,4.6252,4.6175,4.6256,4.664,4.7468,4.8316,4.8912,4.9451,4.9894,5.024,5.0394,5.0529,5.0644,5.0663,5.0683,5.0663,5.0663,5.9133,5.9164,6.0121,5.9685,5.8694,5.8969,5.8786,5.8235,5.8033,5.7978,5.7978,5.7978,5.7978,5.8042,5.8215,5.8694,5.9159,5.9311,5.9317,5.8934,5.8373,5.7547,5.7177,5.7988,5.8014,5.7486,5.8221,5.8509,5.85,5.8326,5.8249,5.8375,5.8299,5.832,5.8477,5.7627,5.7174,5.7011,5.6141,5.5404,5.5003,5.4792,5.4464,5.4118,5.3916,5.3511,5.2595,5.2183,5.1689,5.0769,5.0665,5.0685,5.0588,5.0588,5.0588,5.0569,5.0531,5.034,5.0417,5.0436,5.0302,5.0302,5.0302,5.0302,5.0283,5.0187,5.0168,5.0149,5.0283,5.0015,4.9843,5.0073,4.9729,4.9102,4.8898,4.8152,4.7253,4.6795,4.6717,4.6672,4.736,4.7685,4.7818,4.7876,4.7876,4.7343,4.7761,4.7665,4.7169,4.7076,4.6483,4.5468,4.5392,4.5507,4.5755,4.6023,4.6366,4.6634,4.7379,4.7573,4.735,4.7737,4.8429,4.9122,4.9643,5.0048,5.0394,5.0625,5.0683,5.0683,5.0683,5.0682,5.0682,5.0643,5.0623,6.1299,6.0902,6.1215,6.1153,6.0676,5.9703,5.9098,5.8859,5.8253,5.7978,5.7978,5.7978,5.7978,5.7997,5.8142,5.8521,5.9122,5.9325,5.9233,5.9122,5.8369,5.7969,5.7884,5.8613,5.8878,5.8778,5.952,5.9865,5.9797,5.9644,5.9816,5.9731,5.9288,5.94,5.9271,5.8522,5.7872,5.739,5.668,5.599,5.5477,5.5312,5.5184,5.4921,5.4572,5.4202,5.3867,5.328,5.2681,5.2159,5.1799,5.176,5.1872,5.1582,5.1582,5.1716,5.099,5.0665,5.1066,5.076,5.0321,5.0378,5.034,5.0302,5.0302,5.0302,5.0302,5.0302,5.0283,5.0054,4.9694,4.9996,4.9786,4.9197,4.8548,4.8261,4.8356,4.7939,4.7537,4.757,4.7742,4.7837,4.7892,4.8563,4.8525,4.8162,4.8239,4.8487,4.82,4.784,4.7019,4.6042,4.6042,4.6271,4.6424,4.6806,4.7302,4.7685,4.8372,4.8799,4.8597,4.862,4.9255,4.9815,5.0336,5.0606,5.0683,5.0683,5.0683,5.0683,5.0702,5.0682,5.0663,5.0623,5.0622,6.1627,6.1414,6.1545,6.1172,6.0401,5.9593,5.8988,5.8621,5.8198,5.7978,5.7978,5.7978,5.7978,5.7978,5.8024,5.8455,5.9065,5.9215,5.9215,5.9026,5.8412,5.8024,5.8186,5.875,5.9215,5.9325,5.9791,6.0178,6.0313,6.0237,6.0112,6.0313,5.9809,5.9443,5.9449,5.8891,5.828,5.7784,5.7408,5.6942,5.6455,5.6306,5.6069,5.5751,5.5239,5.4821,5.4344,5.4014,5.3534,5.3154,5.2991,5.2774,5.2604,5.2329,5.2442,5.248,5.2117,5.1658,5.1868,5.1453,5.0937,5.0898,5.0569,5.034,5.0302,5.0302,5.0302,5.0302,5.0264,5.0092,4.9733,4.9522,4.948,4.9117,4.8334,4.8086,4.8315,4.8108,4.8073,4.8353,4.8793,4.8984,4.9232,4.9347,4.9442,4.9232,4.9289,4.9442,4.8827,4.8449,4.7914,4.7283,4.7131,4.7131,4.7226,4.7646,4.8353,4.8831,4.9385,4.9682,4.9652,4.9771,5.0005,5.0353,5.0606,5.0644,5.0683,5.0683,5.0683,5.0702,5.0682,5.0682,5.0643,5.0603,5.0622,6.1368,6.1299,6.149,6.0731,5.9483,5.9281,5.8859,5.829,5.8033,5.7978,5.7978,5.7978,5.7978,5.7978,5.7978,5.8437,5.9026,5.9215,5.9215,5.9103,5.8388,5.8024,5.8186,5.8769,5.9215,5.9252,5.9758,6.0129,6.0129,6.0019,5.9937,6.0049,5.9484,5.9122,5.9008,5.871,5.8289,5.7941,5.7895,5.7739,5.7507,5.7412,5.7138,5.6674,5.6045,5.5556,5.5078,5.4711,5.4369,5.3879,5.4242,5.3776,5.3051,5.2798,5.311,5.3168,5.29,5.2728,5.2766,5.2294,5.1782,5.1744,5.1013,5.0569,5.055,5.0397,5.0302,5.0302,5.0283,5.0206,5.0092,4.9824,4.9366,4.9022,4.8411,4.8067,4.7971,4.7933,4.8181,4.8888,4.9194,4.9385,4.9786,5.0054,5.0206,5.0321,5.034,5.0172,4.9519,4.9098,4.8643,4.8146,4.7898,4.7952,4.8067,4.8525,4.9213,4.948,5.0111,5.0199,5.0325,5.0308,5.0312,5.0509,5.0683,5.0683,5.0683,5.0683,5.0683,5.0702,5.0702,5.0682,5.0663,5.0603,5.0641,6.1665,6.0609,6.1318,6.1043,6.0162,5.9483,5.9079,5.8914,5.8253,5.7997,5.7978,5.7978,5.7978,5.7978,5.7978,5.8437,5.9065,5.9215,5.9215,5.9065,5.8412,5.7978,5.8142,5.8791,5.9178,5.9397,5.9874,6.0159,5.9956,5.9842,5.9639,5.9378,5.9005,5.8784,5.8572,5.8326,5.8023,5.773,5.7721,5.7675,5.7645,5.769,5.7671,5.7361,5.6859,5.6492,5.6216,5.5684,5.506,5.4448,5.4932,5.475,5.4188,5.3926,5.4193,5.4371,5.3664,5.332,5.3531,5.3091,5.2676,5.2437,5.184,5.14,5.1185,5.0803,5.0627,5.0417,5.034,5.0111,4.9385,4.9633,4.9652,4.9293,4.8892,4.8681,4.8589,4.8299,4.8181,4.8984,4.9308,4.9614,5.0034,5.0302,5.0344,5.0386,5.0405,5.0183,4.9652,4.9513,4.9449,4.8971,4.8512,4.8681,4.8888,4.9461,4.9996,4.992,5.0225,5.0313,5.0399,5.0481,5.0542,5.0643,5.0683,5.0683,5.0683,5.0683,5.0683,5.0683,5.0702,5.0682,5.0663,5.0622,5.0758,6.1336,6.0419,6.0401,6.0144,5.9703,5.8933,5.8602,5.8529,5.8162,5.7978,5.7978,5.7978,5.7978,5.7978,5.7978,5.8455,5.9026,5.9215,5.9215,5.9026,5.8412,5.7978,5.8097,5.8812,5.9122,5.9432,5.9956,6.0129,5.9739,5.9537,5.9361,5.9158,5.8916,5.861,5.8145,5.801,5.7565,5.7125,5.6895,5.6997,5.7225,5.7536,5.7792,5.7711,5.7584,5.7244,5.6767,5.651,5.5831,5.527,5.5323,5.5467,5.54,5.5131,5.4982,5.5193,5.4581,5.4027,5.4123,5.362,5.332,5.2799,5.2422,5.2007,5.1778,5.1548,5.1271,5.1047,5.0951,5.0627,4.9901,4.9843,4.9442,4.914,4.8834,4.8605,4.8395,4.8067,4.843,4.8965,4.9156,4.9538,5.013,5.0344,5.0386,5.0428,5.0489,5.0169,4.9775,4.9846,4.995,4.9694,4.9255,4.935,4.9519,4.9882,5.0302,5.0302,5.0474,5.0543,5.0607,5.0747,5.0698,5.0663,5.0683,5.0991,5.0683,5.0683,5.0683,5.0721,5.0779,5.0798,5.0701,5.0681,5.0949,6.0707,5.9869,5.941,5.9116,5.8859,5.8244,5.7969,5.7997,5.795,5.7978,5.7978,5.7978,5.7978,5.8024,5.8257,5.8628,5.9215,5.9215,5.9215,5.9026,5.8369,5.7978,5.8213,5.8628,5.9084,5.9325,5.9842,6.0,5.9499,5.9287,5.9121,5.8985,5.9007,5.8814,5.8301,5.8436,5.7336,5.674,5.6116,5.6392,5.6722,5.7353,5.7839,5.7792,5.7932,5.7593,5.6877,5.6987,5.6436,5.5963,5.5879,5.6213,5.6504,5.6196,5.5912,5.5861,5.5613,5.5078,5.483,5.4409,5.4117,5.3652,5.3232,5.2742,5.2308,5.2289,5.2112,5.1754,5.1544,5.1467,5.0913,5.0321,5.0077,4.9866,4.9347,4.8602,4.8602,4.8506,4.8548,4.8892,4.9041,4.9519,5.0206,5.0367,5.0409,5.0473,5.0492,5.0517,5.0197,5.0232,5.032,5.023,5.0073,5.0073,5.0111,5.0054,5.0302,5.0302,5.0646,5.0937,5.1006,5.1111,5.1158,5.1374,5.1529,5.1722,5.1221,5.0856,5.1087,5.1164,5.1029,5.1143,5.1526,5.1638,5.1749,5.9648,5.8345,5.8969,5.8804,5.8198,5.7941,5.7886,5.7997,5.7904,5.7886,5.7978,5.7978,5.7978,5.8097,5.871,5.9046,5.9159,5.914,5.914,5.9008,5.8369,5.7978,5.8051,5.8455,5.891,5.9215,5.9658,5.9518,5.9252,5.9103,5.906,5.8952,5.8731,5.8519,5.9421,5.9181,5.9006,5.8639,5.8015,5.7363,5.6942,5.7574,5.7886,5.7812,5.7804,5.7519,5.6859,5.7042,5.6877,5.5926,5.6869,5.7208,5.6936,5.7354,5.7546,5.716,5.6454,5.5651,5.5919,5.5556,5.5097,5.469,5.4327,5.3958,5.3506,5.2518,5.1964,5.1677,5.1658,5.1888,5.2136,5.2251,5.2294,5.1868,5.12,5.0569,5.0187,4.9824,4.979,4.9698,5.0115,5.0096,5.0378,5.0386,5.0432,5.0495,5.0558,5.056,5.054,5.0498,5.0454,5.0325,5.0302,5.0302,5.0302,5.0302,5.0512,5.0455,5.0856,5.1357,5.1618,5.1858,5.2363,5.2562,5.2585,5.2318,5.1818,5.1606,5.1683,5.1817,5.197,5.2333,5.2754,5.2727,5.2491,5.8217,5.8033,5.8364,5.8327,5.8033,5.7839,5.7839,5.7839,5.7839,5.7839,5.7904,5.7997,5.7978,5.816,5.8628,5.8852,5.8852,5.8852,5.887,5.8791,5.8301,5.7978,5.8142,5.8605,5.9008,5.9008,5.9342,5.9323,5.9101,5.9337,5.9497,5.9029,5.9426,5.9615,6.0133,5.9905,5.9281,5.8804,5.8492,5.8207,5.7859,5.8097,5.8207,5.7317,5.7345,5.6932,5.651,5.6345,5.6381,5.5804,5.672,5.7058,5.6986,5.7438,5.802,5.8479,5.7523,5.6836,5.6568,5.6282,5.5944,5.5486,5.5059,5.4842,5.4499,5.3378,5.2556,5.3015,5.2556,5.2537,5.2709,5.2785,5.2805,5.2652,5.2327,5.2098,5.1601,5.1601,5.1415,5.1285,5.1113,5.1051,5.0937,5.0792,5.0703,5.0498,5.056,5.0562,5.05,5.0393,5.0371,5.0302,5.0302,5.0302,5.0302,5.0321,5.0832,5.0947,5.1233,5.1759,5.233,5.2743,5.3248,5.3272,5.3047,5.2722,5.2395,5.2414,5.2529,5.2777,5.3023,5.319,5.3322,5.3107,5.3066,5.7171,5.7721,5.7905,5.7978,5.7978,5.7857,5.7839,5.7857,5.7792,5.7792,5.7857,5.795,5.8024,5.8186,5.8479,5.8628,5.8628,5.8586,5.8586,5.8479,5.8213,5.8024,5.8186,5.8646,5.893,5.8769,5.9645,5.9609,5.9545,5.9817,6.0126,5.9268,6.0071,6.0658,6.0463,6.0419,6.0126,5.9061,5.9318,5.9061,5.8565,5.8841,5.8455,5.7795,5.7152,5.673,5.6051,5.5996,5.5959,5.59,5.6367,5.681,5.6979,5.7517,5.8241,5.8689,5.8307,5.8096,5.7714,5.7332,5.6658,5.618,5.5683,5.5575,5.5154,5.3989,5.3288,5.388,5.3148,5.2963,5.3058,5.3039,5.278,5.2684,5.2494,5.2532,5.2513,5.2289,5.2026,5.1706,5.1691,5.2126,5.192,5.1469,5.1092,5.0634,5.0542,5.064,5.0596,5.0543,5.044,5.0455,5.0417,5.0531,5.0779,5.0856,5.1214,5.1615,5.1902,5.237,5.3077,5.3606,5.4073,5.3925,5.3663,5.3895,5.401,5.3703,5.3413,5.3791,5.4054,5.3759,5.3679,5.356,5.3909,5.684,5.695,5.7685,5.8024,5.7997,5.7857,5.7886,5.795,5.7857,5.7886,5.8024,5.7978,5.8186,5.8455,5.8479,5.8545,5.8586,5.8586,5.8545,5.8394,5.8213,5.8024,5.8186,5.8479,5.8926,5.9232,5.989,6.0116,6.027,6.08,6.0803,6.0365,6.0564,6.1323,6.1642,6.1594,6.1172,6.0364,6.0456,6.0052,5.9465,5.9318,5.9079,5.8804,5.8198,5.7538,5.6785,5.6602,5.6305,5.6002,5.6426,5.6485,5.6695,5.7492,5.8222,5.8631,5.8784,5.8842,5.9109,5.8459,5.7856,5.7481,5.7002,5.6301,5.5861,5.4734,5.4224,5.4388,5.3943,5.3752,5.3733,5.3498,5.3506,5.341,5.3391,5.3015,5.2938,5.2652,5.237,5.2073,5.2341,5.2987,5.2968,5.2537,5.1932,5.1475,5.1242,5.1344,5.1092,5.0983,5.0746,5.0665,5.0588,5.0837,5.1448,5.1716,5.1964,5.2494,5.2952,5.3441,5.403,5.4503,5.4779,5.4943,5.4836,5.5241,5.5376,5.4645,5.4336,5.4902,5.5048,5.4656,5.4863,5.515,5.5562,5.6866,5.7602,5.8392,5.8455,5.7997,5.8105,5.806,5.7914,5.8105,5.822,5.8369,5.8142,5.8231,5.8455,5.8301,5.8213,5.8231,5.8213,5.8238,5.8213,5.8051,5.7997,5.8186,5.8712,5.9192,5.9659,6.0207,6.0617,6.0832,6.1338,6.0992,6.0695,6.0911,6.1853,6.2412,6.2456,6.2126,6.1961,6.1777,6.1465,6.075,6.007,5.9483,5.8437,5.829,5.7593,5.6932,5.6822,5.6397,5.6219,5.6537,5.6428,5.6336,5.7282,5.8031,5.8421,5.8479,5.9109,5.9931,5.9243,5.8498,5.7905,5.7562,5.721,5.6702,5.5696,5.576,5.567,5.5096,5.4733,5.6091,5.5734,5.5281,5.4957,5.4428,5.376,5.3569,5.3397,5.3569,5.3656,5.3847,5.4249,5.4025,5.3642,5.2977,5.2372,5.2177,5.1982,5.1752,5.1595,5.1453,5.1391,5.1372,5.162,5.2231,5.248,5.2652,5.3301,5.3945,5.4301,5.47,5.504,5.5297,5.5577,5.5701,5.5703,5.553,5.5126,5.5083,5.5301,5.5446,5.5442,5.5878,5.6395,5.6712,5.6982,5.7747,5.8639,5.871,5.8257,5.8503,5.8418,5.815,5.8351,5.8591,5.875,5.8301,5.8301,5.8521,5.8213,5.8024,5.8024,5.8024,5.8024,5.8088,5.8235,5.8327,5.87,5.9413,6.0263,6.0479,6.0933,6.1403,6.1666,6.1474,6.1196,6.1166,6.1377,6.1812,6.2388,6.2713,6.2805,6.2805,6.288,6.2684,6.19,6.1308,6.0588,5.9347,5.9079,5.8694,5.8198,5.7978,5.77,5.7468,5.7396,5.6892,5.6827,5.7092,5.7955,5.8077,5.8249,5.8822,5.9262,5.9663,5.9185,5.8918,5.8432,5.8184,5.7619,5.6639,5.6378,5.6945,5.6173,5.6033,5.7487,5.6441,5.5785,5.525,5.4651,5.4161,5.4619,5.4696,5.5097,5.5409,5.5505,5.5454,5.5167,5.4746,5.3757,5.3115,5.2656,5.2518,5.246,5.2379,5.2408,5.2384,5.2422,5.2747,5.3148,5.3282,5.3492,5.4161,5.4696,5.4817,5.5153,5.5514,5.5623,5.5634,5.5737,5.5876,5.5703,5.5395,5.5369,5.547,5.5538,5.5542,5.5791,5.6231,5.6884,5.7186,5.7004,5.8164,5.8669,5.8646,5.9026,5.893,5.8503,5.8503,5.8732,5.893,5.8369,5.8394,5.8772,5.8344,5.807,5.7978,5.7997,5.807,5.8272,5.8712,5.9043,5.9678,6.0478,6.1261,6.1787,6.1955,6.2178,6.2644,6.1615,6.1288,6.1196,6.1056,6.1098,6.1686,6.2438,6.2787,6.2855,6.3186,6.297,6.2701,6.2207,6.1476,6.1098,6.0283,5.9758,5.9557,5.9171,5.9007,5.9196,5.8966,5.8672,5.8606,5.8729,5.888,5.844,5.8842,5.8803,5.8307,5.9568,5.9996,5.9606,5.8776,5.8509,5.7925,5.7149,5.6805,5.7512,5.6351,5.6085,5.6276,5.6193,5.5919,5.5778,5.5262,5.511,5.5651,5.5976,5.6339,5.653,5.6549,5.6511,5.6282,5.5811,5.467,5.3877,5.3226,5.3054,5.3249,5.3355,5.3473,5.3511,5.3588,5.3932,5.4218,5.4104,5.4333,5.5021,5.5345,5.5371,5.567,5.6083,5.606,5.5884,5.6044,5.6376,5.6069,5.5684,5.5846,5.5988,5.5523,5.5486,5.5715,5.6263,5.7109,5.7736,5.7729,5.9174,5.9484,5.9065,5.914,5.8969,5.8586,5.8369,5.8455,5.871,5.8479,5.8479,5.8628,5.8582,5.8231,5.8061,5.8015,5.8125,5.8841,5.9226,5.9575,6.0222,6.1148,6.1974,6.2257,6.2405,6.2441,6.2839,6.1403,6.0774,6.0664,6.0848,6.1306,6.1759,6.2346,6.2805,6.2823,6.2984,6.3025,6.3094,6.2419,6.1976,6.2031,6.1069,6.054,6.0493,6.0107,6.0175,6.0404,6.0095,6.0103,5.993,5.997,6.0141,5.9988,6.0351,5.9854,5.9824,6.0483,6.0261,5.9385,5.8689,5.8582,5.852,5.7417,5.7531,5.7752,5.6836,5.6849,5.7315,5.6733,5.6526,5.6946,5.6736,5.6649,5.6905,5.7122,5.7351,5.7409,5.7447,5.7442,5.727,5.6799,5.5815,5.5246,5.4714,5.4479,5.4532,5.4631,5.4753,5.4753,5.4849,5.5174,5.5326,5.5097,5.5288,5.5957,5.5938,5.567,5.6046,5.6709,5.698,5.7013,5.6967,5.6896,5.6624,5.6448,5.6537,5.6486,5.6173,5.625,5.6747,5.7258,5.787,5.8103,5.8142,5.9251,5.9571,5.9196,5.906,5.8709,5.8234,5.8039,5.8213,5.8503,5.8479,5.8479,5.8503,5.8455,5.8578,5.8364,5.8437,5.8859,5.9593,5.9979,6.0401,6.1015,6.1732,6.2384,6.2563,6.2205,6.2089,6.207,6.0619,6.0034,6.0078,6.0566,6.0951,6.1539,6.231,6.2622,6.2598,6.2719,6.3215,6.3224,6.2955,6.2658,6.2409,6.1828,6.1032,6.0871,6.0805,6.0853,6.0914,6.1209,6.1464,6.1425,6.1573,6.1669,6.1516,6.0886,6.0561,6.0876,6.0253,5.9622,5.8268,5.8142,5.8272,5.8298,5.7232,5.7421,5.7585,5.7273,5.746,5.7602,5.6981,5.7213,5.7614,5.769,5.7565,5.8279,5.8517,5.8421,5.8459,5.8353,5.8322,5.8132,5.7646,5.6985,5.6625,5.628,5.6002,5.5624,5.5473,5.546,5.5479,5.5536,5.5708,5.5899,5.5976,5.6301,5.6912,5.6721,5.6358,5.6919,5.764,5.7895,5.8122,5.8077,5.7912,5.7428,5.7248,5.7297,5.7249,5.7035,5.7289,5.7817,5.8119,5.84,5.8369,5.807,5.8437,5.891,5.9084,5.8786,5.8236,5.7546,5.7873,5.8176,5.8471,5.8039,5.8072,5.8344,5.8176,5.8492,5.9061,5.9171,5.9758,6.0401,6.0915,6.1318,6.1805,6.253,6.2438,6.2271,6.1881,6.1217,6.0983,5.9992,5.941,5.9336,5.9832,6.0401,6.1282,6.2108,6.2346,6.2481,6.2785,6.3271,6.3468,6.3686,6.3357,6.2997,6.2239,6.1459,6.1161,6.0951,6.1597,6.2276,6.3237,6.3761,6.4038,6.4191,6.3121,6.2147,6.123,6.1535,6.1535,6.0827,5.9737,5.8945,5.8654,5.8068,5.7309,5.6816,5.6947,5.7028,5.6812,5.7229,5.7449,5.7564,5.7695,5.7898,5.8042,5.8642,5.9644,5.9854,5.9663,5.9529,5.9327,5.9152,5.8777,5.8333,5.7968,5.7642,5.7215,5.674,5.6288,5.553,5.5556,5.5728,5.5842,5.6071,5.632,5.6797,5.7179,5.7772,5.7626,5.7416,5.8035,5.8437,5.8668,5.8903,5.9134,5.8946,5.8299,5.8021,5.8016,5.7941,5.8016,5.7913,5.8353,5.8249,5.8494,5.8369,5.807,5.875,5.893,5.8753,5.863,5.8476,5.8248,5.8113,5.7794,5.732,5.7537,5.7476,5.7376,5.8086,5.8674,5.9228,5.985,6.0548,6.1135,6.1575,6.1594,6.1813,6.2142,6.1937,6.1334,6.0715,6.0337,6.0067,5.932,5.8786,5.8529,5.9795,6.0327,6.0878,6.1851,6.2236,6.2579,6.2855,6.3298,6.3631,6.3803,6.3523,6.3023,6.2103,6.1278,6.0406,6.0089,6.0738,6.1954,6.2813,6.3597,6.5047,6.5031,6.4554,6.4458,6.4057,6.3904,6.3369,6.2404,6.1277,6.0015,5.9209,5.7826,5.6931,5.6419,5.6333,5.6418,5.6318,5.652,5.6587,5.6728,5.7213,5.7645,5.7878,5.8557,5.9502,6.0026,5.9892,6.0092,5.9909,5.9874,5.9479,5.9182,5.8837,5.8544,5.8131,5.757,5.6983,5.6269,5.5976,5.6205,5.6415,5.6721,5.7409,5.7944,5.8203,5.847,5.8383,5.841,5.8735,5.9079,5.9408,5.9581,5.9681,5.9446,5.8981,5.8828,5.8719,5.914,5.9251,5.8956,5.8765,5.8784,5.8964,5.8213,5.807,5.8521,5.8669,5.8628,5.8791,5.875,5.8489,5.7855,5.7207,5.6849,5.6682,5.6535,5.6526,5.7364,5.8279,5.9245,6.0015,6.0915,6.1924,6.2065,6.1832,6.182,6.1621,6.1079,6.0287,5.9578,5.9237,5.9052,5.8915,5.8455,5.8749,6.0236,6.0364,6.075,6.1649,6.2383,6.264,6.2935,6.3262,6.3517,6.3742,6.3447,6.2794,6.1805,6.0747,5.9641,5.9412,6.0008,6.1255,6.2145,6.3502,6.4788,6.5127,6.5356,6.5203,6.5146,6.4898,6.4458,6.3386,6.2538,6.1363,5.9671,5.8367,5.72,5.6501,5.6284,5.6159,5.58,5.5581,5.5533,5.5599,5.6416,5.7175,5.7657,5.8129,5.8901,5.9673,6.0054,6.0349,6.0441,6.0501,6.0309,5.9969,5.9605,5.9122,5.8681,5.8265,5.7734,5.716,5.6969,5.7084,5.7256,5.7504,5.823,5.8842,5.9033,5.9243,5.9415,5.9434,5.9587,5.9691,5.9925,6.0054,6.0125,5.9869,5.9606,5.9498,5.9486,5.984,6.0007,5.9759,5.9568,5.9644,5.9882,5.7941,5.7886,5.7978,5.8257,5.8586,5.893,5.8852,5.8471,5.7438,5.6793,5.6547,5.5923,5.5655,5.5757,5.6765,5.8033,5.9328,6.0459,6.1636,6.2768,6.2751,6.242,6.1722,6.1312,6.0414,5.9457,5.875,5.8443,5.8087,5.8115,5.851,5.9116,5.952,5.9997,6.097,6.1686,6.2365,6.2732,6.2855,6.3062,6.349,6.371,6.37,6.2932,6.2122,6.1272,6.0221,5.9807,5.9745,6.0871,6.192,6.3238,6.4196,6.4993,6.5299,6.5394,6.5394,6.5337,6.4936,6.3959,6.2985,6.1745,6.0246,5.9232,5.8228,5.7076,5.6744,5.6717,5.6556,5.6448,5.6419,5.6378,5.6888,5.7378,5.781,5.8318,5.8948,5.9625,6.0111,6.0376,6.0525,6.0604,6.0647,6.0268,6.0104,5.9652,5.9354,5.8975,5.8661,5.8192,5.7982,5.8001,5.8058,5.8307,5.8956,5.9472,5.9682,5.9911,6.0064,6.0141,6.0026,6.0196,6.0468,6.0418,6.0322,6.0372,6.0231,6.0073,5.9977,6.0119,6.0274,6.0332,6.0332,6.0236,6.0302,5.7629,5.7152,5.774,5.807,5.8186,5.8545,5.8521,5.8113,5.7542,5.6768,5.5967,5.5647,5.5188,5.4932,5.6748,5.8143,5.9291,6.1062,6.2472,6.2903,6.311,6.2461,6.1539,6.0774,5.9816,5.8963,5.8306,5.7971,5.7959,5.7987,5.8107,5.8474,5.9226,6.0419,6.0841,6.1594,6.2456,6.2737,6.2726,6.294,6.34,6.345,6.3369,6.2982,6.2405,6.1911,6.1139,6.0961,6.108,6.1656,6.2052,6.3022,6.4138,6.4944,6.5318,6.5394,6.5356,6.5356,6.5031,6.439,6.3664,6.2853,6.1669,6.0625,5.9491,5.8221,5.7541,5.7593,5.754,5.745,5.7358,5.7341,5.7275,5.7638,5.7963,5.8479,5.9014,5.9595,6.0138,6.0365,6.0533,6.0629,6.069,6.0657,6.0507,6.0329,6.0223,5.9988,5.9873,5.951,5.9052,5.8975,5.8822,5.9109,5.9682,5.9931,6.0045,6.0141,6.0236,6.0332,6.0389,6.0444,6.0453,6.0472,6.0453,6.0472,6.048,6.0437,6.0391,6.0398,6.0389,6.0389,6.0389,6.0313,6.036,5.6895,5.6895,5.7602,5.8024,5.8238,5.8609,5.865,5.8512,5.8306,5.7289,5.595,5.5631,5.4987,5.4418,5.64,5.7923,5.9026,6.1252,6.2271,6.2804,6.302,6.2243,6.136,6.0413,5.9255,5.8422,5.7947,5.7715,5.7904,5.7997,5.8052,5.83,5.9483,6.0401,6.0499,6.1581,6.2443,6.2668,6.2462,6.2708,6.3206,6.3325,6.3089,6.2813,6.2604,6.2186,6.1818,6.1636,6.177,6.2218,6.2773,6.3337,6.4264,6.4955,6.5127,6.507,6.507,6.5242,6.4917,6.4581,6.4256,6.3503,6.2366,6.1046,6.1555,6.0399,5.9259,5.9177,5.8673,5.8506,5.8259,5.8164,5.7779,5.7848,5.802,5.8364,5.9052,5.9759,6.0204,6.0494,6.0604,6.0655,6.069,6.0661,6.0556,6.0508,6.0453,6.037,6.0389,6.0389,6.0045,5.9816,5.9568,5.9644,6.0045,6.0217,6.0274,6.0351,6.0389,6.0389,6.0389,6.0389,6.0417,6.0417,6.0417,6.0436,6.0453,6.046,6.046,6.0417,6.0389,6.0389,6.0389,6.0389,6.0389,5.6088,5.6813,5.7399,5.7895,5.8357,5.8735,5.895,5.9046,5.9065,5.7996,5.6317,5.5877,5.4773,5.4473,5.5666,5.6877,5.8592,6.1001,6.2085,6.2564,6.3307,6.266,6.1581,6.0395,5.9365,5.8422,5.7783,5.7752,5.7792,5.7932,5.8116,5.8373,5.9218,6.0236,6.0444,6.1056,6.1844,6.2192,6.2242,6.2278,6.2708,6.3205,6.2946,6.2743,6.2728,6.2651,6.2219,6.2222,6.2386,6.2637,6.341,6.384,6.4352,6.4936,6.4955,6.4955,6.5127,6.5031,6.4726,6.46,6.439,6.3836,6.2558,6.2251,6.2782,6.2382,6.1242,6.0806,6.0325,5.9797,5.9549,5.9178,5.8781,5.8173,5.8307,5.8631,5.9415,6.0026,6.028,6.0616,6.0629,6.0635,6.0647,6.0638,6.0652,6.0585,6.0564,6.0444,6.0389,6.0389,6.0236,6.0141,6.0064,6.0217,6.0389,6.0389,6.0389,6.0389,6.0389,6.0389,6.0389,6.0389,6.0389,6.0389,6.0417,6.0417,6.0417,6.0425,6.0417,6.0389,6.0389,6.0389,6.0389,6.0389,6.0389,5.6051,5.6822,5.685,5.7216,5.7877,5.832,5.8531,5.8549,5.8635,5.7757,5.6555,5.6332,5.5409,5.3335,5.5739,5.7124,5.7991,6.0571,6.1619,6.2019,6.3177,6.301,6.207,6.0651,5.9812,5.8846,5.7881,5.7734,5.781,5.795,5.8205,5.8523,5.8934,5.966,6.0063,6.0748,6.1464,6.1825,6.2196,6.2412,6.264,6.2984,6.3121,6.3267,6.3626,6.3697,6.3822,6.437,6.4006,6.3769,6.3804,6.4119,6.4447,6.4867,6.502,6.4993,6.5165,6.5127,6.4898,6.4936,6.481,6.4371,6.3427,6.3274,6.3617,6.3725,6.3149,6.3353,6.2809,6.201,6.1627,6.1138,6.0655,5.9472,5.9043,5.9769,6.0552,6.0523,6.0502,6.0583,6.0578,6.0604,6.0629,6.066,6.0743,6.0731,6.0816,6.0723,6.0618,6.0523,6.0485,6.0408,6.0427,6.0389,6.0389,6.0389,6.0389,6.0389,6.0389,6.0389,6.0389,6.0389,6.0389,6.0389,6.0389,6.0389,6.0389,6.0389,6.0389,6.0389,6.0389,6.0389,6.0389,6.0523,6.0656]},{"header":{"parameterUnit":"m.s-1","parameterCategory":1,"la1":31.0,"la2":29.5877,"lo1":-88.7671,"lo2":-86.6584,"dy":0.0162,"dx":0.0185,"nx":115,"ny":88,"refTime":"2023-11-22T06:00:00:Z","depth":0,"parameterNumber":3,"parameterNumberName":"V-component_of_WINDS"},"data":[0.0,0.0,0.0,0.0,0.0,0.0,0.0,0.0,0.0,0.0,0.0,0.0,0.0,0.0,0.0,0.0,0.0,0.0,0.0,0.0,0.0,0.0,0.0,0.0,0.0,0.0,0.0,0.0,0.0,0.0,0.0,0.0,0.0,0.0,0.0,0.0,0.0,0.0,0.0,0.0,0.0,0.0,0.0,0.0,0.0,0.0,0.0,0.0,0.0,0.0,0.0,0.0,0.0,0.0,0.0,0.0,0.0,0.0,0.0,0.0,0.0,0.0,0.0,0.0,0.0,0.0,0.0,0.0,0.0,0.0,0.0,0.0,0.0,0.0,0.0,0.0,0.0,0.0,0.0,0.0,0.0,0.0,0.0,0.0,0.0,0.0,0.0,0.0,0.0,0.0,0.0,0.0,0.0,0.0,0.0,0.0,0.0,0.0,0.0,0.0,0.0,0.0,0.0,0.0,0.0,0.0,0.0,0.0,0.0,0.0,0.0,0.0,0.0,0.0,0.0,0.0,0.0,0.0,0.0,0.0,0.0,0.0,0.0,0.0,0.0,0.0,0.0,0.0,0.0,0.0,0.0,0.0,0.0,0.0,0.0,0.0,0.0,0.0,0.0,0.0,0.0,0.0,0.0,0.0,0.0,0.0,0.0,0.0,0.0,0.0,0.0,0.0,0.0,0.0,0.0,0.0,0.0,0.0,0.0,0.0,0.0,0.0,0.0,0.0,0.0,0.0,0.0,0.0,0.0,0.0,0.0,0.0,0.0,0.0,0.0,0.0,0.0,0.0,0.0,0.0,0.0,0.0,0.0,0.0,0.0,0.0,0.0,0.0,0.0,0.0,0.0,0.0,0.0,0.0,0.0,0.0,0.0,0.0,0.0,0.0,0.0,0.0,0.0,0.0,0.0,0.0,0.0,0.0,0.0,0.0,0.0,0.0,0.0,0.0,0.0,0.0,0.0,0.0,0.0,0.0,0.0,0.0,0.0,0.0,0.0,0.0,0.0,0.0,0.0,0.0,0.0,0.0,0.0,0.0,0.0,0.0,0.0,0.0,0.0,0.0,0.0,0.0,0.0,0.0,0.0,0.0,0.0,0.0,0.0,0.0,0.0,0.0,0.0,0.0,0.0,0.0,0.0,0.0,0.0,0.0,0.0,0.0,0.0,0.0,0.0,0.0,0.0,0.0,0.0,0.0,0.0,0.0,0.0,0.0,0.0,0.0,0.0,0.0,0.0,0.0,0.0,0.0,0.0,0.0,0.0,0.0,0.0,0.0,0.0,0.0,0.0,0.0,0.0,0.0,0.0,0.0,0.0,0.0,0.0,0.0,0.0,0.0,0.0,0.0,0.0,0.0,0.0,0.0,0.0,0.0,0.0,0.0,0.0,0.0,0.0,0.0,0.0,0.0,0.0,0.0,0.0,0.0,0.0,0.0,0.0,0.0,0.0,0.0,0.0,0.0,0.0,0.0,0.0,0.0,0.0,0.0,0.0,0.0,0.0,0.0,0.0,0.0,0.0,0.0,0.0,0.0,0.0,0.0,0.0,0.0,0.0,0.0,0.0,0.0,0.0,0.0,0.0,0.0,0.0,0.0,0.0,0.0,0.0,0.0,0.0,0.0,0.0,0.0,0.0,0.0,0.0,0.0,0.0,0.0,0.0,0.0,0.0,0.0,0.0,0.0,0.0,0.0,0.0,0.0,0.0,0.0,0.0,0.0,0.0,0.0,0.0,0.0,0.0,0.0,0.0,0.0,0.0,0.0,0.0,0.0,0.0,0.0,0.0,0.0,0.0,0.0,0.0,0.0,0.0,0.0,0.0,0.0,0.0,0.0,0.0,0.0,0.0,0.0,0.0,0.0,0.0,0.0,0.0,0.0,0.0,0.0,0.0,0.0,0.0,0.0,0.0,0.0,0.0,0.0,0.0,0.0,0.0,0.0,0.0,0.0,0.0,0.0,0.0,0.0,0.0,0.0,0.0,0.0,0.0,0.0,0.0,0.0,0.0,0.0,0.0,0.0,0.0,0.0,0.0,0.0,0.0,0.0,0.0,0.0,0.0,0.0,0.0,0.0,0.0,0.0,0.0,0.0,0.0,0.0,0.0,0.0,0.0,0.0,0.0,0.0,0.0,0.0,0.0,0.0,0.0,0.0,0.0,0.0,0.0,0.0,0.0,0.0,0.0,0.0,0.0,0.0,0.0,0.0,0.0,0.0,0.0,0.0,0.0,0.0,0.0,0.0,0.0,0.0,0.0,0.0,0.0,0.0,0.0,0.0,0.0,0.0,0.0,0.0,0.0,0.0,0.0,0.0,0.0,0.0,0.0,0.0,0.0,0.0,0.0,0.0,0.0,0.0,0.0,0.0,0.0,0.0,0.0,0.0,0.0,0.0,0.0,0.0,0.0,0.0,0.0,0.0,0.0,0.0,0.0,0.0,0.0,0.0,0.0,0.0,0.0,0.0,0.0,0.0,0.0,0.0,0.0,0.0,0.0,0.0,0.0,0.0,0.0,0.0,0.0,0.0,0.0,0.0,0.0,0.0,0.0,0.0,0.0,0.0,0.0,0.0,0.0,0.0,0.0,0.0,0.0,0.0,0.0,0.0,0.0,0.0,0.0,0.0,0.0,0.0,0.0,0.0,0.0,0.0,0.0,0.0,0.0,0.0,0.0,0.0,0.0,0.0,0.0,0.0,0.0,0.0,0.0,0.0,0.0,0.0,0.0,0.0,0.0,0.0,0.0,0.0,0.0,0.0,0.0,0.0,0.0,0.0,0.0,0.0,0.0,0.0,0.0,0.0,0.0,0.0,0.0,0.0,0.0,0.0,0.0,0.0,0.0,0.0,0.0,0.0,0.0,0.0,0.0,0.0,0.0,0.0,0.0,0.0,0.0,0.0,0.0,0.0,0.0,0.0,0.0,0.0,0.0,0.0,0.0,0.0,0.0,0.0,0.0,0.0,0.0,0.0,0.0,0.0,0.0,0.0,0.0,0.0,0.0,0.0,0.0,0.0,0.0,0.0,0.0,0.0,0.0,0.0,0.0,0.0,0.0,0.0,0.0,0.0,0.0,0.0,0.0,0.0,0.0,0.0,0.0,0.0,0.0,0.0,0.0,0.0,0.0,0.0,0.0,0.0,0.0,0.0,0.0,0.0,0.0,0.0,0.0,0.0,0.0,0.0,0.0,0.0,0.0,0.0,0.0,0.0,0.0,0.0,0.0,0.0,0.0,0.0,0.0,0.0,0.0,0.0,0.0,0.0,0.0,0.0,0.0,0.0,0.0,0.0,0.0,0.0,0.0,0.0,0.0,0.0,0.0,0.0,0.0,0.0,0.0,0.0,0.0,0.0,0.0,0.0,0.0,0.0,0.0,0.0,0.0,0.0,0.0,0.0,0.0,0.0,0.0,0.0,0.0,0.0,0.0,0.0,0.0,0.0,0.0,0.0,0.0,0.0,0.0,0.0,0.0,0.0,0.0,0.0,0.0,0.0,0.0,0.0,0.0,0.0,0.0,0.0,0.0,0.0,0.0,0.0,0.0,0.0,0.0,0.0,0.0,0.0,0.0,0.0,0.0,0.0,0.0,0.0,0.0,0.0,0.0,0.0,0.0,0.0,0.0,0.0,0.0,0.0,0.0,0.0,0.0,0.0,0.0,0.0,0.0,0.0,0.0,0.0,0.0,0.0,0.0,0.0,0.0,0.0,0.0,0.0,0.0,0.0,0.0,0.0,0.0,0.0,0.0,0.0,0.0,0.0,0.0,0.0,0.0,0.0,0.0,0.0,0.0,0.0,0.0,0.0,0.0,0.0,0.0,0.0,0.0,0.0,0.0,0.0,0.0,0.0,0.0,0.0,0.0,0.0,0.0,0.0,0.0,0.0,0.0,0.0,0.0,0.0,0.0,0.0,0.0,0.0,0.0,0.0,0.0,0.0,0.0,0.0,0.0,0.0,0.0,0.0,0.0,0.0,0.0,0.0,0.0,0.0,0.0,0.0,0.0,0.0,0.0,0.0,0.0,0.0,0.0,0.0,0.0,0.0,0.0,0.0,0.0,0.0,0.0,0.0,0.0,0.0,0.0,0.0,0.0,0.0,0.0,0.0,0.0,0.0,0.0,0.0,0.0,0.0,0.0,0.0,0.0,0.0,0.0,0.0,0.0,0.0,0.0,0.0,0.0,0.0,0.0,0.0,0.0,0.0,0.0,0.0,0.0,0.0,0.0,0.0,0.0,0.0,0.0,0.0,0.0,0.0,0.0,0.0,0.0,0.0,0.0,0.0,0.0431,0.0,0.0,0.0,0.0,0.0,0.0,0.0,0.0,0.0,0.0,0.0,0.0,0.0,0.0,0.0,0.0,0.0,0.0,0.0,0.0,0.0,0.0,0.0,0.0,0.0,0.0,0.0,0.0,0.0,0.0,0.0,0.0,0.0,0.0,0.0,0.0,0.0,0.0,0.0,0.0,0.0,0.0,0.0,0.0,0.0,0.0,0.0,0.0,0.0,0.0,0.0,0.0,0.0,0.0,0.0,0.0,0.0,0.0,0.0,0.0,0.0,0.0,0.0,0.0,0.0,0.0,0.0,0.0,0.0,0.0,0.0,0.0,0.0,0.0,0.0,0.0,0.0,0.0,0.0,0.0,0.0,0.0,0.0,0.0,0.0,0.0,0.0,0.0,0.0,0.0,0.0,0.0,0.0,0.0,0.0,0.0,0.0,0.0,0.0,0.0,0.0,0.0,0.0,0.0,0.0,0.0,0.0,0.0,0.0,0.0,0.0583,0.0548,0.0566,0.0615,0.0589,0.0,0.0,0.0,0.0,0.0,0.0,0.0,0.0,0.0,0.0,0.0,0.0,0.0,0.0,0.0,0.0,0.0,0.0,0.0,0.0,0.0,0.0,0.0,0.0,0.0,0.0,0.0,0.0,0.0,0.0,0.0,0.0,0.0,0.0,0.0,0.0,0.0,0.0,0.0,0.0,0.0,0.0,0.0,0.0,0.0,0.0,0.0,0.0,0.0,0.0,0.0,0.0,0.0,0.0,0.0,0.0,0.0,0.0,0.0,0.0,0.0,0.0,0.0,0.0,0.0,0.0,0.0,0.0,0.0,0.0,0.0,0.0,0.0,0.0,0.0,0.0,0.0,0.0,0.0,0.0,0.0,0.0,0.0,0.0,0.0,0.0,0.0,0.0,0.0,0.0,0.0,0.0,0.0,0.0,0.0,0.0,0.0,0.0,0.0,0.0,0.0,0.0,0.0,0.0,0.0,0.0,0.0,0.0,0.0,0.0,0.0,0.0,0.059,0.0611,0.0686,0.0,0.0,0.0,0.0,0.0,0.0,0.0,0.0,0.0,0.0,0.0,0.0,0.0,0.0,0.0,0.0,0.0,0.0,0.0,0.0,0.0,0.0,0.0,0.0,0.0,0.0,0.0,0.0,0.0,0.0,0.0,0.0,0.0,0.0,0.0,0.0,0.0,0.0,0.0,0.0,0.0,0.0,0.0,0.0,0.0,0.0,0.0,0.0,0.0,0.0,0.0,0.0,0.0,0.0,0.0,0.0,0.0,0.0,0.0,0.0,0.0,0.0,0.0,0.0,0.0,0.0,0.0,0.0,0.0,0.0,0.0,0.0,0.0,0.0,0.0,0.0,0.0,0.0,0.0,0.0,0.0,0.0,0.0,0.0,0.0,0.0,0.0,0.0,0.0,0.0,0.0,0.0,0.0,0.0,0.0,0.0,0.0,0.0,0.0,0.0,0.0,0.0,0.0,0.0,0.0,0.0,0.0,0.0,0.0,0.0,0.0677,0.0794,0.0787,0.0,0.0694,0.0,0.0,0.0,0.0,0.0,0.0,0.0,0.0,0.0,0.0,0.0,0.0,0.0,0.0,0.0,0.0,0.0,0.0,0.0,0.0,0.0,0.0,0.0,0.0,0.0,0.0,0.0,0.0,0.0,0.0,0.0,0.0,0.0,0.0,0.0,0.0,0.0,0.0,0.0,0.0,0.0,0.0,0.0,0.0,0.0,0.0,0.0,0.0,0.0,0.0,0.0,0.0,0.0,0.0,0.0,0.0,0.0,0.0,0.0,0.0,0.0,0.0,0.0,0.0,0.0,0.0,0.0,0.0,0.0,0.0,0.0,0.0,0.0,0.0,0.0,0.0,0.0,0.0,0.0,0.0,0.0,0.0,0.0,0.0,0.0,0.0,0.0,0.0,0.0,0.0,0.0,0.0,0.0,0.0,0.0,0.0,0.0,0.0,0.0,0.0,0.0,0.0,0.0,0.0,0.0,0.0,0.0,0.0,0.0,0.0,0.066,0.0755,0.0792,0.0744,0.0,0.0,0.0,0.0,0.0,0.0,0.0,0.0,0.0,0.0,0.0,0.0,0.0,0.0,0.0,0.0,0.0,0.0,0.0,0.0,0.0,0.0,0.0,0.0,0.0,0.0,0.0,0.0,0.0,0.0,0.0,0.0,0.0,0.0,0.0,0.0,0.0,0.0,0.0,0.0,0.0,0.0,0.0,0.0,0.0,0.0,0.0,0.0,0.0,0.0,0.0,0.0,0.0,0.0,0.0,0.0,0.0,0.0,0.0,0.0,0.0,0.0,0.0,0.0,0.0,0.0,0.0,0.0,0.0,0.0,0.0,0.0,0.0,0.0,0.0,0.0,0.0,0.0,0.0,0.0,0.0,0.0,0.0,0.0,0.0,0.0,0.0,0.0,0.0,0.0,0.0,0.0,0.0,0.0,0.0,0.0,0.0,0.0,0.0,0.0,0.0,0.0,0.0,0.0,0.0,0.0,0.0,0.0,0.0,0.0,0.0641,0.0716,0.0742,0.0779,0.072,0.0656,0.0,0.0,0.0,0.0,0.0,0.0,0.0,0.0,0.0,0.0,0.0,0.0,0.0,0.0,0.0,0.0,0.0,0.0,0.0,0.0,0.0,0.0,0.0,0.0,0.0,0.0,0.0,0.0,0.0,0.0,0.0,0.0,0.0,0.0,0.0,0.0,0.0,0.0,0.0,0.0,0.0,0.0,0.0,0.0,0.0,0.0,0.0,0.0,0.0,0.0,0.0,0.0,0.0,0.0,0.0,0.0,0.0,0.0,0.0,0.0,0.0,0.0,0.0,0.0,0.0,0.0,0.0,0.0,0.0,0.0,0.0,0.0,0.0,0.0,0.0,0.0,0.0,0.0,0.0,0.0,0.0,0.0,0.0,0.0,0.0,0.0,0.0,0.0,0.0,0.0,0.0,0.0,0.0,0.0,0.0,0.0,0.0,0.0,0.0,0.0,0.0,0.0,0.0,0.0,0.0,0.0,0.0,0.0,0.0789,0.0673,0.0673,0.0803,0.0735,0.0719,0.0,0.0,0.0,0.0,0.0,0.0,0.0,0.0,0.0,0.0,0.0,0.0,0.0,0.0,0.0,0.0,0.0,0.0,0.0,0.0,0.0,0.0,0.0,0.0,0.0,0.0,0.0,0.0,0.0,0.0,0.0,0.0,0.0,0.0,0.0,0.0,0.0,0.0,0.0,0.0,0.0,0.0,0.0,0.0,0.0,0.0,0.0,0.0,0.0,0.0,0.0,0.0,0.0,0.0,0.0,0.0,0.0,0.0,0.0,0.0,0.0,0.0,0.0,0.0,0.0,0.0,0.0,0.0,0.0,0.0,0.0,0.0,0.0,0.0,0.0,0.0,0.0,0.0,0.0,0.0,0.0,0.0,0.0,0.0,0.0,0.0,0.0,0.0,0.0,0.0,0.0,0.0,0.0,0.0,0.0,0.0,0.0,0.0,0.0,0.0,0.0,0.0,0.0,0.0,0.0,0.0,0.0,0.0,0.0,0.0684,0.0654,0.0692,0.0808,0.0754,0.073,0.0,0.0,0.0,0.0,0.0,0.0,0.0,0.0,0.0,0.0,0.0,0.0,0.0,0.0,0.0,0.0,0.0,0.0,0.0,0.0,0.0,0.0,0.0,0.0,0.0,0.0,0.0,0.0,0.0,0.0,0.0,0.0,0.0,0.0,0.0,0.0,0.0,0.0,0.0,0.0,0.0,0.0,0.0,0.0,0.0,0.0,0.0,0.0,0.0,0.0,0.0,0.0,0.0,0.0,0.0,0.0,0.0,0.0,0.0,0.0,0.0,0.0,0.0,0.0,0.0,0.0,0.0,0.0,0.0,0.0,0.0,0.0,0.0,0.0,0.0,0.0,0.0,0.0,0.0,0.0,0.0,0.0,0.0,0.0,0.0,0.0,0.0,0.0,0.0,0.0,0.0,0.0,0.0,0.0,0.0,0.0,0.0,0.0,0.0,0.0,0.0,0.0,0.0,0.0,0.0,0.0,0.0,0.0,0.0,0.0681,0.0,0.0904,0.0809,0.0943,0.0901,0.0,0.0,0.0,0.0,0.0,0.0,0.0,0.0,0.0,0.0,0.0,0.0,0.0,0.0,0.0,0.0,0.0,0.0,0.0,0.0,0.0,0.0,0.0,0.0,0.0,0.0,0.0,0.0,0.0,0.0,0.0,0.0,0.0,0.0,0.0,0.0,0.0,0.0,0.0,0.0,0.0,0.0,0.0,0.0,0.0,0.0,0.0,0.0,0.0,0.0,0.0,0.0,0.0,0.0,0.0,0.0,0.0,0.0,0.0,0.0,0.0,0.0,0.0,0.0,0.0,0.0,0.0,0.0,0.0,0.0,0.0,0.0,0.0,0.0,0.0,0.0,0.0,0.0,0.0,0.0,0.0,0.0,0.0,0.0,0.0,0.0,0.0,0.0,0.0,0.0,0.0,0.0,0.0,0.0,0.0,0.0,0.0,0.0,0.0,0.0,0.0,0.0,0.0,0.0,0.0,0.0,0.0,0.0,0.1003,0.085,0.1282,0.1335,0.0863,0.1244,0.1166,0.0,0.0,0.0,0.0,0.0,0.0,0.0,0.0,0.0,0.0,0.0,0.0,0.0,0.0,0.0,0.0,0.0,0.0,0.0,0.0,0.0,0.0,0.0,0.0,0.0,0.0,0.0,0.0,0.0,0.0,0.0,0.0,0.0,0.0,0.0,0.0,0.0,0.0,0.0,0.0,0.0,0.0,0.0,0.0,0.0,0.0,0.0,0.0,0.0,0.0,0.0,0.0,0.0,0.0,0.0,0.0,0.0,0.0,0.0,0.0,0.0,0.0,0.0,0.0,0.0,0.0,0.0,0.0,0.0,0.0,0.0,0.0,0.0,0.0,0.0,0.0,0.0,0.0,0.0,0.0,0.0,0.0,0.0,0.0,0.0,0.0,0.0,0.0,0.0,0.0,0.0,0.0,0.0,0.0,0.0,0.0,0.0,0.0,0.0,0.0,0.0,0.0,0.0,0.0,0.0,0.0,0.0,0.0,0.0,0.1869,0.2063,0.2253,0.2356,0.2034,0.1932,0.0,0.0,0.0,0.0,0.0,0.0,0.0,0.0,0.0,0.0,0.0,0.0,0.0,0.0,0.0,0.0,0.0,0.0,0.0,0.0,0.0,0.0,0.0,0.0,0.0,0.0,0.0,0.0,0.0,0.0,0.0,0.0,0.0,0.0,0.0,0.0,0.0,0.0,0.0,0.0,0.0,0.0,0.0,0.0,0.0,0.0,0.0,0.0,0.0,0.0,0.0,0.0,0.0,0.0,0.0,0.0,0.0,0.0,0.0,0.0,0.0,0.0,0.0,0.0,0.0,0.0,0.0,0.0,0.0,0.0,0.0,0.0,0.0,0.0,0.0,0.0,0.0,0.0,0.0,0.0,0.0,0.0,0.0,0.0,0.0,0.0,0.0,0.0,0.0,0.0,0.0,0.0,0.0,0.0,0.0,0.0,0.0,0.0,0.0,0.0,0.0,0.0,0.0,0.0,0.0,0.0,0.0,0.0,0.0,0.3142,0.2942,0.2863,0.2995,0.2756,0.2623,0.2587,0.0,0.0,0.0,0.0,0.0,0.0,0.0,0.0,0.0,0.0,0.0,0.0,0.0,0.0,0.0,0.0,0.0,0.0,0.0,0.0,0.0,0.0,0.0,0.0,0.0,0.0,0.0,0.0,0.0,0.0,0.0,0.0,0.0,0.0,0.0,0.0,0.0,0.0,0.0,0.0,0.0,0.0,0.0,0.0,0.0,0.0,0.0,0.0,0.0,0.0,0.0,0.0,0.0,0.0,0.0,0.0,0.0,0.0,0.0,0.0,0.0,0.0,0.0,0.0,0.0,0.0,0.0,0.0,0.0,0.0,0.0,0.0,0.0,0.0,0.0,0.0,0.0,0.0,0.0,0.0,0.0,0.0,0.0,0.0,0.0,0.0,0.0,0.0,0.0,0.0,0.0,0.0,0.0,0.0,0.0,0.0,0.0,0.0,0.0,0.0,0.0,0.0,0.0,0.0,0.0,0.0,0.0,0.0,0.4704,0.3883,0.3302,0.2976,0.3368,0.3223,0.0,0.0,0.0,0.0,0.0,0.0,0.0,0.0,0.0,0.0,0.0,0.0,0.0,0.0,0.0,0.0,0.0,0.0,0.0,0.0,0.0,0.0,0.0,0.0,0.0,0.0,0.0,0.0,0.0,0.0,0.0,0.0,0.0,0.0,0.0,0.0,0.0,0.0,0.0,0.0,0.0,0.0,0.0,0.0,0.0,0.0,0.0,0.0,0.0,0.0,0.0,0.0,0.0,0.0,0.0,0.0,0.0,0.0,0.0,0.0,0.0,0.0,0.0,0.0,0.0,0.0,0.0,0.0,0.0,0.0,0.0,0.0,0.0,0.0,0.0,0.0,0.0,0.0,0.0,0.0,0.0,0.0,0.0,0.0,0.0,0.0,0.0,0.0,0.0,0.0,0.0,0.0,0.0,0.0,0.0,0.0,0.0,0.0,0.0,0.0,0.0,0.0,0.0,0.0,0.0,0.0,0.0,0.0,0.0,0.4857,0.4942,0.4939,0.4893,0.4541,0.4204,0.0,0.0,0.0,0.0,0.0,0.0,0.0,0.0,0.0,0.0,0.0,0.0,0.0,0.0,0.0,0.0,0.0,0.0,0.0,0.0,0.0,0.0,0.0,0.0,0.0,0.0,0.0,0.0,0.0,0.0,0.0,0.0,0.0,0.0,0.0,0.0,0.0,0.0,0.0,0.0,0.0,0.0,0.0,0.0,0.0,0.0,0.0,0.0,0.0,0.0,0.0,0.0,0.0,0.0,0.0,0.0,0.0,0.0,0.0,0.0,0.0,0.0,0.0,0.0,0.0,0.0,0.0,0.0,0.0,0.0,0.0,0.0,0.0,0.0,0.0,0.0,0.0,0.0,0.0,0.0,0.0,0.0,0.0,0.0,0.0,0.0,0.0,0.0,0.0,0.0,0.0,0.0,0.0,0.0,0.0,0.0,0.0,0.0,0.0,0.0,0.0,0.0,0.0,0.0,0.0,0.0,0.0,0.0,0.4556,0.5284,0.5503,0.5696,0.5874,0.5462,0.4958,0.0,0.0,0.0,0.0,0.0,0.0,0.0,0.0,0.0,0.0,0.0,0.0,0.0,0.0,0.0,0.0,0.0,0.0,0.0,0.0,0.0,0.0,0.0,0.0,0.0,0.0,0.0,0.0,0.0,0.0,0.0,0.0,0.0,0.0,0.0,0.0,0.0,0.0,0.0,0.0,0.0,0.0,0.0,0.0,0.0,0.0,0.0,0.0,0.0,0.0,0.0,0.0,0.0,0.0,0.0,0.0,0.0,0.0,0.0,0.0,0.0,0.0,0.0,0.0,0.0,0.0,0.0,0.0,0.0,0.0,0.0,0.0,0.0,0.0,0.0,0.0,0.0,0.0,0.0,0.0,0.0,0.0,0.0,0.0,0.0,0.0,0.0,0.0,0.0,0.0,0.0,0.0,0.0,0.0,0.0,0.0,0.0,0.0,0.0,0.0,0.0,0.0,0.0,0.0,0.0,0.0,0.0,0.0,0.4446,0.5646,0.5683,0.584,0.6362,0.6194,0.549,0.0,0.0,0.0,0.0,0.0,0.0,0.0,0.0,0.0,0.0,0.0,0.0,0.0,0.0,0.0,0.0,0.0,0.0,0.0,0.0,0.0,0.0,0.0,0.0,0.0,0.0,0.0,0.0,0.0,0.0,0.0,0.0,0.0,0.0,0.0,0.0,0.0,0.0,0.0,0.0,0.0,0.0,0.0,0.0,0.0,0.0,0.0,0.0,0.0,0.0,0.0,0.0,0.0,0.0,0.0,0.0,0.0,0.0,0.0,0.0,0.0,0.0,0.0,0.0,0.0,0.0,0.0,0.0,0.0,0.0,0.0,0.0,0.0,0.0,0.0,0.0,0.0,0.0,0.0,0.0,0.0,0.0,0.0,0.0,0.0,0.0,0.0,0.0,0.0,0.0,0.0,0.0,0.0,0.0,0.0,0.0,0.0,0.0,0.0,0.0,0.0,0.0,0.0,0.0,0.0,0.0,0.0,0.0,0.5029,0.4928,0.6018,0.6652,0.6679,0.6248,0.5524,0.0,0.0,0.0,0.0,0.0,0.0,0.0,0.0,0.0,0.0,0.0,0.0,0.0,0.0,0.0,0.0,0.0,0.0,0.0,0.0,0.0,0.0,0.0,0.0,0.0,0.0,0.0,0.0,0.0,0.0,0.0,0.0,0.0,0.0,0.0,0.0,0.0,0.0,0.0,0.0,0.0,0.0,0.0,0.0,0.0,0.0,0.0,0.0,0.0,0.0,0.0,0.0,0.0,0.0,0.0,0.0,0.0,0.0,0.0,0.0,0.0,0.0,0.0,0.0,0.0,0.0,0.0,0.0,0.0,0.0,0.0,0.0,0.0,0.0,0.0,0.0,0.0,0.0,0.0,0.0,0.0,0.0,0.0,0.0,0.0,0.0,0.0,0.0,0.0,0.0,0.0,0.0,0.0,0.0,0.0,0.0,0.0,0.0,0.0,0.0,0.0,0.0,0.0,0.0,0.0,0.0,0.0,0.0,0.5256,0.4966,0.6233,0.6901,0.6901,0.6738,0.6133,0.0,0.0,0.0,0.0,0.0,0.0,0.0,0.0,0.0,0.0,0.0,0.0,0.0,0.0,0.0,0.0,0.0,0.0,0.0,0.0,0.0,0.0,0.0,0.0,0.0,0.0,0.0,0.0,0.0,0.0,0.0,0.0,0.0,0.0,0.0,0.0,0.0,0.0,0.0,0.0,0.0,0.0,0.0,0.0,0.0,0.0,0.0,0.0,0.0,0.0,0.0,0.0,0.0,0.0,0.0,0.0,0.0,0.0,0.0,0.0,0.0,0.0,0.0,0.0,0.0,0.0,0.0,0.0,0.0,0.0,0.0,0.0,0.0,0.0,0.0,0.0,0.0,0.0,0.0,0.0,0.0,0.0,0.0,0.0,0.0,0.0,0.0,0.0,0.0,0.0,0.0,0.0,0.0,0.0,0.0,0.0,0.0,0.0,0.0,0.0,0.0,0.0,0.0,0.0,0.0,0.0,0.0,0.4769,0.5364,0.5245,0.6369,0.7048,0.7026,0.7253,0.666,0.5207,0.0,0.0,0.0,0.0,0.0,0.0,0.0,0.0,0.0,0.0,0.0,0.0,0.0,0.0,0.0,0.0,0.0,0.0,0.0,0.0,0.0,0.0,0.0,0.0,0.0,0.0,0.0,0.0,0.0,0.0,0.0,0.0,0.0,0.0,0.0,0.0,0.0,0.0,-0.249,-0.0973,0.0,0.0,0.0,0.0,0.0,0.0,0.0,0.0,0.0468,0.0,0.0,0.0,0.0,0.0,0.0,0.0,0.0,0.0,0.0,0.0,0.0,0.0,0.0,0.0,0.0,0.0,0.0,0.0,0.0,0.0,0.0,0.0,0.0,0.0,0.0,0.0,0.0,0.0,0.0,0.0,0.0,0.0,0.0,0.0,0.0,0.0,0.0,0.0,0.0,0.0,0.0,0.0,0.0,0.0,0.0,0.0,0.0,0.0,0.0,0.0,0.0,0.0,0.0,0.0,0.0,0.3971,0.4928,0.5435,0.5405,0.6718,0.7329,0.7285,0.7111,0.6639,0.5907,0.0,0.0,0.0,0.0,0.0,0.0,0.0,0.0,0.0,0.0,0.0,0.0,0.0,0.0,0.0,0.0,0.0,0.0,0.0,0.0,0.0,0.0,0.0,0.0,0.0,0.0,0.0,0.0,0.0,0.0,0.0,0.0,0.0,0.0,0.0,0.0,0.0,0.0,0.0,-0.0802,0.0645,0.0,0.0,0.0,0.0,0.0,0.0,0.0,0.0,0.0581,0.0,0.0,0.0,0.0,0.0,0.0,0.0,0.0,0.0,0.0,0.0,0.0,0.0,0.0,0.0,0.0,0.0,0.0,0.0,0.0,0.0,0.0,0.0,0.0,0.0,0.0,0.0,0.0,0.0,0.0,0.0,0.0,0.0,0.0,0.0,0.0,0.0,0.0,0.0,0.0,0.0,0.0,0.0,0.0,0.0,0.0,0.0,0.0,0.0,0.0,0.0,0.0,0.0,0.0,0.0,0.3559,0.4587,0.5249,0.5502,0.6781,0.7609,0.793,0.7475,0.7125,0.0,0.0,0.0,0.0,0.0,0.0,0.0,0.0,0.0,0.0,0.0,0.0,0.0,0.0,0.0,0.0,0.0,0.0,0.0,0.0,0.0,0.0,0.0,0.0,0.0,0.0,0.0,0.0,0.0,0.0,0.0,0.0,0.0,0.0,0.0,0.0,0.0,0.0,0.0,0.0,-0.04,0.083,0.0,0.0,0.0,0.0,0.0,0.0,0.0,0.0903,0.0779,0.0,0.0,0.0,0.0,0.0,0.0,0.0,0.0,0.0,0.0,0.0,0.0,0.0,0.0,0.0,0.0,0.0,0.0,0.0,0.0,0.0,0.0,0.0,0.0,0.0,0.0,0.0,0.0,0.0,0.0,0.0,0.0,0.0,0.0,0.0,0.0,0.0,0.0,0.0,0.0,0.0,0.0,0.0,0.0,0.0,0.0,0.0,0.0,0.0,0.0,0.0,0.0,0.0,0.0,0.0,0.3283,0.4343,0.5176,0.5838,0.6959,0.783,0.8574,0.7834,0.7464,0.0,0.0,0.0,0.0,0.0,0.0,0.0,0.0,0.0,0.0,0.0,0.0,0.0,0.0,0.0,0.0,0.0,0.0,0.0,0.0,0.0,0.0,0.0,0.0,0.0,0.0,0.0,0.0,0.0,0.0,0.0,0.0,0.0,0.0,0.0,0.0,0.0,0.0,0.0,0.0,0.0,0.0829,-0.0327,0.0274,0.0,0.0,0.0,0.0,0.0918,0.0963,0.0,0.0,0.0,0.0,0.0,0.0,0.0,0.0,0.0,0.0,0.0,0.0,0.0,0.0,0.0,0.0,0.0,0.0,0.0,0.0,0.0,0.0,0.0,0.0,0.0,0.0,0.0,0.0,0.0,0.0,0.0,0.0,0.0,0.0,0.0,0.0,0.0,0.0,0.0,0.0,0.0,0.0,0.0,0.0,0.0,0.0,0.0,0.0,0.0,0.0,0.0,0.0,0.0,0.0,0.0,0.0,0.4009,0.4522,0.5478,0.6829,0.7366,0.7962,0.8828,0.7697,0.725,0.0,0.0,0.0,0.0,0.0,0.0,0.0,0.0,0.0,0.0,0.0,0.0,0.0,0.0,0.0,0.0,0.0,0.0,0.0,0.0,0.0,0.0,0.0,0.0,0.0,0.0,0.0,0.0,0.0,0.0,0.0,0.0,0.0,0.0,0.0,0.0,0.0,0.0,0.0,0.0,0.0,0.0868,-0.0117,0.0417,0.0833,0.0,0.0,0.1074,0.0994,0.1102,0.0,0.0,0.0,0.0,0.0,0.0,0.0,0.0,0.0,0.0,0.0,0.0,0.0,0.0,0.0,0.0,0.0,0.0,0.0,0.0,0.0,0.0,0.0,0.0,0.0,0.0,0.0,0.0,0.0,0.0,0.0,0.0,0.0,0.0,0.0,0.0,0.0,0.0,0.0,0.0,0.0,0.0,0.0,0.0,0.0,0.0,0.0,0.0,0.0,0.0,0.0,0.0,0.0,0.0,0.0,0.2965,0.3778,0.404,0.5066,0.6877,0.73,0.7992,0.912,0.7685,0.7315,0.0,0.0,0.0,0.0,0.0,0.0,0.0,0.0,0.0,0.0,0.0,0.0,0.0,0.0,0.0,0.0,0.0,0.0,0.0,0.0,0.0,0.0,0.0,0.0,0.0,0.0,0.0,0.0,0.0,0.0,0.0,0.0,0.0,0.0,0.0,0.0,0.0,0.0,0.0,0.0,0.0,0.0,0.0498,0.0775,0.0,0.0,0.0,0.1172,0.1109,0.0,0.0,0.0,0.0,0.0,0.0,0.0,0.0,0.0,0.0,0.0,0.0,0.0,0.0,0.0,0.0,0.0,0.0,0.0,0.0,0.0,0.0,0.0,0.0,0.0,0.0,0.0,0.0,0.0,0.0,0.0,0.0,0.0,0.0,0.0,0.0,0.0,0.0,0.0,0.0,0.0,0.0,0.0,0.0,0.0,0.0,0.0,0.0,0.0,0.0,0.0,0.0,0.0,0.0,0.0,0.0,0.0,0.3503,0.3732,0.4847,0.6784,0.74,0.8196,0.9357,0.7996,0.0,0.0,0.0,0.0,0.0,0.0,0.0,0.0,0.0,0.0,0.0,0.0,0.0,0.0,0.0,0.0,0.0,0.0,0.0,0.0,0.0,0.0,0.0,0.0,0.0,0.0,0.0,-0.0268,0.0,0.0,0.0,0.0,0.0,0.0,0.0,0.0,0.0,0.0,0.0,0.0,0.0,0.0,0.0265,0.0991,0.1321,0.136,0.0,0.0,0.1488,0.1203,0.1147,0.1251,0.0,0.0,0.0,0.0,0.0,0.0,0.0,0.0,0.0,0.0,0.0,0.0,0.0,0.0,0.0,0.0,0.0,0.0,0.0,0.0,0.0,0.0,0.0,0.0,0.0,0.0,0.0,0.0,0.0,0.0,0.0,0.0,0.0,0.0,0.0,0.0,0.0,0.0,0.0,0.0,0.0,0.0,0.0,0.0,0.0,0.0,0.0,0.0,0.0,0.0,0.0,0.0,0.0,0.0,0.0,0.3542,0.3761,0.4925,0.7016,0.7836,0.8686,0.9599,0.8832,0.8366,0.0,0.0,0.0,0.0,0.0,0.0,0.0,0.0,0.0,0.0,0.0,0.0,0.0,0.0,0.0,0.0,0.0,0.0,0.0,0.0,0.0,0.0,0.0,0.0,0.0,0.0,0.0,0.0,0.0,0.0,0.0,0.0,0.0,0.0,0.0,0.0,0.0,0.0,0.0,0.0,0.0,0.0573,0.1189,0.1933,0.2085,0.0,0.0,0.2198,0.1323,0.1348,0.156,0.1883,0.0,0.0,0.0,0.0,0.0,0.0,0.0,0.0,0.0,0.0,0.0,0.0,0.0,0.0,0.0,0.0,0.0,0.0,0.0,0.0,0.0,0.0,0.0,0.0,0.0,0.0,0.0,0.0,0.0,0.0,0.0,0.0,0.0,0.0,0.0,0.0,0.0,0.0,0.0,0.0,0.0,0.0,0.0,0.0,0.0,0.0,0.0,0.0,0.0,0.0,0.0,0.0,0.0,0.2885,0.3618,0.3916,0.5053,0.695,0.7998,0.8779,0.9259,0.8948,0.8589,0.0,0.0,0.0,0.0,0.0,0.0,0.0,0.0,0.0,0.0,0.0,0.0,0.0,0.0,0.0,0.0,0.0,0.0,0.0,0.0,0.0,0.0,0.0,0.0,0.0,0.0,0.0,0.0,-0.0241,-0.0197,-0.0246,0.0,0.0,0.0,0.0,0.0,0.0,0.0,0.0,0.0,0.0,-0.0074,0.1096,0.1631,0.0,0.0,0.1592,0.2014,0.2368,0.2166,0.236,0.348,0.2586,0.0,0.0,0.0,0.0,0.0,0.0,0.0,0.0,0.0,0.0,0.0,0.0,0.0,0.0,0.0,0.0,0.0,0.0,0.0,0.0,0.0,0.0,0.0,0.0,0.0,0.0,0.0,0.0,0.0,0.0,0.0,0.0,0.0,0.0,0.0,0.0,0.0,0.0,0.0,0.0,0.0,0.0,0.0,0.0,0.0,0.0,0.0,0.0,0.0,0.0,0.0,0.0,0.3113,0.3664,0.4193,0.524,0.6932,0.8247,0.9015,0.8996,0.9285,0.9016,0.0,0.0,0.0,0.0,0.0,0.0,0.0,0.0,0.0,0.0,0.0,0.0,0.0,0.0,0.0,0.0,0.0,0.0,0.0,0.0,0.0,0.0,0.0,0.0,0.0,0.0,0.0,0.0,0.0351,0.0463,0.0469,0.0,0.0,0.0,0.0,0.0,0.0,0.0,0.0,0.0,0.0,-0.0152,0.1812,0.195,0.1977,0.2063,0.232,0.2734,0.3286,0.3125,0.3219,0.4099,0.0,0.0,0.0,0.0,0.0,0.0,0.0,0.0,0.0,0.0,0.0,0.0,0.0,0.0,0.0,0.0,0.0,0.0,0.0,0.0,0.0,0.0,0.0,0.0,0.0,0.0,0.0,0.0,0.0,0.0,0.4019,0.0,0.0,0.0,0.0,0.0,0.0,0.0,0.0,0.0,0.0,0.0,0.0,0.0,0.0,0.0,0.0,0.0,0.0,0.0,0.0,0.0,0.0,0.3786,0.3837,0.4597,0.5647,0.7081,0.8726,0.94,0.9066,0.9999,1.0021,0.8798,0.0,0.0,0.0,0.0,0.0,0.0,0.0,0.0,0.0,0.0,0.0,0.0,0.0,0.0,0.0,0.0,0.0,0.0,0.0,0.0,0.0,0.0,0.0,0.0,0.0,0.0,0.0757,0.0834,0.0863,0.0,0.0,0.0,0.0,0.0,0.0,0.0,0.0,0.0,0.0,-0.0866,0.077,0.3394,0.3395,0.328,0.3617,0.4369,0.4714,0.3882,0.3975,0.3934,0.0,0.0,0.0,0.0,0.0,0.0,0.0,0.0,0.0,0.0,0.0,0.0,0.0,0.0,0.0,0.0,0.0,0.0,0.0,0.0,0.0,0.0,0.0,0.0,0.0,0.0,0.0,0.416,0.3956,0.0,0.0,0.0,0.0,0.0,0.0,0.0,0.0,0.0,0.0,0.0,0.5133,0.5188,0.0,0.0,0.0,0.0,0.0,0.0,0.0,0.0,0.0,0.0,0.0,0.0,0.3565,0.4498,0.4707,0.5597,0.7103,0.9058,0.9903,0.9371,1.0331,1.0153,0.8745,0.0,0.0,0.0,0.0,0.0,0.0,0.0,0.0,0.0,0.0,0.0,0.0,0.0,0.0,0.0,0.0,0.0,0.0,0.0,0.0,0.0,0.0,0.0,0.0,0.0,0.0845,0.0,0.0,0.0,0.0,0.0,0.0,0.0,0.0,0.0,0.0,0.0,-0.0193,0.0206,-0.0,0.0631,0.297,0.4552,0.4922,0.0,0.0,0.0,0.0,0.0,0.0,0.0,0.0,0.0,0.0,0.0,0.0,0.0,0.0,0.1201,0.0905,0.0965,0.0991,0.0778,0.0,0.0,0.0,0.0,0.0,0.0,0.0,0.0,0.0,0.0,0.0,0.0,0.0,0.0,0.0,0.0,0.4621,0.0,0.0,0.0,0.0,0.0,0.0,0.0,0.0,0.4872,0.5151,0.5457,0.5614,0.5723,0.0,0.6051,0.5943,0.0,0.0,0.0,0.0,0.0,0.0,0.0,0.0,0.4117,0.485,0.5333,0.6179,0.758,0.9402,1.018,0.993,1.0516,1.0286,0.9051,0.8252,0.7571,0.0,0.0,0.0,0.0,0.0,0.0,0.0,0.0,0.0,0.0,0.0,0.0,0.0,0.0,0.0,0.0,0.0,0.0,0.0,0.0,0.0,0.0,0.0,0.0896,0.0,0.0,0.0,0.0,0.0,0.0,0.0,0.0,0.0,0.0432,0.0383,0.0608,0.1246,0.069,0.0955,0.297,0.0,0.0,0.0,0.0,0.0,0.0,0.0,0.6275,0.657,0.5738,0.4608,0.3225,0.2056,0.1399,0.1378,0.0,0.0,0.1208,0.1216,0.1327,0.123,0.1037,0.1364,0.2885,0.3013,0.2901,0.0,0.0,0.0,0.0,0.0,0.0,0.0,0.0,0.5214,0.5846,0.0,0.525,0.0,0.0,0.0,0.0,0.0,0.0,0.0,0.0,0.4797,0.4909,0.5547,0.5971,0.6028,0.5963,0.6765,0.6805,0.6164,0.5329,0.0,0.0,0.0,0.0,0.0,0.0,0.5235,0.5029,0.6191,0.7423,0.8474,0.9592,1.0351,1.0731,1.0644,1.0327,0.976,0.9348,0.8823,0.8244,0.7446,0.0,0.0,0.0,0.0,0.0,0.0,0.0,0.0,0.0,0.0,0.0,0.0,0.0,0.0,0.0,0.0,0.0,0.0,0.0,0.0,0.0945,0.0,0.0,0.0,0.0,0.0,0.0,0.0,0.0,0.0,0.0,0.1019,0.061,0.0497,0.1199,0.0,0.0,0.0,0.0,0.6641,0.6723,0.6929,0.7001,0.7243,0.7398,0.7154,0.6209,0.0,0.0,0.1837,0.1376,0.1364,0.1358,0.139,0.1394,0.1383,0.1376,0.138,0.1371,0.1836,0.1965,0.1224,0.1868,0.2564,0.7509,0.0,0.0,0.0,0.0,0.653,0.6668,0.6592,0.6592,0.6716,0.6683,0.5894,0.0,0.0,0.0,0.0,0.0,0.0,0.5628,0.5777,0.5884,0.5962,0.6088,0.6574,0.715,0.766,0.7399,0.7261,0.7397,0.6392,0.5682,0.541,0.0,0.0,0.0,0.0,0.5026,0.5786,0.6227,0.7222,0.8853,0.9806,1.0738,1.1527,1.1286,1.0909,1.0334,0.9997,0.9413,0.8504,0.7886,0.0,0.0,0.0,0.0,0.0,0.0,0.0,0.0,0.0,0.0,0.0,0.0,0.0,0.0,0.0,0.0,0.0,0.0,0.0,0.0945,0.1419,0.1527,0.0,0.0,0.0,0.0,0.0,0.0,0.0,0.0,0.0,0.118,0.1078,0.1068,0.0,0.0,0.1997,0.3951,0.4559,0.4782,0.4969,0.0,0.0,0.0,0.6051,0.6695,0.6963,0.5678,0.4191,0.313,0.2102,0.154,0.1538,0.1547,0.1551,0.1544,0.1477,0.1426,0.1331,0.153,0.1642,0.1461,0.1671,0.1888,0.861,0.7614,0.7512,0.725,0.6961,0.7273,0.7379,0.7356,0.7442,0.7594,0.7863,0.6917,0.6664,0.7074,0.6137,0.0,0.0,0.0,0.6133,0.6148,0.6447,0.678,0.7254,0.7753,0.845,0.9323,0.8648,0.825,0.8286,0.7102,0.641,0.5919,0.0,0.0,0.5238,0.5132,0.5491,0.6301,0.6644,0.7739,0.9522,1.0789,1.1609,1.1992,1.175,1.1323,1.0755,1.0668,1.0213,0.9424,0.8668,0.7626,0.0,0.0,0.0,0.0,0.0,0.0,0.0,0.0,0.0,0.0,0.0,0.1289,0.0,0.0,0.0,0.0,0.1276,0.149,0.1573,0.217,0.0,0.0,0.0,0.0,0.0,0.0,0.0,0.1146,0.1201,0.1275,0.1369,0.1361,0.135,0.1276,0.161,0.2854,0.5388,0.0,0.4511,0.5175,0.5087,0.5108,0.5686,0.6356,0.6872,0.6935,0.5499,0.3953,0.2876,0.2105,0.1616,0.1617,0.1617,0.1617,0.1617,0.1555,0.1507,0.1414,0.144,0.1463,0.1562,0.1601,0.1635,0.9478,0.9218,0.9147,0.8526,0.7481,0.7877,0.8016,0.7793,0.7967,0.8726,0.9817,0.8171,0.8094,0.9043,0.7451,0.0,0.6103,0.6264,0.6423,0.6417,0.661,0.7396,0.8658,0.9087,0.9765,1.069,1.0216,0.9591,0.8864,0.7791,0.6999,0.6555,0.6009,0.5654,0.5664,0.6129,0.6426,0.6684,0.7285,0.8522,1.0528,1.2031,1.2708,1.2311,1.1997,1.1563,1.1029,1.1223,1.1127,1.067,0.9539,0.8135,0.6531,0.0,0.0,0.0,0.0,0.0,0.0,0.0,0.0,0.0,0.0,0.0,0.0,0.0,0.0,0.0,0.1811,0.0,0.2501,0.3035,0.0,0.0,0.0,0.206,0.1312,0.1201,0.1233,0.1262,0.0,0.0,0.1436,0.0,0.1499,0.1434,0.2308,0.4043,0.7396,0.5935,0.5137,0.648,0.595,0.5913,0.7152,0.7627,0.745,0.6481,0.4926,0.3314,0.2016,0.1615,0.1617,0.1617,0.1617,0.1617,0.1617,0.1611,0.1616,0.1611,0.1613,0.1615,0.1619,0.1641,0.166,0.9985,0.9896,0.9921,0.9395,0.8444,0.8743,0.934,1.0063,1.0159,1.0253,1.0238,0.9381,0.8393,0.7289,0.7258,0.6928,0.6575,0.6894,0.7042,0.6932,0.7184,0.7559,0.8061,0.9255,1.0224,1.0978,1.0504,1.0304,1.0369,0.8438,0.7386,0.7211,0.6709,0.6367,0.6184,0.6433,0.6681,0.6993,0.7567,0.8789,1.0794,1.2308,1.2846,1.2311,1.1804,1.1363,1.1009,1.0842,1.0902,1.1122,0.9653,0.8238,0.6958,0.6761,0.0,0.0,0.0,0.0,0.0,0.0,0.0,0.0,0.0,0.4033,0.2784,0.0,0.2509,0.0,0.3109,0.3209,0.2779,0.4011,0.0,0.0,0.3293,0.2822,0.1422,0.1268,0.1318,0.1325,0.1398,0.1463,0.15,0.1531,0.1561,0.1589,0.2658,0.458,0.7363,0.6154,0.4987,0.5639,0.4743,0.4371,0.6243,0.755,0.7888,0.6337,0.4824,0.3317,0.1817,0.1617,0.1617,0.1617,0.1617,0.1617,0.1617,0.1617,0.1617,0.1617,0.1617,0.1624,0.1646,0.1658,0.1669,1.0233,1.0156,1.0075,0.9705,0.9194,0.9372,1.0031,1.1005,1.1005,1.1162,1.1389,1.0505,0.924,0.7616,0.787,0.7752,0.7357,0.7683,0.7674,0.7513,0.7699,0.8278,0.9345,1.023,1.1394,1.2651,1.2048,1.1673,1.1165,0.9378,0.8166,0.7618,0.7137,0.6934,0.6906,0.6885,0.6987,0.7245,0.8563,1.0134,1.1866,1.2751,1.3046,1.2705,1.187,1.1289,1.0995,1.0451,1.049,1.0948,0.9372,0.7894,0.6796,0.6613,0.6339,0.0,0.0,0.0,0.0,0.0,0.0,0.0,0.0,0.0,0.0,0.0,0.3505,0.0,0.4012,0.4237,0.3988,0.511,0.5554,0.4864,0.4556,0.411,0.3285,0.2523,0.2006,0.2133,0.176,0.1532,0.1562,0.1581,0.1598,0.1614,0.3136,0.5086,0.7324,0.6594,0.5644,0.5853,0.516,0.5231,0.683,0.8131,0.8634,0.7444,0.5427,0.3718,0.2723,0.202,0.1617,0.1617,0.1617,0.1617,0.1617,0.1617,0.1617,0.1617,0.1617,0.1628,0.1656,0.1683,0.1707,1.0584,1.0422,1.0158,0.9977,0.99,1.0058,1.0597,1.1365,1.1565,1.2032,1.2571,1.1426,1.0099,0.8707,0.8707,0.854,0.8147,0.837,0.8359,0.8139,0.8135,0.9224,1.113,1.1384,1.2549,1.4373,1.3801,1.2882,1.1726,1.0084,0.8841,0.8013,0.7483,0.7406,0.767,0.741,0.7354,0.7733,0.9815,1.1594,1.3073,1.3041,1.2975,1.3046,1.1977,1.1216,1.0895,1.0226,0.9897,1.006,0.8802,0.7532,0.6531,0.6222,0.6148,0.0,0.6059,0.0,0.0,0.0,0.0,0.0,0.0,0.0,0.0,0.5176,0.4377,0.4113,0.4857,0.5377,0.5536,0.6131,0.6622,0.6761,0.6107,0.5546,0.5446,0.4011,0.294,0.3137,0.2236,0.1588,0.161,0.1617,0.1617,0.1716,0.3516,0.5603,0.7559,0.7229,0.6506,0.6437,0.6528,0.6728,0.7932,0.8939,0.9347,0.8652,0.6226,0.4221,0.3726,0.2522,0.1617,0.1617,0.1617,0.1617,0.1617,0.1617,0.1617,0.1617,0.1621,0.1635,0.1665,0.1703,0.1744,1.2018,1.1873,1.0983,1.0881,1.1294,1.1326,1.1731,1.2441,1.3318,1.3301,1.2436,1.1357,1.0099,0.8804,0.8901,0.8796,0.8393,0.8509,0.8509,0.8393,0.8478,0.9384,1.0749,1.1776,1.2887,1.3817,1.3124,1.2483,1.1925,0.9828,0.8666,0.8326,0.7993,0.7822,0.7808,0.0,0.0,0.0,1.0005,1.1227,1.2967,1.2176,1.2011,1.239,1.1563,0.0,1.0321,1.0398,0.9623,0.7865,0.8179,0.0,0.0,0.0,0.0,0.0,0.0,0.0,0.0,0.0,0.0,0.0,0.6173,0.619,0.6261,0.6211,0.572,0.4899,0.6097,0.686,0.6337,0.7006,0.7446,0.7275,0.7179,0.676,0.5604,0.4102,0.3191,0.3113,0.2282,0.161,0.1615,0.1617,0.1615,0.1712,0.3621,0.5937,0.8375,0.7949,0.7232,0.683,0.7033,0.7335,0.7939,0.8931,0.9232,0.7922,0.5914,0.4314,0.3721,0.2521,0.1617,0.1617,0.1617,0.1617,0.1617,0.1617,0.1617,0.1617,0.1636,0.1662,0.169,0.1705,0.1727,1.3315,0.0,1.2486,1.2404,0.0,1.3243,1.3545,1.3688,1.4154,1.3927,1.3317,1.2846,1.1627,0.991,1.011,0.9681,0.8942,0.912,0.9017,0.8934,0.9493,1.0391,1.1437,1.2659,1.3695,1.4545,1.3826,1.3059,1.2272,1.0476,0.9308,0.8646,0.8291,0.8153,0.8146,0.8524,0.94,1.0973,1.0992,1.2053,1.4077,1.3258,1.2775,1.2868,0.0,0.0,0.0,0.0,0.0,0.0,0.0,0.0,0.0,0.0,0.0,0.7488,0.7496,0.7533,0.7462,0.7466,0.735,0.7183,0.7431,0.7461,0.7057,0.7025,0.6823,0.6319,0.7145,0.7508,0.7252,0.76,0.7757,0.7591,0.7588,0.7317,0.6611,0.5468,0.4512,0.3965,0.3006,0.2221,0.1617,0.1617,0.1615,0.171,0.3718,0.6137,0.856,0.8752,0.8333,0.8226,0.7932,0.8035,0.8634,0.9133,0.9426,0.8322,0.6915,0.5515,0.4524,0.3324,0.222,0.1717,0.1617,0.1617,0.1617,0.1617,0.1617,0.1618,0.1629,0.1656,0.1694,0.1716,0.1734,1.4549,1.4305,1.3837,1.3782,1.4071,1.4855,1.5206,1.5029,0.0,0.0,0.0,1.41,1.2926,1.1268,1.0979,1.0409,0.9413,0.9555,0.9641,0.9786,1.0541,1.1592,1.2631,1.3579,1.4528,1.5392,1.4671,1.3709,1.2721,1.1389,1.0052,0.8901,0.8503,0.8409,0.8524,0.8935,1.025,1.2161,1.1834,1.2904,1.5259,1.4361,1.3794,1.3728,1.2625,1.1884,1.159,1.0654,0.9898,0.9238,0.8841,0.8273,0.7534,0.7528,0.7525,0.7508,0.7476,0.7606,0.7923,0.7883,0.7951,0.8126,0.8446,0.8408,0.7935,0.7714,0.7621,0.7867,0.7863,0.7947,0.8109,0.7971,0.7932,0.7959,0.7767,0.7692,0.7654,0.686,0.5736,0.4912,0.3823,0.2823,0.1818,0.1718,0.1715,0.1908,0.3814,0.6431,0.8851,0.9145,0.9034,0.9229,0.873,0.8634,0.9331,0.9529,0.9529,0.9229,0.8021,0.6822,0.5827,0.4225,0.272,0.212,0.1818,0.1617,0.1617,0.1617,0.1617,0.1617,0.1617,0.1631,0.1677,0.1716,0.1742,1.544,1.6145,1.383,1.3935,1.5517,1.5401,1.5781,1.6401,1.5873,1.5159,1.4202,1.3312,1.2339,1.1175,1.0203,0.971,0.9587,0.9616,1.0096,0.0,1.1132,1.22,1.3951,1.4142,1.4816,1.5582,1.4758,1.3709,1.2727,1.1628,1.0471,0.9225,0.911,0.9011,0.9133,0.9137,1.0275,1.2528,1.1552,1.2411,1.5285,1.3736,1.3294,1.3988,1.3205,1.2485,1.2184,1.2025,1.143,1.0426,0.9779,0.9214,0.8815,0.8102,0.7979,0.8532,0.8459,0.8467,0.8649,0.856,0.8491,0.8495,0.8607,0.8595,0.8463,0.8206,0.8222,0.8404,0.8475,0.8491,0.8499,0.852,0.8446,0.8461,0.8135,0.7846,0.7721,0.6938,0.6006,0.5022,0.3823,0.2822,0.1818,0.2018,0.2216,0.2207,0.451,0.7123,0.8829,0.8935,0.8733,0.9034,0.8733,0.8733,0.9232,0.943,0.9529,0.9529,0.8212,0.7415,0.7846,0.492,0.2714,0.282,0.222,0.1718,0.1617,0.1617,0.1617,0.1617,0.1617,0.1724,0.1641,0.1682,0.1731,1.7485,1.7569,1.6315,1.6332,1.7034,1.6593,1.6651,1.6914,1.6493,1.6012,1.5601,1.496,1.4184,1.3303,1.2683,1.1746,1.0662,1.125,1.1387,1.1272,1.2339,1.342,1.4298,1.4873,1.535,1.5648,1.434,1.3258,1.2651,1.1185,1.0008,0.9244,0.9137,0.9137,0.9236,0.9335,1.0502,1.2635,1.2336,1.3334,1.5718,1.4903,1.454,1.4723,1.4072,1.3494,1.3046,1.3026,1.2286,1.0663,1.0429,0.9787,0.8768,0.848,0.8483,0.8792,0.8844,0.8885,0.8962,0.871,0.8667,0.8852,0.8857,0.8852,0.8857,0.8585,0.8476,0.8568,0.8572,0.8605,0.8694,0.8603,0.8635,0.8644,0.8221,0.7945,0.7825,0.7592,0.6833,0.5832,0.4726,0.3422,0.1814,0.2418,0.3219,0.351,0.6111,0.8524,0.9426,0.9327,0.9126,0.9331,0.9229,0.913,0.9426,0.9529,0.9628,0.9624,0.8817,0.8428,0.8755,0.6431,0.4824,0.3423,0.2723,0.2321,0.1818,0.1617,0.1617,0.1718,0.2322,0.2435,0.1968,0.1712,0.176,1.8885,1.8796,1.8381,1.83,1.8096,1.7575,1.7348,1.7321,1.7034,1.6901,1.6854,1.6335,1.57,1.5154,1.4666,1.3574,1.2269,1.2867,1.2862,1.2309,1.378,1.457,1.4861,1.5641,1.6025,1.5853,1.4278,1.327,1.2734,1.1185,0.9981,0.9465,0.9449,0.9449,0.9449,0.965,1.0712,1.2618,1.3002,1.4148,1.6116,1.6085,1.5844,1.5506,1.5041,1.4509,1.4068,1.3975,1.315,1.1615,1.137,1.0615,0.8979,0.8812,0.8897,0.8946,0.9035,0.9096,0.9096,0.8897,0.8804,0.9092,0.9194,0.9194,0.9169,0.8943,0.8686,0.869,0.8702,0.8755,0.8774,0.875,0.8691,0.856,0.8236,0.801,0.8018,0.8038,0.7637,0.6634,0.5632,0.4121,0.2513,0.2917,0.4321,0.562,0.7918,0.9529,0.9628,0.9624,0.9624,0.9624,0.9624,0.9624,0.9624,0.9628,0.9624,0.9624,0.9331,0.9042,0.8851,0.8354,0.7045,0.463,0.3525,0.2923,0.2119,0.1717,0.1617,0.1718,0.2737,0.3493,0.2976,0.2396,0.2113,1.8461,1.934,1.8275,1.811,1.8741,1.8198,1.7949,1.7923,1.7635,1.7495,1.7344,1.5992,1.5392,1.5077,1.4236,1.3711,1.3405,1.3502,1.3999,1.469,1.501,1.562,1.6394,1.6507,1.6627,1.6407,1.5325,1.4095,1.3137,1.2059,1.1048,1.0219,1.0111,1.0091,1.0099,1.0095,1.1039,1.2966,1.3248,1.432,1.6048,1.6379,1.6438,1.6135,1.5848,1.5579,1.5157,1.4983,1.4721,1.4244,1.3177,1.201,1.0582,0.9473,0.9039,0.9279,0.9177,0.9096,0.91,0.9092,0.9108,0.9096,0.9409,0.9511,0.9507,0.927,0.9051,0.9047,0.9047,0.9031,0.8889,0.9009,0.8821,0.8297,0.8021,0.8014,0.8031,0.8038,0.7736,0.683,0.6132,0.4524,0.2611,0.3519,0.5432,0.7232,0.8634,0.9636,0.9628,0.9624,0.9624,0.9624,0.9624,0.9624,0.9624,0.9624,0.9624,0.9628,0.9541,0.924,0.8733,0.824,0.745,0.5934,0.4528,0.3425,0.2923,0.2321,0.1718,0.2127,0.3071,0.4285,0.4638,0.4049,0.2965,1.9516,1.9723,1.9115,1.8807,1.8843,1.8437,1.831,1.829,1.8176,1.8116,1.8096,1.7427,1.6922,1.6588,1.6003,1.5409,1.4791,1.5409,1.5534,1.5297,1.5796,1.6299,1.6707,1.6707,1.64,1.5702,1.471,1.3572,1.2437,1.1295,1.0577,1.0252,1.0054,0.9998,1.0002,0.9998,1.1069,1.3098,1.3618,1.4847,1.6522,1.6682,1.6501,1.6211,1.6108,1.5858,1.5411,1.5277,1.4754,1.3652,1.3053,1.1935,1.0021,0.9435,0.9184,0.9352,0.9397,0.9409,0.9409,0.9409,0.9409,0.9409,0.9514,0.9614,0.9614,0.9509,0.9409,0.9388,0.9222,0.9133,0.9139,0.9124,0.8914,0.851,0.8188,0.8028,0.8038,0.8038,0.7839,0.7633,0.693,0.5729,0.4219,0.4323,0.5929,0.8035,0.9244,0.9541,0.9628,0.9624,0.9624,0.9624,0.9624,0.9624,0.9624,0.9624,0.9624,0.9628,0.9636,0.9327,0.8517,0.8421,0.7935,0.6634,0.5632,0.4728,0.4225,0.3324,0.2623,0.3048,0.415,0.553,0.5218,0.4289,0.3208,2.0468,2.0033,1.9952,1.9739,1.9246,1.8955,1.8722,1.8591,1.8524,1.8497,1.8497,1.8497,1.8031,1.7401,1.7166,1.6765,1.6449,1.6864,1.6723,1.6072,1.6846,1.7154,1.7088,1.7168,1.6562,1.5431,1.4546,1.3118,1.1677,1.086,1.0432,1.0367,1.0245,1.018,1.0172,1.0099,1.115,1.3185,1.3796,1.4969,1.6647,1.678,1.6614,1.6354,1.6348,1.6109,1.5531,1.5518,1.4935,1.3676,1.3662,1.2335,0.9605,0.9415,0.9429,0.9441,0.9551,0.9604,0.9559,0.96,0.9604,0.9567,0.9592,0.9624,0.9624,0.9624,0.9624,0.96,0.9388,0.9311,0.9401,0.9336,0.9205,0.9015,0.8425,0.8028,0.8038,0.8038,0.8134,0.8329,0.7627,0.6731,0.5927,0.5422,0.5817,0.8326,0.9339,0.964,0.9632,0.9624,0.9624,0.9624,0.9624,0.9624,0.9624,0.9624,0.9624,0.9628,0.9632,0.9327,0.8411,0.852,0.8428,0.7338,0.6736,0.6239,0.5338,0.4535,0.3982,0.4646,0.5793,0.6797,0.6587,0.5105,0.3571,2.0705,2.0657,2.039,2.0227,2.0242,1.9615,1.9151,1.8945,1.8657,1.8524,1.8557,1.8531,1.7798,1.6739,1.6709,1.7277,1.7949,1.7116,1.7076,1.7646,1.8101,1.8237,1.8016,1.8277,1.7695,1.6226,1.5238,1.3506,1.1148,1.107,1.1094,1.0923,1.0867,1.0891,1.0826,1.055,1.1456,1.3404,1.3577,1.4593,1.6526,1.7,1.6929,1.671,1.6662,1.6415,1.5865,1.5812,1.5697,1.5596,1.5536,1.3738,1.0132,0.9637,0.9604,0.9608,0.962,0.9555,0.9437,0.9539,0.9567,0.9639,0.9645,0.9624,0.9624,0.9624,0.9624,0.9624,0.9592,0.9575,0.9592,0.9493,0.9513,0.9438,0.863,0.8028,0.8038,0.8038,0.8237,0.8528,0.7928,0.7431,0.7329,0.5912,0.6211,0.812,0.924,0.9545,0.9533,0.9628,0.9624,0.9624,0.9624,0.9624,0.9624,0.9624,0.9624,0.9628,0.9533,0.9438,0.9034,0.863,0.8336,0.7939,0.7135,0.6642,0.6255,0.5925,0.5631,0.614,0.7298,0.7988,0.7758,0.646,0.4806,2.1359,2.1338,2.1039,2.0725,2.0502,2.0274,1.999,1.9733,1.9459,1.9325,1.9292,1.9132,1.8339,1.7165,1.6362,1.5954,1.6228,1.7235,1.7518,1.7325,1.8098,1.8437,1.8364,1.8444,1.7359,1.5648,1.5079,1.3571,1.1376,1.1196,1.1196,1.1122,1.1017,1.0968,1.0944,1.0842,1.1805,1.3698,1.4022,1.5042,1.7028,1.7401,1.7252,1.7035,1.6959,1.6803,1.6393,1.6213,1.6009,1.5789,1.5816,1.4322,1.1293,1.0075,0.9624,0.9624,0.9624,0.96,0.9547,0.9387,0.9399,0.9547,0.9587,0.9628,0.9624,0.9624,0.9624,0.9624,0.9624,0.9624,0.9628,0.9636,0.964,0.9442,0.8623,0.8014,0.8024,0.8035,0.8137,0.8329,0.773,0.7428,0.7723,0.6313,0.5912,0.8024,0.9141,0.9442,0.9434,0.943,0.9624,0.9624,0.9624,0.9624,0.9624,0.9624,0.9628,0.9628,0.9533,0.943,0.913,0.8829,0.8535,0.8237,0.7534,0.735,0.7172,0.7283,0.6925,0.6283,0.757,0.8716,0.8944,0.7265,0.5475,2.174,2.1744,2.1547,2.1278,2.0832,2.0832,2.0591,2.0207,2.0027,1.994,1.9887,1.9633,1.8783,1.7681,1.6667,1.5525,1.4635,1.6582,1.7227,1.6916,1.8149,1.8724,1.8657,1.8731,1.7503,1.532,1.4169,1.2984,1.1558,1.137,1.1366,1.1305,1.1191,1.1143,1.1122,1.1033,1.2131,1.392,1.4397,1.554,1.7477,1.7759,1.7596,1.7385,1.7299,1.7096,1.672,1.6513,1.6295,1.6072,1.5881,1.4353,1.1358,1.0126,0.9657,0.9701,0.9657,0.9624,0.9636,0.9474,0.9454,0.9457,0.9652,0.9697,0.964,0.9624,0.9624,0.9624,0.9624,0.9624,0.9624,0.9628,0.9632,0.9545,0.8931,0.8315,0.8024,0.8031,0.8134,0.8432,0.8127,0.8127,0.8425,0.7217,0.7117,0.8329,0.8939,0.924,0.9236,0.943,0.9624,0.9624,0.9624,0.9624,0.9624,0.9624,0.9624,0.9628,0.9628,0.9426,0.9229,0.9031,0.8829,0.8531,0.8347,0.8168,0.814,0.8357,0.7751,0.6703,0.7495,0.8882,0.8484,0.794,0.6482,2.2039,2.2053,2.2133,2.1746,2.1171,2.1164,2.0867,2.0301,2.0254,2.0241,2.0201,1.9927,1.9067,1.8044,1.7369,1.6031,1.4351,1.515,1.6093,1.6863,1.85,1.9063,1.8951,1.9165,1.7971,1.5499,1.3062,1.1782,1.1516,1.1638,1.1646,1.1524,1.1488,1.1472,1.1488,1.1319,1.2325,1.4291,1.4722,1.5707,1.7685,1.7983,1.7842,1.7622,1.7582,1.7335,1.6787,1.6727,1.66,1.6293,1.5992,1.384,1.0496,0.965,0.9721,0.9843,0.9742,0.9657,0.9669,0.9803,0.9646,0.9473,0.9813,1.0041,0.9726,0.9669,0.9652,0.9661,0.9636,0.9624,0.9624,0.9624,0.9632,0.9644,0.9438,0.8935,0.8226,0.8031,0.8233,0.863,0.873,0.9034,0.8829,0.8421,0.8322,0.8329,0.873,0.9031,0.9236,0.9434,0.9628,0.9624,0.9624,0.9624,0.9624,0.9624,0.9624,0.9628,0.9624,0.9525,0.9331,0.9133,0.8935,0.8741,0.8496,0.8424,0.8214,0.8336,0.8499,0.7993,0.8696,0.8903,0.8592,0.8273,0.8171,2.2472,2.2455,2.2455,2.2039,2.1458,2.1451,2.1209,2.0808,2.0635,2.0535,2.0481,2.0227,1.9356,1.8179,1.7006,1.5565,1.4106,1.4216,1.4935,1.6217,1.7618,1.8666,1.919,1.9332,1.8058,1.5575,1.2964,1.1752,1.1711,1.1752,1.1736,1.1699,1.1687,1.1691,1.1687,1.1696,1.2673,1.4735,1.474,1.5858,1.809,1.8136,1.7983,1.7936,1.8096,1.7923,1.7355,1.7121,1.6593,1.585,1.6164,1.4493,1.0914,1.0026,1.0022,1.0063,1.0034,0.9994,1.0002,1.0034,1.003,0.9941,1.0125,1.0154,0.9989,0.9766,0.9706,0.9791,0.9705,0.9624,0.9624,0.9624,0.9644,0.9632,0.9335,0.8931,0.8219,0.8127,0.8428,0.8726,0.8829,0.8829,0.8726,0.8619,0.8418,0.8428,0.8627,0.8931,0.9133,0.943,0.9624,0.9624,0.9624,0.9624,0.9624,0.9624,0.9624,0.9624,0.9624,0.9624,0.943,0.9335,0.9137,0.8885,0.874,0.8512,0.8402,0.833,0.8495,0.8602,0.8712,0.8776,0.8813,0.8719,0.8615,2.2675,2.2606,2.2487,2.2111,2.1607,2.1607,2.1362,2.1089,2.0922,2.0835,2.0775,2.0528,2.0021,1.8834,1.7009,1.5682,1.4809,1.3774,1.4211,1.5833,1.7183,1.8408,1.9319,1.8601,1.7387,1.5493,1.3036,1.1837,1.178,1.1776,1.1776,1.1776,1.1776,1.1809,1.1971,1.2401,1.3508,1.5082,1.5808,1.6899,1.8394,1.8775,1.8516,1.8359,1.8494,1.8393,1.7923,1.7635,1.7108,1.6241,1.6012,1.3893,1.0682,1.0205,1.0188,1.0241,1.0205,1.0184,1.0249,1.0148,1.012,1.0188,1.033,1.0439,1.0381,1.0141,1.0096,0.9969,0.979,0.9617,0.9827,0.9722,0.9617,0.9722,0.9402,0.884,0.8421,0.8326,0.8531,0.8829,0.8931,0.8931,0.8829,0.8722,0.8418,0.8528,0.8832,0.9034,0.9236,0.9434,0.9533,0.9628,0.9624,0.9624,0.9624,0.9624,0.9624,0.9624,0.9624,0.9624,0.9529,0.9434,0.9335,0.9045,0.8816,0.8586,0.8474,0.8434,0.8592,0.8665,0.8729,0.8783,0.8937,0.8937,0.8719,2.2656,2.2509,2.2265,2.1908,2.1655,2.1502,2.1362,2.1109,2.1089,2.1076,2.1022,2.0815,2.0702,2.0002,1.776,1.6527,1.5929,1.4028,1.4136,1.5979,1.7341,1.8524,1.9624,1.7777,1.6359,1.5387,1.3192,1.1963,1.1874,1.1866,1.1805,1.1849,1.1866,1.189,1.2242,1.3081,1.4284,1.567,1.7067,1.8256,1.9299,1.9597,1.9444,1.8967,1.8891,1.8759,1.8377,1.815,1.7896,1.7292,1.5217,1.2886,1.0839,1.0282,1.0302,1.0432,1.0286,1.0318,1.0412,1.0448,1.0391,1.0278,1.0478,1.0715,1.0598,1.0544,1.0502,1.0172,0.9916,0.9796,1.0012,0.99,0.9792,0.9892,0.9447,0.8885,0.8641,0.8535,0.863,0.9034,0.9236,0.9236,0.924,0.9145,0.8954,0.8836,0.9168,0.9422,0.9347,0.9446,0.9541,0.9632,0.9628,0.9624,0.9624,0.9624,0.9624,0.9624,0.9628,0.9636,0.9557,0.9569,0.9446,0.9146,0.8933,0.8691,0.8584,0.8545,0.8642,0.8692,0.8859,0.8916,0.8937,0.8937,0.8937,2.3043,2.2582,2.2198,2.1943,2.1524,2.1336,2.1235,2.1102,2.1102,2.1102,2.1082,2.1029,2.0975,2.0704,1.9031,1.765,1.6386,1.4678,1.4828,1.6375,1.6844,1.8213,1.9261,1.7632,1.6204,1.5718,1.3669,1.2211,1.217,1.2142,1.2146,1.2166,1.2138,1.2174,1.2465,1.3651,1.4671,1.5919,1.7434,1.8809,1.9639,2.005,1.9883,1.9302,1.9453,1.9224,1.8551,1.8424,1.8094,1.7407,1.4471,1.2234,1.0824,1.0558,1.0546,1.0578,1.0574,1.0558,1.0603,1.0619,1.059,1.0566,1.0679,1.072,1.067,1.0766,1.0601,1.0339,1.0144,1.0064,1.0168,1.0285,1.0285,0.9823,0.9354,0.8974,0.877,0.873,0.8829,0.9137,0.9343,0.9359,0.9287,0.9446,0.9473,0.9222,0.9512,0.9912,0.9658,0.9534,0.9758,0.9657,0.9624,0.9624,0.9624,0.9624,0.9624,0.9624,0.9636,0.9657,0.9602,0.9558,0.9489,0.9327,0.9115,0.8874,0.8759,0.8784,0.8818,0.8842,0.8882,0.8937,0.8937,0.8937,0.8937,2.2863,2.2587,2.2196,2.1849,2.1383,2.1316,2.1223,2.1122,2.1102,2.1102,2.1102,2.1102,2.1102,2.0949,1.9512,1.8162,1.6743,1.5238,1.5513,1.687,1.8157,1.9287,1.9756,1.825,1.7088,1.6156,1.4252,1.299,1.2434,1.2304,1.2304,1.2292,1.2304,1.259,1.3405,1.4572,1.5768,1.7054,1.8573,1.9747,2.0323,2.0655,2.0494,2.0183,2.0143,1.9726,1.8877,1.8671,1.8007,1.6387,1.4331,1.2507,1.0916,1.0692,1.0692,1.0692,1.0692,1.0688,1.0692,1.0692,1.0692,1.0688,1.0692,1.0692,1.0672,1.0703,1.0654,1.053,1.0436,1.0396,1.049,1.0605,1.0461,1.0079,0.9653,0.9282,0.916,0.9137,0.9234,0.9453,0.9702,0.9746,0.954,0.9839,0.9835,0.9717,0.9808,0.9957,0.9827,0.9864,0.9726,0.9697,0.964,0.9648,0.9685,0.9701,0.975,0.9746,0.9831,0.9815,0.9621,0.9595,0.9442,0.9282,0.9176,0.9054,0.891,0.8859,0.8886,0.891,0.9044,0.9047,0.8937,0.9047,0.9047,2.2699,2.2563,2.218,2.1724,2.1363,2.1463,2.1396,2.1196,2.1122,2.1102,2.1102,2.1102,2.1102,2.0982,1.9903,1.8506,1.6964,1.5754,1.6033,1.7457,1.9249,2.0803,2.0388,1.8981,1.7598,1.6348,1.5057,1.3642,1.2702,1.2398,1.2381,1.2541,1.2525,1.333,1.4444,1.5846,1.7207,1.8386,1.9743,2.0577,2.0976,2.1307,2.118,2.0774,2.0427,2.0007,1.9273,1.8864,1.7798,1.5038,1.4768,1.3226,1.1215,1.0753,1.0753,1.0749,1.0741,1.07,1.0716,1.072,1.0692,1.0692,1.0692,1.0692,1.0688,1.0668,1.0664,1.066,1.0688,1.0631,1.0595,1.0643,1.057,1.0325,1.0059,0.9906,0.9721,0.9521,0.9611,0.992,1.0067,1.0136,1.0164,1.0176,1.0176,0.9955,1.0152,1.0132,1.0026,0.9899,0.9774,0.9665,0.9648,0.9673,0.9726,0.9782,0.9855,0.9912,1.0071,1.0003,0.9633,0.9495,0.9414,0.9326,0.9201,0.905,0.8886,0.8927,0.8937,0.8937,0.8937,0.9051,0.9051,0.9158,0.9268,2.3377,2.277,2.2432,2.2258,2.2084,2.173,2.151,2.1423,2.1203,2.1102,2.1102,2.1102,2.1102,2.1109,2.0589,1.9297,1.7232,1.6592,1.6845,1.7232,1.9814,2.0956,2.0498,1.8762,1.7301,1.63,1.4289,1.3135,1.271,1.2678,1.2714,1.2832,1.3824,1.4535,1.5053,1.7058,1.8386,1.8924,2.0211,2.1073,2.1157,2.1371,2.1321,2.1082,2.0404,1.9996,1.9606,1.9392,1.8397,1.6822,1.5343,1.3748,1.1737,1.0964,1.0964,1.0992,1.0838,1.0769,1.0854,1.0789,1.0696,1.0708,1.07,1.0692,1.0692,1.0692,1.0692,1.0692,1.0688,1.0639,1.045,1.0627,1.0582,1.0345,1.0208,1.0148,1.0168,0.9971,0.9888,1.0111,1.0148,1.0168,1.0289,1.0322,1.0314,1.0237,1.0253,1.0306,1.0245,1.006,0.9887,0.9786,0.9786,0.9835,0.9868,0.9949,1.0054,1.0136,1.0282,1.015,0.9777,0.9561,0.9463,0.9345,0.9102,0.9037,0.8937,0.8937,0.8937,0.8937,0.894,0.9051,0.9161,0.9268,0.9382,2.3502,2.2962,2.2553,2.2265,2.1984,2.169,2.147,2.1336,2.1182,2.1102,2.1102,2.1102,2.1102,2.1102,2.0976,1.9559,1.7496,1.698,1.698,1.7625,1.9686,2.0976,2.0462,1.8524,1.698,1.6592,1.4907,1.3617,1.3095,1.3354,1.3464,1.3095,1.4912,1.5789,1.6068,1.8005,1.9218,1.9896,2.0612,2.1148,2.1389,2.1614,2.1523,2.1261,2.0516,1.9953,1.978,1.9659,1.9089,1.8043,1.6327,1.4264,1.2387,1.1481,1.1147,1.1155,1.1078,1.098,1.1025,1.0819,1.0711,1.0703,1.0749,1.07,1.0692,1.0692,1.0692,1.0692,1.0684,1.0647,1.0458,1.0413,1.0517,1.044,1.0274,1.0221,1.027,1.0116,0.9999,1.0278,1.0371,1.0412,1.0465,1.0489,1.0509,1.0465,1.0477,1.0509,1.049,1.0298,1.0184,1.005,1.0018,1.0018,1.0038,1.0128,1.0278,1.0379,1.0497,1.0221,0.9876,0.9675,0.9494,0.9332,0.9037,0.893,0.8937,0.8937,0.8937,0.894,0.9051,0.9051,0.9158,0.9379,0.9382,2.325,2.2767,2.2532,2.2104,2.165,2.1577,2.1423,2.1216,2.1122,2.1102,2.1102,2.1102,2.1102,2.1102,2.1102,1.9553,1.7625,1.698,1.698,1.7367,1.982,2.0976,2.0462,1.853,1.698,1.685,1.5038,1.3744,1.3744,1.4132,1.439,1.4002,1.5939,1.7232,1.7619,1.8652,1.9928,2.0803,2.0929,2.1301,2.1644,2.1895,2.179,2.1472,2.0815,2.0221,2.0047,1.9913,1.9654,1.9344,1.6973,1.504,1.3596,1.2068,1.1289,1.1301,1.1244,1.1208,1.1216,1.0996,1.0771,1.0763,1.0727,1.0749,1.0745,1.0712,1.0692,1.0692,1.0688,1.0672,1.0647,1.059,1.0493,1.042,1.029,1.0217,1.0197,1.0188,1.0241,1.0391,1.0456,1.0497,1.0582,1.0639,1.0672,1.0696,1.07,1.055,1.0526,1.0436,1.0229,1.0124,1.0072,1.0193,1.0217,1.0314,1.0461,1.0517,1.0651,1.0327,0.9896,0.9779,0.9552,0.9133,0.8937,0.8937,0.8937,0.8937,0.8937,0.894,0.894,0.9051,0.9161,0.9379,0.9386,2.2903,2.221,2.2318,2.2218,2.1897,2.165,2.1503,2.1443,2.1203,2.1109,2.1102,2.1102,2.1102,2.1102,2.1102,1.9553,1.7496,1.698,1.698,1.7496,1.9686,2.1102,2.0589,1.8396,1.7109,1.6333,1.4651,1.3613,1.4394,1.4782,1.5424,1.6328,1.7899,1.8676,1.889,1.9941,2.069,2.087,2.1009,2.1135,2.1553,2.1713,2.1706,2.1589,2.0977,2.0561,2.0461,2.0267,2.004,1.9549,1.732,1.5829,1.4646,1.2822,1.1643,1.1557,1.1407,1.1334,1.1378,1.1285,1.1077,1.0788,1.0783,1.0691,1.0763,1.0683,1.0761,1.0716,1.07,1.0651,1.0497,1.055,1.0554,1.0365,1.0281,1.0237,1.0106,1.0156,1.0241,1.0412,1.0481,1.0546,1.0635,1.0692,1.0586,1.048,1.0484,1.021,0.9876,1.0074,1.0285,1.0186,1.0091,1.0237,1.0391,1.0513,1.0627,1.0611,1.0676,1.0351,1.0025,0.9812,0.9596,0.9158,0.8937,0.8937,0.8937,0.8937,0.8937,0.8937,0.894,0.9051,0.9161,0.9382,0.9293,2.278,2.1991,2.1984,2.1891,2.173,2.145,2.1329,2.1303,2.1169,2.1102,2.1102,2.1102,2.1102,2.1102,2.1102,1.9559,1.7625,1.698,1.698,1.7625,1.9686,2.1102,2.0716,1.8262,1.7232,1.6203,1.4394,1.3744,1.5033,1.5814,1.6462,1.7523,1.9285,1.9895,1.9314,2.0258,2.081,2.0933,2.0708,2.0886,2.1395,2.1512,2.1607,2.1434,2.1101,2.0835,2.0661,2.0568,2.0321,1.9572,1.7443,1.6299,1.5104,1.349,1.1687,1.1732,1.1602,1.1484,1.1504,1.152,1.1334,1.1343,1.1143,1.0936,1.0888,1.0839,1.1015,1.085,1.083,1.0761,1.0607,1.0595,1.0509,1.0333,1.0269,1.0221,1.0176,1.0217,1.0294,1.0408,1.0448,1.053,1.0655,1.0586,1.048,1.0374,1.0272,0.9979,0.945,0.9802,1.0276,1.045,1.0357,1.0377,1.0526,1.0603,1.0692,1.0692,1.0729,1.0398,1.0181,0.9979,0.9511,0.9047,0.8937,0.8991,0.8937,0.8937,0.8937,0.8944,0.8954,0.9071,0.9168,0.9279,0.9443,2.2396,2.179,2.1623,2.1516,2.1423,2.1343,2.1242,2.1109,2.1235,2.1102,2.1102,2.1102,2.1102,2.0976,2.0202,1.8908,1.698,1.698,1.698,1.7625,1.9814,2.1102,2.0329,1.8908,1.7361,1.6592,1.4782,1.4128,1.5804,1.6581,1.7512,1.8881,2.0895,2.0972,2.0075,2.0693,2.0869,2.0792,2.0563,2.0664,2.1067,2.1443,2.1481,2.1607,2.1229,2.0962,2.0702,2.0742,2.0541,1.9543,1.7887,1.6252,1.5803,1.3491,1.2012,1.1874,1.1821,1.1707,1.1654,1.1565,1.1626,1.1649,1.1558,1.1331,1.1118,1.1114,1.1196,1.1001,1.0956,1.094,1.0822,1.0696,1.053,1.0486,1.0489,1.0331,1.0331,1.031,1.0208,1.0281,1.0424,1.0526,1.0672,1.0476,1.037,1.0154,1.0158,0.9934,0.953,0.9764,1.0123,1.0562,1.0643,1.0643,1.0651,1.0639,1.0692,1.0692,1.0765,1.0711,1.0377,1.0051,0.9597,0.929,0.9086,0.912,0.9032,0.8967,0.9008,0.9022,0.8998,0.9248,0.9434,0.9687,0.9942,2.171,2.1236,2.1463,2.1403,2.1182,2.1375,2.1355,2.1109,2.1362,2.1355,2.1102,2.1102,2.1102,2.0716,1.8652,1.749,1.7103,1.7238,1.7238,1.7619,1.9814,2.1102,2.0843,1.9559,1.8011,1.698,1.5429,1.5809,1.685,1.7367,1.8905,2.0876,2.1376,2.1444,2.1188,2.1394,2.1476,2.1343,2.1116,2.102,2.1148,2.124,2.1355,2.1328,2.1182,2.0935,2.0695,2.0762,2.0702,1.9942,1.7931,1.6539,1.5924,1.377,1.2494,1.215,1.2,1.1829,1.1886,1.1809,1.1711,1.1749,1.1671,1.1715,1.1495,1.1163,1.1045,1.0984,1.098,1.1029,1.1082,1.1106,1.0996,1.1025,1.0883,1.0749,1.0668,1.059,1.047,1.0337,1.0538,1.0534,1.0708,1.048,1.026,1.0044,0.9827,0.9713,0.971,0.993,1.015,1.0582,1.0692,1.0692,1.0692,1.0692,1.0737,1.0724,1.081,1.0799,1.0502,1.0198,1.006,0.9742,0.9509,0.9225,0.9137,0.91,0.9113,0.9253,0.9398,0.9581,0.9777,1.013,1.0322,2.1189,2.1122,2.1243,2.1229,2.1122,2.1481,2.1481,2.1481,2.1481,2.1481,2.1362,2.1109,2.1102,2.0596,1.8908,1.8133,1.8133,1.8133,1.8139,1.8396,2.0075,2.1102,2.0589,1.9042,1.7619,1.7619,1.6457,1.6452,1.7647,1.8283,1.9332,2.1923,2.2366,2.2141,2.2035,2.1804,2.1577,2.1403,2.1289,2.133,2.1202,2.1289,2.133,2.1146,2.1014,2.0722,2.0568,2.0508,2.0521,1.9761,1.7884,1.6496,1.567,1.3922,1.2333,1.243,1.2227,1.2081,1.2024,1.1963,1.1764,1.1667,1.1703,1.1782,1.1708,1.1346,1.1171,1.1269,1.1171,1.1167,1.1204,1.122,1.1224,1.1191,1.1122,1.1074,1.0968,1.0968,1.0811,1.0667,1.0632,1.0735,1.0711,1.0449,1.02,0.993,0.9713,0.9599,0.9816,1.0253,1.0363,1.0692,1.0692,1.0692,1.0692,1.0696,1.0921,1.0945,1.1007,1.0884,1.0528,1.0252,1.0109,0.9873,0.9473,0.9296,0.9239,0.9242,0.9262,0.9544,0.9827,1.0099,1.0244,1.0323,1.0435,2.0808,2.1009,2.1076,2.1102,2.1102,2.1488,2.1481,2.1488,2.1607,2.1607,2.1488,2.1235,2.0976,2.0462,1.9425,1.8908,1.8908,1.9036,1.9036,1.9425,2.0329,2.0976,2.0462,1.8914,1.7876,1.853,1.6681,1.6952,1.8205,1.9292,2.041,2.2455,2.2759,2.2529,2.2156,2.1991,2.1884,2.1496,2.159,2.1496,2.1316,2.1416,2.1276,2.1036,2.0802,2.0648,2.0401,2.0381,2.0368,1.9248,1.7637,1.6156,1.5401,1.3676,1.2512,1.2475,1.2393,1.2349,1.2268,1.2186,1.1785,1.1686,1.1582,1.1813,1.1723,1.1476,1.1205,1.133,1.1297,1.1137,1.1157,1.1153,1.1339,1.1319,1.1278,1.1286,1.1282,1.1114,1.094,1.0755,1.0634,1.0842,1.0681,1.0355,1.0047,0.9842,0.9596,0.95,0.9835,1.0398,1.0606,1.0724,1.0716,1.0741,1.0794,1.081,1.1003,1.1089,1.115,1.1012,1.0678,1.042,1.0266,0.9994,0.9583,0.9503,0.9523,0.9469,0.9538,0.997,1.0262,1.045,1.0556,1.0654,1.0601,2.0688,2.0728,2.0995,2.0976,2.1109,2.1488,2.1355,2.1235,2.1488,2.1355,2.0976,2.1102,2.0462,1.9559,1.9425,1.9164,1.9036,1.9036,1.9164,1.968,2.0329,2.0976,2.0462,1.9425,1.8156,1.7686,1.6891,1.738,1.857,2.0491,2.1382,2.242,2.2946,2.2928,2.2741,2.2418,2.2265,2.1971,2.2004,2.1857,2.1643,2.159,2.1503,2.1403,2.1182,2.0942,2.0668,2.0601,2.0216,1.901,1.7251,1.5797,1.4794,1.3273,1.2508,1.2462,1.2495,1.2507,1.2564,1.2426,1.2166,1.1956,1.1857,1.1967,1.1874,1.1634,1.1402,1.1189,1.122,1.118,1.1176,1.1249,1.1495,1.1475,1.147,1.1269,1.1252,1.1191,1.1012,1.0713,1.0768,1.1021,1.1017,1.0689,1.033,1.0122,1.0193,0.998,1.0047,1.0488,1.0671,1.0769,1.0753,1.0806,1.0936,1.0992,1.1045,1.1278,1.1376,1.1237,1.0992,1.0718,1.0524,1.0183,0.9792,0.9741,0.9764,0.9635,0.9703,1.0299,1.0576,1.0748,1.0913,1.097,1.08,1.9859,2.0823,1.9255,1.9559,2.1109,2.0576,2.0703,2.1222,2.0576,2.0189,1.9814,2.0589,2.0335,1.9559,2.0075,2.0329,2.0335,2.0329,2.0195,2.0329,2.0843,2.1109,2.0462,1.9218,1.7956,1.8097,1.7834,1.81,1.9326,2.127,2.1899,2.2542,2.3077,2.3126,2.3025,2.2732,2.2612,2.2552,2.2485,2.2372,2.2111,2.1864,2.165,2.1269,2.1216,2.0962,2.0722,2.0681,2.0249,1.9221,1.742,1.5782,1.4308,1.2962,1.2467,1.2418,1.243,1.2564,1.2739,1.2592,1.2434,1.2308,1.2235,1.2291,1.2052,1.1712,1.1598,1.1453,1.1335,1.126,1.1539,1.172,1.1877,1.1807,1.1569,1.1427,1.1386,1.135,1.1386,1.116,1.12,1.1284,1.1114,1.1036,1.0778,1.0417,1.0497,1.0576,1.0529,1.0614,1.0819,1.0923,1.0919,1.0972,1.1102,1.1155,1.1191,1.133,1.1589,1.1418,1.1129,1.0823,1.0624,1.0301,0.9947,0.9822,0.9791,0.972,0.9961,1.0499,1.0778,1.0902,1.1115,1.1218,1.1024,1.9343,2.0591,1.8489,1.8652,2.0202,1.9291,1.9546,2.0449,1.9807,1.8896,1.8524,2.0075,2.0075,1.9297,2.0329,2.0976,2.0976,2.0976,2.0976,2.1142,2.1196,2.1229,2.0355,1.9018,1.7851,1.849,1.8339,1.8334,1.9148,2.1769,2.2425,2.2565,2.2948,2.2957,2.2862,2.2826,2.2859,2.2859,2.2421,2.2506,2.2377,2.171,2.1753,2.1454,2.1503,2.1363,2.1182,2.1102,2.0433,1.9368,1.7685,1.5644,1.4037,1.2919,1.2451,1.2345,1.2381,1.2503,1.2596,1.2682,1.258,1.2523,1.2553,1.25,1.2247,1.1781,1.1598,1.1456,1.1429,1.1527,1.1827,1.1868,1.1857,1.1744,1.1741,1.1512,1.161,1.1626,1.1711,1.1651,1.1671,1.1534,1.1475,1.1387,1.1059,1.0686,1.0593,1.0685,1.0673,1.0776,1.102,1.1135,1.1143,1.1212,1.1297,1.1325,1.137,1.1512,1.1626,1.1527,1.1346,1.1042,1.0686,1.0311,1.0079,0.9852,0.9822,0.9768,1.0137,1.0657,1.0921,1.13,1.1351,1.144,1.1057,1.9412,2.0466,1.932,1.878,1.8914,1.7625,1.7876,1.9291,1.9291,1.8518,1.7876,1.9814,1.968,1.839,1.9947,2.0849,2.1102,2.1109,2.1136,2.1209,2.137,2.149,2.0694,1.9214,1.7711,1.7717,1.7912,1.8123,1.8408,2.1366,2.2459,2.2425,2.2525,2.2692,2.2452,2.2726,2.2853,2.2722,2.1603,2.199,2.205,2.1268,2.1468,2.1486,2.1793,2.175,2.1677,2.1537,2.0895,1.9807,1.8028,1.5721,1.3127,1.2751,1.2515,1.2422,1.2507,1.2499,1.2393,1.2661,1.2616,1.267,1.2627,1.257,1.2312,1.2017,1.1557,1.1309,1.1337,1.1666,1.1705,1.1816,1.1886,1.1983,1.1872,1.184,1.1829,1.1898,1.1975,1.2016,1.202,1.2012,1.1963,1.1736,1.1371,1.0961,1.0829,1.0794,1.0713,1.0977,1.1366,1.1374,1.139,1.1464,1.1524,1.15,1.1549,1.1695,1.1764,1.1643,1.1453,1.1283,1.0897,1.0358,1.0134,0.9941,0.9886,0.9819,1.035,1.0756,1.1296,1.1667,1.1716,1.1575,1.123,1.862,2.0585,1.655,1.5939,1.7496,1.7238,1.7748,1.9036,1.9814,1.9559,1.8652,1.9425,1.9425,1.8908,1.9176,2.0335,2.0989,2.1116,2.1156,2.1416,2.1557,2.1683,2.1031,1.9427,1.7917,1.7852,1.8042,1.82,1.8019,2.1143,2.227,2.223,2.2297,2.2465,2.2478,2.2692,2.2859,2.2866,2.2304,2.2009,2.1571,2.1493,2.134,2.1057,2.1626,2.1885,2.2017,2.1877,2.1457,2.0504,1.8804,1.5964,1.3561,1.3021,1.2783,1.2751,1.2828,1.2722,1.258,1.258,1.2397,1.2487,1.2475,1.2318,1.2039,1.1682,1.1313,1.1095,1.1305,1.1437,1.1401,1.2188,1.2402,1.2494,1.2448,1.23,1.2225,1.2142,1.219,1.2203,1.2211,1.1948,1.1912,1.1685,1.1229,1.0989,1.0759,1.0837,1.0971,1.1363,1.1638,1.1638,1.1658,1.1727,1.176,1.1711,1.1752,1.1894,1.189,1.1833,1.1658,1.1538,1.1076,1.0695,1.0301,1.0032,1.0112,1.0207,1.0479,1.0852,1.1429,1.1828,1.1933,1.1779,1.1511,1.8879,2.0589,1.6711,1.5684,1.6834,1.6379,1.7112,1.8921,2.041,2.0329,1.9291,1.9425,1.9425,1.9291,1.9559,2.017,2.1243,2.1269,2.1423,2.169,2.183,2.1984,2.1307,1.9909,1.9073,1.8681,1.8721,1.8834,1.8829,2.1021,2.185,2.2015,2.2044,2.2184,2.2398,2.2679,2.2792,2.2629,2.2056,2.1459,2.1001,2.0759,2.0661,2.073,2.0988,2.1613,2.2005,2.2131,2.1998,2.1123,1.9299,1.6469,1.4464,1.3369,1.3108,1.3076,1.2942,1.2873,1.2801,1.2533,1.2401,1.2385,1.2226,1.1988,1.1861,1.1514,1.1162,1.0933,1.1003,1.1169,1.1458,1.2242,1.2553,1.2641,1.2658,1.2499,1.2521,1.2438,1.2418,1.2426,1.227,1.2131,1.1695,1.1336,1.0948,1.0751,1.0685,1.0886,1.119,1.1538,1.1788,1.1792,1.1805,1.1841,1.1882,1.1898,1.1967,1.2097,1.2056,1.1979,1.1969,1.1858,1.1385,1.1035,1.0633,1.0342,1.0385,1.061,1.0878,1.1128,1.1604,1.1916,1.2158,1.1956,1.1749,1.9814,2.0849,1.9553,1.8011,1.6942,1.5752,1.6424,1.8698,2.0352,2.0316,1.9139,2.041,2.0138,1.9522,2.0316,2.1001,2.1496,2.1537,2.175,2.1984,2.2171,2.2318,2.1886,2.0922,2.0137,2.0083,1.9957,1.9596,1.9814,2.1097,2.1623,2.1597,2.1777,2.1984,2.2305,2.2605,2.2692,2.2433,2.1926,2.117,2.0316,1.9623,1.9825,1.9863,2.0373,2.1162,2.1658,2.2184,2.136,2.0385,1.8882,1.649,1.4784,1.3644,1.3417,1.321,1.3015,1.308,1.308,1.2652,1.2425,1.2395,1.2067,1.1814,1.1529,1.1301,1.094,1.0827,1.0915,1.1124,1.1427,1.1842,1.2264,1.2439,1.2602,1.2599,1.2678,1.2722,1.2682,1.2653,1.2475,1.2169,1.1558,1.1075,1.1006,1.0944,1.0992,1.1286,1.1452,1.155,1.1809,1.1845,1.187,1.1918,1.1971,1.2073,1.2154,1.228,1.2118,1.2073,1.2071,1.2155,1.1803,1.1316,1.0826,1.0659,1.0937,1.1147,1.1277,1.1657,1.2067,1.2178,1.227,1.2381,1.2167,1.9814,2.0849,1.8524,1.7876,1.8384,1.7925,1.8157,1.9066,2.0436,2.075,2.0158,1.9531,1.965,2.0177,1.9859,2.049,2.1265,2.1784,2.2038,2.2251,2.2412,2.2418,2.2041,2.1397,2.0724,2.0373,2.0315,2.0335,2.0098,2.1006,2.1396,2.1303,2.1764,2.1957,2.2158,2.2512,2.2652,2.2623,2.2258,2.1026,2.0063,1.9507,1.9421,1.9118,1.9581,2.0355,2.1391,2.1871,2.0914,1.9534,1.9204,1.7338,1.4123,1.3823,1.3721,1.3701,1.3616,1.3583,1.347,1.3407,1.3165,1.262,1.2181,1.1633,1.1324,1.1095,1.0823,1.0584,1.0692,1.0986,1.1256,1.1542,1.19,1.2122,1.2434,1.2714,1.2783,1.2759,1.2731,1.2636,1.2461,1.2046,1.1427,1.1102,1.1038,1.1115,1.1299,1.1713,1.1853,1.1832,1.1898,1.1947,1.1991,1.2056,1.2203,1.2316,1.2504,1.2562,1.241,1.2282,1.2351,1.2423,1.2087,1.1716,1.1196,1.1286,1.1732,1.1702,1.1547,1.2032,1.2459,1.2532,1.2491,1.2495,1.2399,2.0329,2.0849,1.9297,1.878,1.8908,1.8396,1.8524,1.9145,2.0346,2.0822,2.0551,1.9794,1.9743,2.0295,2.0033,2.0495,2.1563,2.1844,2.2171,2.2539,2.2437,2.2505,2.2196,2.1821,2.1479,2.1201,2.1098,2.1123,2.0767,2.0863,2.1276,2.1383,2.1924,2.1971,2.2111,2.2438,2.2706,2.2799,2.2441,2.1321,2.0485,1.964,1.8794,1.8452,1.8896,1.9591,2.0682,2.1039,2.0516,1.902,1.8851,1.7462,1.466,1.3843,1.3892,1.3859,1.3847,1.3794,1.3701,1.3763,1.3435,1.3043,1.2548,1.2008,1.1378,1.0983,1.0559,1.0155,1.0594,1.0804,1.1046,1.1312,1.1606,1.1892,1.2255,1.2754,1.2789,1.282,1.2628,1.2553,1.2297,1.1897,1.145,1.125,1.1182,1.1626,1.1939,1.2119,1.2272,1.215,1.2109,1.2134,1.217,1.2223,1.2377,1.2507,1.2548,1.2592,1.2629,1.2633,1.2666,1.2552,1.2192,1.1945,1.1687,1.1773,1.1992,1.1835,1.1698,1.2311,1.2755,1.2702,1.2661,1.2678,1.2592,2.1089,2.1069,2.1102,2.0202,1.9036,1.7876,1.8133,1.9139,2.0058,2.0531,2.0581,2.0354,2.0119,2.0294,2.0381,2.0836,2.1447,2.1707,2.213,2.2846,2.2375,2.2257,2.2465,2.2619,2.2288,2.223,2.2112,2.1706,2.1429,2.1296,2.1296,2.1516,2.1663,2.1837,2.2191,2.2452,2.2699,2.2832,2.2722,2.2022,2.0629,1.9478,1.8416,1.8046,1.8107,1.8295,1.9567,2.0011,2.0135,1.861,1.7609,1.6945,1.4968,1.3815,1.388,1.39,1.39,1.3888,1.3803,1.3887,1.3675,1.3406,1.3218,1.2455,1.1714,1.1094,1.0645,1.0256,1.0482,1.0845,1.1095,1.1598,1.1833,1.2065,1.2288,1.2529,1.2664,1.2674,1.264,1.2421,1.2177,1.178,1.124,1.1034,1.1275,1.1865,1.2346,1.2536,1.2603,1.2369,1.2324,1.2328,1.2341,1.2393,1.2532,1.2641,1.2686,1.2735,1.2767,1.2783,1.2759,1.2521,1.2165,1.2018,1.1999,1.2146,1.2254,1.1949,1.193,1.2505,1.2812,1.2824,1.2824,1.2804,1.268,2.0975,2.0802,2.1015,2.0849,2.0462,1.9164,1.9297,2.0436,1.9393,1.9547,2.0232,2.0254,2.0087,1.9993,2.0655,2.1162,2.1434,2.1174,2.1816,2.2121,2.1885,2.1965,2.2398,2.2722,2.2662,2.2486,2.2236,2.1963,2.1382,2.1249,2.1149,2.1283,2.1557,2.1991,2.2144,2.2418,2.2732,2.2989,2.2676,2.2134,2.0906,2.031,1.9525,1.8507,1.8042,1.8339,1.9131,1.8783,1.8528,1.768,1.75,1.6152,1.4072,1.3952,1.3884,1.39,1.3892,1.3892,1.3823,1.3833,1.3678,1.336,1.3108,1.2472,1.1969,1.1449,1.1055,1.0674,1.0535,1.0907,1.1279,1.1666,1.2174,1.2251,1.232,1.243,1.2544,1.2531,1.2509,1.2281,1.2041,1.1648,1.1111,1.0969,1.1351,1.1863,1.2389,1.2751,1.2726,1.2649,1.2552,1.2536,1.2503,1.2564,1.2686,1.2739,1.2763,1.2783,1.2804,1.2824,1.2836,1.2572,1.2437,1.2441,1.2437,1.2441,1.2305,1.2022,1.215,1.27,1.2836,1.2836,1.2836,1.282,1.2692,2.0708,2.0708,2.1108,2.0976,2.0195,1.8902,1.8774,1.9012,1.8244,1.8476,1.9402,1.9837,2.0013,1.9806,2.0528,2.1082,2.1192,2.0495,2.1442,2.1932,2.1546,2.1584,2.2031,2.2738,2.2598,2.2426,2.2244,2.1866,2.1362,2.1109,2.1129,2.1075,2.165,2.1984,2.217,2.2566,2.2882,2.3119,2.2889,2.2206,2.1302,2.0882,2.0347,1.9204,1.8544,1.8716,1.8311,1.7819,1.7276,1.6526,1.5942,1.5206,1.3953,1.3807,1.3843,1.3831,1.3831,1.3868,1.3798,1.3874,1.3805,1.3498,1.3114,1.2559,1.2105,1.1604,1.1117,1.0701,1.0742,1.1108,1.1456,1.1834,1.215,1.2296,1.2333,1.2406,1.2552,1.2702,1.2385,1.2033,1.178,1.1516,1.1111,1.0833,1.1087,1.1762,1.2437,1.2832,1.2836,1.2836,1.2763,1.2714,1.2661,1.2678,1.2763,1.28,1.2812,1.2828,1.2836,1.2836,1.2836,1.2836,1.2704,1.2704,1.2704,1.2708,1.2437,1.2301,1.2301,1.2704,1.2836,1.2836,1.2836,1.2836,1.2836,2.0414,2.0819,2.1318,2.0929,1.9668,1.8378,1.7742,1.749,1.7356,1.7593,1.8435,1.9787,1.9801,1.9826,2.0261,2.0702,2.0605,1.982,2.0773,2.1848,2.0876,2.127,2.211,2.2731,2.2639,2.2426,2.2181,2.188,2.1607,2.1229,2.1009,2.1102,2.1407,2.1924,2.2149,2.2525,2.2815,2.2944,2.2808,2.2821,2.2206,2.1609,2.0909,2.0084,1.8879,1.7965,1.7841,1.7109,1.6425,1.5762,1.4639,1.4153,1.3825,1.3803,1.3807,1.3807,1.3843,1.3823,1.3758,1.3879,1.3833,1.3714,1.3154,1.2807,1.2346,1.1844,1.1351,1.1132,1.1045,1.1218,1.1575,1.204,1.2226,1.2365,1.2393,1.2462,1.2629,1.2759,1.2401,1.192,1.1648,1.1512,1.124,1.0965,1.1104,1.1776,1.2184,1.2572,1.2836,1.2836,1.2804,1.2783,1.2767,1.28,1.2836,1.2836,1.2836,1.2836,1.2836,1.2836,1.2836,1.2836,1.2836,1.2836,1.2704,1.2704,1.2704,1.2568,1.2704,1.2836,1.2836,1.2836,1.2836,1.2836,1.2836,2.0401,2.0681,2.1114,2.125,2.0923,1.9655,1.9018,1.9024,1.8628,1.8488,1.8649,1.9672,2.0167,1.9412,2.0287,2.065,2.0251,1.9243,2.0319,2.181,2.0071,2.0778,2.2133,2.2827,2.3109,2.2736,2.2363,2.1873,2.1614,2.1235,2.0469,1.9724,2.1159,2.1273,2.0535,2.1363,2.2828,2.2809,2.31,2.3025,2.2799,2.2304,2.1734,2.0557,1.9149,1.8566,1.7699,1.5751,1.5514,1.5162,1.4584,1.4068,1.3846,1.3936,1.3969,1.3815,1.3851,1.3843,1.3794,1.3803,1.3924,1.3829,1.3482,1.3161,1.2654,1.2099,1.1562,1.1313,1.1358,1.1493,1.184,1.23,1.2616,1.2641,1.2685,1.2841,1.3009,1.2865,1.2584,1.2188,1.1912,1.178,1.1648,1.138,1.1258,1.1943,1.2511,1.2769,1.2885,1.2865,1.2856,1.284,1.2844,1.2836,1.2836,1.2836,1.2836,1.2836,1.2836,1.2836,1.2836,1.2836,1.2836,1.2836,1.2836,1.2836,1.2836,1.2836,1.2836,1.2836,1.2836,1.2836,1.2836,1.2865,1.2893]}]]